     2.10           OBSERVATION DATA    G (GPS)             RINEX VERSION / TYPE
teqc 2002Mar14 Lou Estey 20020315 16:11:13UTC               PGM / RUN BY / DATE
Solaris 2.7|Ultra 2|cc SC5.0|=+-|*Sparc                     COMMENT
CHET                                                        MARKER NAME
MBL -Unknown-                                               OBSERVER / AGENCY
908 ASHTECH LM-XII3 7C                                      REC # / TYPE / VERS
636 -Unknown-                                               ANT # / TYPE
   179581.3000 -6048070.2600  2010448.3800                  APPROX POSITION XYZ
        0.1504        0.0000        0.0000                  ANTENNA: DELTA H/E/N
     1     1                                                WAVELENGTH FACT L1/2
     5    L1    L2    C1    D1    D2                        # / TYPES OF OBSERV
SNR is mapped to RINEX snr flag value [1-9]                 COMMENT
L1: 1 -> 1; 10 -> 5; 94 -> 9                                COMMENT
L2: 1 -> 1; 5 -> 5; 40 -> 9                                 COMMENT
  1996     7     1     3     0    0.0000000     GPS         TIME OF FIRST OBS
                                                            END OF HEADER
 96  7  1  3  0  0.0000000  0  6G 1G17G 5G25G23G21
  14389675.397 9    402702.74329  21735829.798        -738.088
  11733410.823 7   2205001.52225  22875920.640       -3902.190
   3065990.417 7    106707.11325  24364244.015        -382.808
   9862215.212 9  -1414298.69229  22301774.103        2183.424
   7408311.577 9    330518.78528  21809462.513        -706.572
  18814685.633 9   -769262.08529  21222463.844        1129.614
 96  7  1  3  0 15.0000000  0  6G 1G17G 5G25G23G21
  14400760.750 9    411340.68929  21737945.643        -739.993
  11791970.478 7   2250632.40525  22887068.272       -3905.716
   3071785.473 7    111222.69325  24365342.035        -389.921
   9829507.475 9  -1439785.23729  22295552.420        2177.652
   7418947.738 9    338806.70028  21811483.084        -711.535
  18797767.884 9   -782444.73629  21219248.810        1126.076
 96  7  1  3  0 30.0000000  0  6G 1G17G 5G25G23G21
  14411874.919 9    420001.07529  21740060.769        -741.987
  11850581.936 7   2296303.66725  22898218.393       -3909.140
   3077689.830 7    115823.50825  24366463.139        -397.336
   9796885.236 9  -1465205.15829  22289345.247        2172.011
   7429656.536 9    347151.23628  21813520.024        -716.343
  18780903.008 9   -795586.20629  21216037.133        1122.575
 96  7  1  3  0 45.0000000  0  6G 1G17G 5G25G23G21
  14423020.492 9    428685.93129  21742182.520        -744.169
  11909244.111 7   2342014.44625  22909382.784       -3912.466
   3083703.423 7    120509.43025  24367608.736        -404.489
   9764346.398 9  -1490560.08129  22283152.285        2166.558
   7440438.801 9    355552.98528  21815574.142        -721.293
  18764089.788 9   -808687.40829  21212836.939        1119.190
 96  7  1  3  1  0.0000000  0  6G 1G17G 5G25G23G21
  14434201.383 9    437398.33429  21744309.248        -746.654
  11967956.152 7   2387764.07025  22920555.390       -3915.906
   3089824.376 6    125278.97725  24368781.314        -411.670
   9731891.114 9  -1515849.90929  22276978.269        2160.789
   7451296.955 8    364013.87728  21817639.443        -726.508
  18747328.070 9   -821748.46929  21209650.984        1115.727
 96  7  1  3  1 15.0000000  0  6G 1G17G 5G25G23G21
  14445419.605 9    446139.81329  21746444.220        -749.139
  12026721.553 8   2433555.29625  22931735.550       -3919.608
   3096051.151 7    130130.97325  24369967.023        -418.629
   9699521.365 9  -1541073.07429  22270818.403        2155.101
   7462231.832 8    372534.56228  21819721.651        -731.566
  18730617.105 9   -834770.01329  21206469.527        1112.325
 96  7  1  3  1 30.0000000  0  6G 1G17G 5G25G23G21
  14456675.723 9    454910.81729  21748586.537        -751.749
  12085544.219 8   2479391.13125  22942930.040       -3923.467
   3102380.603 6    135063.00325  24371172.368        -425.333
   9667240.414 9  -1566227.05629  22264672.268        2149.003
   7473244.400 9    381115.75028  21821815.971        -736.782
  18713957.618 9   -847751.43229  21203298.262        1108.853
 96  7  1  3  1 45.0000000  0  6G 1G17G 5G25G23G21
  14467969.786 9    463711.39629  21750734.430        -754.180
  12144423.045 7   2525270.74725  22954133.644       -3927.120
   3108810.507 7    140073.34825  24372393.753        -431.938
   9635048.989 9  -1591311.28129  22258543.791        2143.185
   7484332.134 9    389755.56328  21823925.641        -741.684
  18697349.983 9   -860692.43429  21200139.049        1105.384
 96  7  1  3  2  0.0000000  0  6G 1G17G 5G25G23G21
  14479301.200 9    472541.07529  21752891.527        -756.606
  12203359.112 7   2571194.95125  22965353.047       -3931.020
   3115339.622 7    145160.98925  24373635.883        -438.477
   9602946.239 9  -1616326.40629  22252437.618        2137.169
   7495493.545 9    398452.75928  21826050.630        -746.557
  18680795.965 9   -873591.67329  21196989.040        1101.836
 96  7  1  3  2 15.0000000  0  6G 1G17G 5G25G23G21
  14490666.295 9    481397.00329  21755054.079        -758.730
  12262353.848 7   2617164.87725  22976578.776       -3934.932
   3121966.328 6    150324.63425  24374894.142        -445.015
   9570934.833 9  -1641270.35328  22246347.754        2131.057
   7506729.662 9    407208.16628  21828189.199        -751.630
  18664295.100 9   -886449.48929  21193848.834        1098.343
 96  7  1  3  2 30.0000000  0  6G 1G17G 5G25G23G21
  14502063.802 9    490278.17729  21757219.720        -761.057
  12321407.268 7   2663180.52025  22987812.808       -3938.953
   3128692.867 6    155566.07425  24376175.425        -451.893
   9539014.512 9  -1666143.32928  22240272.220        2124.924
   7518043.262 9    416023.95828  21830344.857        -756.927
  18647846.683 9   -899266.42929  21190718.491        1094.711
 96  7  1  3  2 45.0000000  0  6G 1G17G 5G25G23G21
  14513495.879 9    499186.28229  21759395.914        -763.236
  12380521.394 7   2709243.45125  22999060.961       -3943.013
   3135519.768 6    160885.72725  24377471.158        -458.316
   9507185.931 9  -1690944.81428  22234213.804        2118.815
   7529438.293 9    424903.18128  21832507.230        -762.503
  18631452.541 9   -912041.09129  21187596.332        1091.110
 96  7  1  3  3  0.0000000  0  6G 1G17G 5G25G23G21
  14524958.952 9    508118.57129  21761578.972        -765.166
  12439696.875 7   2755354.20925  23010323.415       -3946.987
   3142442.389 6    166279.96725  24378792.343        -464.654
   9475448.158 9  -1715675.53128  22228178.832        2112.842
   7540916.356 9    433847.12728  21834696.014        -767.757
  18615112.248 9   -924773.78029  21184488.953        1087.621
 96  7  1  3  3 15.0000000  0  6G 1G17G 5G25G23G21
  14536449.952 9    517072.59129  21763767.907        -766.999
  12498931.541 7   2801511.08425  23021593.872       -3951.056
   3149461.514 6    171749.41125  24380127.229        -471.287
   9443800.606 9  -1740335.96328  22222157.980        2106.767
   7552471.028 9    442850.77528  21836891.335        -772.911
  18598824.874 9   -937465.24329  21181388.950        1083.966
 96  7  1  3  3 30.0000000  0  6G 1G17G 5G25G23G21
  14547965.304 9    526045.59929  21765958.790        -768.393
  12558225.225 7   2847713.96125  23032878.330       -3954.737
   3156577.307 6    177294.19325  24381480.762        -477.502
   9412242.827 9  -1764926.42628  22216149.210        2100.962
   7564101.148 9    451913.20528  21839106.201        -777.805
  18582590.427 9   -950115.45929  21178296.530        1080.609
 96  7  1  3  3 45.0000000  0  6G 1G17G 5G25G23G21
  14559501.014 9    535034.46829  21768155.909        -769.129
  12617571.318 7   2893957.68825  23044168.874       -3957.462
   3163787.425 7    182912.44025  24382850.874        -483.276
   9380772.100 9  -1789449.07928  22210163.224        2095.768
   7575805.241 9    461033.28428  21841334.139        -782.165
  18566406.495 9   -962726.31129  21175220.660        1077.868
 96  7  1  3  4  0.0000000  0  6G 1G17G 5G25G23G21
  14571047.132 9    544031.46929  21770354.018        -770.361
  12676957.620 7   2940232.71825  23055471.349       -3960.816
   3171084.693 7    188598.61825  24384243.889        -489.664
   9349378.094 9  -1813911.93328  22204184.343        2089.955
   7587575.740 9    470205.07528  21843572.030        -787.343
  18550263.291 9   -975305.42429  21172148.117        1074.506
 96  7  1  3  4 15.0000000  0  6G 1G17G 5G25G23G21
  14582611.851 9    553042.93229  21772552.695        -771.562
  12736394.821 7   2986547.44125  23066782.099       -3964.069
   3178480.031 7    194361.17725  24385643.770        -496.333
   9318073.779 9  -1838304.91528  22198227.197        2083.962
   7599424.852 9    479438.15528  21845828.957        -792.510
  18534171.283 9   -987844.63529  21169085.707        1071.115
 96  7  1  3  4 30.0000000  0  6G 1G17G 5G25G23G21
  14594191.985 9    562066.41529  21774752.752        -772.494
  12795878.948 7   3032898.68725  23078101.962       -3967.036
   3185972.367 7    200199.33925  24387076.448        -502.651
   9286857.793 9  -1862629.02728  22192287.499        2078.253
   7611350.997 9    488731.26028  21848099.615        -797.552
  18518129.740 9  -1000344.55029  21166032.591        1067.762
 96  7  1  3  4 45.0000000  0  6G 1G17G 5G25G23G21
  14605786.342 9    571100.97629  21776962.043        -773.366
  12855408.369 7   3079285.23725  23089428.901       -3970.171
   3193559.618 7    206111.52125  24388517.671        -508.870
   9255726.460 9  -1886887.20628  22186365.009        2072.669
   7623351.767 9    498082.51128  21850379.567        -802.414
  18502139.327 9  -1012804.60129  21162988.648        1064.412
 96  7  1  3  5  0.0000000  0  6G 1G17G 5G25G23G21
  14617392.341 9    580144.62229  21779169.205        -774.061
  12914984.660 7   3125708.34725  23100768.041       -3973.252
   3201239.494 7    212095.86925  24389981.677        -515.118
   9224678.360 9  -1911080.51628  22180459.637        2067.104
   7635423.538 9    507489.06828  21852678.166        -807.027
  18486198.723 9  -1025225.84429  21159956.337        1061.075
 96  7  1  3  5 15.0000000  0  6G 1G17G 5G25G23G21
  14629009.929 9    589197.29229  21781378.286        -775.017
  12974608.376 7   3172168.36525  23112111.648       -3976.563
   3209014.537 7    218154.37025  24391460.283        -521.673
   9193714.398 9  -1935208.26528  22174564.788        2061.431
   7647562.732 9    516948.18728  21854990.585        -811.593
  18470307.631 9  -1037608.52429  21156933.350        1057.701
 96  7  1  3  5 30.0000000  0  6G 1G17G 5G25G23G21
  14640640.852 9    598260.35429  21783590.664        -775.827
  13034281.683 7   3218667.01925  23123473.422       -3979.935
   3216886.298 7    224288.18825  24392957.897        -527.929
   9162832.256 9  -1959272.27028  22168686.817        2056.077
   7659770.491 9    526460.73528  21857313.467        -816.244
  18454466.763 9  -1049952.05729  21153918.577        1054.342
 96  7  1  3  5 45.0000000  0  6G 1G17G 5G25G23G21
  14652285.260 9    607333.92529  21785808.169        -776.796
  13094006.306 7   3265205.63825  23134831.689       -3983.263
   3224852.945 7    230495.97525  24394474.577        -534.287
   9132032.625 9  -1983271.97829  22162824.646        2050.533
   7672051.559 9    536030.38728  21859650.169        -821.170
  18438678.558 9  -1062254.54229  21150914.597        1050.774
 96  7  1  3  6  0.0000000  0  6G 1G17G 5G25G23G21
  14663944.239 9    616418.85529  21788028.012        -777.831
  13153780.580 7   3311783.01125  23146209.443       -3986.626
   3232914.754 7    236777.85525  24396006.816        -540.731
   9101316.344 9  -2007206.72529  22156981.151        2044.965
   7684404.857 9    545656.32328  21862000.512        -825.958
  18422944.201 9  -1074515.08129  21147917.871        1047.073
 96  7  1  3  6 15.0000000  0  6G 1G17G 5G25G23G21
  14675626.548 9    625521.95529  21790250.643        -779.619
  13213612.046 7   3358404.90425  23157599.278       -3990.726
   3241080.672 6    243140.89025  24397558.752        -547.862
   9070689.403 9  -2031071.87529  22151150.907        2038.749
   7696835.639 9    555342.65428  21864366.774        -831.257
  18407273.080 9  -1086726.34729  21144939.073        1042.643
 96  7  1  3  6 30.0000000  0  6G 1G17G 5G25G23G21
  14687329.239 9    634640.94229  21792473.784        -780.832
  13273497.868 7   3405069.18525  23168990.492       -3994.032
   3249346.362 6    249581.69325  24399133.351        -554.193
   9040147.117 9  -2054871.04729  22145341.289        2033.482
   7709337.779 9    565084.61328  21866745.507        -835.738
  18391660.753 9  -1098891.78229  21141967.051        1038.909
 96  7  1  3  6 45.0000000  0  6G 1G17G 5G25G23G21
  14699051.509 9    643775.18629  21794710.116        -782.207
  13333434.947 7   3451773.44325  23180390.310       -3997.451
   3257708.968 6    256098.01125  24400725.159        -560.815
   9009683.670 9  -2078608.77929  22139543.633        2028.301
   7721907.397 8    574879.08928  21869133.054        -840.160
  18376105.512 9  -1111012.74629  21139006.870        1035.125
 96  7  1  3  7  0.0000000  0  6G 1G17G 5G25G23G21
  14710795.039 9    652926.00129  21796944.080        -783.692
  13393421.110 7   3498515.88725  23191814.291       -4000.708
   3266170.078 7    262691.05225  24402333.156        -567.478
   8979298.630 8  -2102285.43929  22133757.998        2022.934
   7734541.947 8    584724.20828  21871540.508        -844.544
  18360607.355 9  -1123089.23429  21136056.612        1031.289
 96  7  1  3  7 15.0000000  0  6G 1G17G 5G25G23G21
  14722561.821 9    662094.92229  21799184.249        -785.243
  13453453.918 7   3545294.68225  23203237.793       -4003.560
   3274731.798 7    269362.48625  24403968.884        -574.099
   8948996.058 9  -2125897.81329  22127994.968        2017.405
   7747243.749 8    594621.71128  21873957.824        -849.047
  18345167.016 9  -1135120.65229  21133120.265        1027.455
 96  7  1  3  7 30.0000000  0  6G 1G17G 5G25G23G21
  14734353.468 9    671283.21229  21801429.394        -786.950
  13513529.353 7   3592106.71125  23214665.611       -4006.360
   3283391.820 6    276110.52625  24405613.905        -580.641
   8918777.508 9  -2149444.73729  22122245.998        2011.738
   7760014.638 9    604573.04228  21876386.623        -853.737
  18329783.983 9  -1147107.44429  21130192.432        1023.604
 96  7  1  3  7 45.0000000  0  6G 1G17G 5G25G23G21
  14746167.441 9    680488.90829  21803674.900        -788.251
  13573641.627 7   3638947.45225  23226109.829       -4008.528
   3292149.133 7    282934.41025  24407280.361        -587.134
   8888644.211 9  -2172925.20929  22116509.109        2005.971
   7772855.648 9    614579.02128  21878829.482        -858.381
  18314458.390 9  -1159049.45529  21127275.781        1019.807
 96  7  1  3  8  0.0000000  0  6G 1G17G 5G25G23G21
  14758001.624 9    689710.36029  21805925.112        -789.611
  13633783.477 7   3685811.21925  23237549.819       -4010.382
   3301005.621 6    289835.58225  24408967.683        -593.752
   8858599.383 9  -2196336.76429  22110794.106        2000.050
   7785765.306 9    624638.49728  21881288.649        -862.849
  18299188.696 9  -1170947.90729  21124372.531        1016.168
 96  7  1  3  8 15.0000000  0  6G 1G17G 5G25G23G21
  14769854.932 9    698946.71729  21808183.239        -790.840
  13693953.221 7   3732696.72425  23249002.341       -4012.315
   3309961.881 7    296814.45225  24410665.948        -600.440
   8828640.449 9  -2219681.37729  22105092.863        1994.383
   7798740.943 9    634749.37628  21883758.669        -867.324
  18283972.965 9  -1182804.30929  21121472.939        1012.579
 96  7  1  3  8 30.0000000  0  6G 1G17G 5G25G23G21
  14781725.437 9    708196.45029  21810442.145        -791.822
  13754153.189 7   3779605.78025  23260459.269       -4014.286
   3319017.945 7    303871.14825  24412394.371        -606.898
   8798768.450 9  -2242958.26229  22099405.710        1988.678
   7811787.112 9    644915.24828  21886239.002        -872.100
  18268811.048 9  -1194618.79829  21118591.034        1009.106
 96  7  1  3  8 45.0000000  0  6G 1G17G 5G25G23G21
  14793609.892 9    717457.07729  21812702.640        -792.759
  13814381.443 7   3826536.89125  23271917.966       -4016.082
   3328170.131 7    311002.73125  24414133.617        -613.348
   8768981.425 9  -2266168.93729  22093743.350        1982.901
   7824905.696 8    655137.50028  21888734.265        -877.000
  18253701.548 9  -1206392.43029  21115711.887        1005.528
 96  7  1  3  9  0.0000000  0  6G 1G17G 5G25G23G21
  14805508.225 9    726728.51029  21814963.855        -793.745
  13874635.028 7   3873487.73225  23283385.298       -4017.716
   3337419.761 7    318210.21425  24415896.397        -619.896
   8739281.409 9  -2289311.79929  22088091.123        1977.029
   7838097.868 8    665417.11028  21891249.643        -881.982
  18238644.261 9  -1218125.36829  21112851.207        1002.103
 96  7  1  3  9 15.0000000  0  6G 1G17G 5G25G23G21
  14817422.317 9    736012.22029  21817232.684        -794.839
  13934914.961 7   3920459.09725  23294857.965       -4019.584
   3346767.605 7    325494.25925  24417672.307        -626.394
   8709672.562 9  -2312383.60529  22082454.005        1970.829
   7851366.351 8    675756.17928  21893772.307        -887.212
  18223638.623 9  -1229818.08029  21109991.607         998.663
 96  7  1  3  9 30.0000000  0  6G 1G17G 5G25G23G21
  14829353.367 9    745309.14329  21819499.835        -795.994
  13995224.096 7   3967453.23925  23306328.175       -4021.681
   3356212.924 7    332854.22125  24419465.486        -632.966
   8680156.492 9  -2335383.14229  22076837.603        1964.696
   7864715.071 9    686157.76728  21896311.699        -892.571
  18208684.149 9  -1241470.91229  21107147.626         995.257
 96  7  1  3  9 45.0000000  0  6G 1G17G 5G25G23G21
  14841300.080 9    754618.27429  21821776.249        -796.857
  14055566.060 7   4014472.93025  23317810.855       -4023.862
   3365757.491 6    340291.51325  24421283.008        -639.631
   8650728.888 9  -2358313.74529  22071238.260        1958.958
   7878142.554 9    696620.73828  21898871.537        -897.742
  18193780.908 9  -1253083.81029  21104312.429         991.830
 96  7  1  3 10  0.0000000  0  6G 1G17G 5G25G23G21
  14853259.160 9    763937.04129  21824050.924        -797.709
  14115940.925 7   4061518.26625  23329301.151       -4026.191
   3375400.761 7    347805.76425  24423122.774        -646.077
   8621387.811 9  -2381176.89829  22065655.614        1953.297
   7891647.188 9    707143.83728  21901436.141        -902.838
  18178929.073 9  -1264656.66729  21101486.825         988.486
 96  7  1  3 10 15.0000000  0  6G 1G17G 5G25G23G21
  14865232.683 9    773267.05129  21826329.916        -798.748
  14176352.334 7   4108592.06525  23340798.791       -4028.715
   3385139.153 7    355394.09925  24424974.082        -652.275
   8592129.407 9  -2403975.67329  22060081.873        1947.836
   7905229.116 9    717727.15528  21904022.661        -908.103
  18164127.460 9  -1276190.38829  21098666.047         985.007
 96  7  1  3 10 30.0000000  0  6G 1G17G 5G25G23G21
  14877222.589 9    782609.83729  21828611.007        -799.885
  14236804.026 7   4155697.28625  23352299.579       -4031.402
   3394969.964 7    363054.47325  24426841.010        -658.389
   8562952.834 9  -2426710.64529  22054533.134        1942.463
   7918890.469 9    728372.36128  21906623.240        -913.439
  18149379.107 9  -1287682.61729  21095861.159         981.521
 96  7  1  3 10 45.0000000  0  6G 1G17G 5G25G23G21
  14889230.409 9    791966.58029  21830896.865        -801.206
  14297294.977 7   4202833.11625  23363815.957       -4034.015
   3404891.697 7    370785.66825  24428736.088        -664.557
   8533856.617 9  -2449383.01929  22048995.338        1937.111
   7932631.287 9    739079.50028  21909237.850        -918.622
  18134682.199 9  -1299134.74729  21093066.224         978.080
 96  7  1  3 11  0.0000000  0  6G 1G17G 5G25G23G21
  14901259.603 9    801339.97729  21833188.238        -802.751
  14357824.752 7   4249999.16025  23375331.615       -4036.632
   3414907.915 7    378590.51225  24430639.021        -671.041
   8504841.096 9  -2471992.50929  22043472.621        1931.610
   7946449.021 9    749846.55527  21911868.379        -923.745
  18120037.142 9  -1310546.47429  21090279.953         974.617
 96  7  1  3 11 15.0000000  0  6G 1G17G 5G25G23G21
  14913313.639 9    810732.73329  21835483.449        -804.331
  14418395.922 7   4297197.50625  23386860.763       -4039.513
   3425020.391 7    386470.34825  24432569.894        -677.194
   8475908.704 9  -2494537.21429  22037972.989        1926.108
   7960346.000 9    760675.35327  21914511.290        -929.114
  18105444.442 9  -1321917.41429  21087500.547         971.151
 96  7  1  3 11 30.0000000  0  6G 1G17G 5G25G23G21
  14925390.054 9    820142.93829  21837777.791        -805.751
  14479011.232 7   4344430.21825  23398387.184       -4042.452
   3435225.229 7    394422.17525  24434512.399        -683.372
   8447059.030 9  -2517017.48029  22032483.699        1920.609
   7974325.416 9    771568.37927  21917168.920        -934.742
  18090905.378 9  -1333246.55529  21084736.940         967.451
 96  7  1  3 11 45.0000000  0  6G 1G17G 5G25G23G21
  14937485.119 9    829567.67529  21840076.030        -806.874
  14539668.613 7   4391695.68225  23409932.341       -4045.153
   3445521.532 7    402445.29125  24436464.618        -689.449
   8418288.446 9  -2539436.11529  22027003.913        1915.519
   7988385.490 9    782524.29327  21919848.015        -939.904
  18076421.396 9  -1344532.77929  21081978.910         963.802
 96  7  1  3 12  0.0000000  0  6G 1G17G 5G25G23G21
  14949596.089 9    839004.78629  21842384.462        -807.960
  14600363.949 7   4438990.77625  23421483.464       -4047.552
   3455908.398 7    410538.95725  24438445.496        -695.474
   8389596.724 9  -2561793.31829  22021548.229        1910.014
   8002524.984 9    793542.06428  21922535.445        -945.394
  18061993.545 9  -1355775.25029  21079235.809         959.928
 96  7  1  3 12 15.0000000  0  6G 1G17G 5G25G23G21
  14961724.684 9    848455.64329  21844690.705        -809.186
  14661094.920 7   4486313.59925  23433044.241       -4049.939
   3466387.179 6    418704.21825  24440429.043        -701.659
   8360987.750 9  -2584086.00029  22016102.469        1904.492
   8016747.008 9    804624.16028  21925243.230        -950.865
  18047623.522 9  -1366972.66829  21076495.406         956.076
 96  7  1  3 12 30.0000000  0  6G 1G17G 5G25G23G21
  14973871.297 9    857920.53529  21847000.606        -810.319
  14721861.727 7   4533664.33425  23444607.686       -4052.286
   3476961.339 7    426943.82225  24442447.276        -708.244
   8332464.576 9  -2606311.84029  22010675.776        1898.533
   8031051.050 9    815770.17328  21927966.035        -956.328
  18033312.034 9  -1378124.49229  21073774.999         952.140
 96  7  1  3 12 45.0000000  0  6G 1G17G 5G25G23G21
  14986034.139 9    867398.08329  21849319.201        -811.307
  14782664.521 7   4581043.14125  23456175.987       -4054.701
   3487635.686 7    435261.48725  24444475.852        -715.046
   8304031.470 9  -2628467.49529  22005260.775        1892.515
   8045437.401 9    826980.29728  21930699.693        -961.821
  18019058.976 9  -1389230.74929  21071062.657         948.274
 96  7  1  3 13  0.0000000  0  6G 1G17G 5G25G23G21
  14998210.355 9    876886.04929  21851633.659        -812.220
  14843502.302 7   4628449.21525  23467749.055       -4057.015
   3498414.477 7    443660.50525  24446527.032        -722.150
   8275692.352 9  -2650549.91129  21999867.419        1886.020
   8059905.290 9    838253.96628  21933456.164        -967.261
  18004865.177 9  -1400290.86029  21068362.786         944.189
 96  7  1  3 13 15.0000000  0  6G 1G17G 5G25G23G21
  15010397.949 9    886382.88629  21853955.102        -812.777
  14904374.244 7   4675881.85925  23479336.154       -4059.198
   3509297.661 6    452140.95825  24448602.854        -728.874
   8247450.181 9  -2672556.78929  21994496.127        1879.559
   8074453.861 9    849590.51228  21936220.910        -972.505
  17990732.333 9  -1411303.46729  21065673.768         940.169
 96  7  1  3 13 30.0000000  0  6G 1G17G 5G25G23G21
  15022591.401 9    895884.28329  21856275.076        -813.024
  14965278.360 7   4723339.59225  23490929.158       -4061.360
   3520282.203 7    460700.36125  24450696.215        -735.695
   8219305.403 9  -2694487.78529  21989143.303        1873.085
   8089079.762 9    860987.30828  21939008.560        -977.581
  17976660.468 9  -1422268.54429  21062991.914         936.004
 96  7  1  3 13 45.0010000  0  6G 1G17G 5G25G23G21
  15034787.904 9    905388.05329  21858594.270        -813.098
  15026217.145 7   4770824.34125  23502524.531       -4063.246
   3531371.609 7    469341.50925  24452806.694        -742.758
   8191254.068 9  -2716345.94729  21983804.899        1866.833
   8103779.079 9    872441.30928  21941803.016        -982.175
  17962649.977 9  -1433185.81629  21060329.937         931.939
 96  7  1  3 14  0.0010000  0  6G 1G17G 5G25G23G21
  15046986.200 9    914893.21929  21860916.972        -813.319
  15087180.734 7   4818328.44125  23514125.540       -4065.200
   3542567.024 7    478065.18725  24454930.904        -749.888
   8163299.770 9  -2738128.51929  21978482.953        1860.357
   8118546.262 9    883948.21328  21944610.572        -986.841
  17948701.721 9  -1444054.58729  21057675.904         927.866
 96  7  1  3 14 15.0010000  0  6G 1G17G 5G25G23G21
  15059186.207 9    924399.71229  21863236.826        -813.426
  15148173.460 7   4865855.23225  23525726.129       -4067.260
   3553869.326 7    486872.19325  24457079.936        -757.030
   8135444.270 9  -2759834.11829  21973180.044        1853.735
   8133384.559 9    895510.51728  21947439.474        -991.503
  17934814.237 9  -1454875.99729  21055030.895         923.868
 96  7  1  3 14 30.0010000  0  6G 1G17G 5G25G23G21
  15071389.575 9    933908.83029  21865561.267        -813.683
  15209200.124 7   4913408.47025  23537343.416       -4069.672
   3565278.376 7    495762.33525  24459256.009        -764.141
   8107687.676 9  -2781462.61629  21967903.367        1847.217
   8148291.173 9    907126.05828  21950274.851        -996.008
  17920986.026 9  -1465651.22329  21052401.596         919.906
 96  7  1  3 14 45.0010000  0  6G 1G17G 5G25G23G21
  15083596.509 9    943420.73729  21867884.509        -814.004
  15270263.488 7   4960990.31025  23548962.502       -4072.158
   3576791.853 7    504733.90425  24461449.351        -771.048
   8080027.127 9  -2803016.28429  21962635.954        1840.868
   8163264.735 9    918793.76228  21953123.899       -1000.603
  17907217.405 9  -1476380.02629  21049782.669         915.886
 96  7  1  3 15  0.0010000  0  6G 1G17G 5G25G23G21
  15095807.414 9    952935.72229  21870207.390        -814.164
  15331362.481 7   5008599.92225  23560591.542       -4074.342
   3588407.427 6    513784.99225  24463657.622        -777.657
   8052458.837 9  -2824498.06229  21957392.434        1834.863
   8178307.505 9    930515.40328  21955989.944       -1005.065
  17893508.205 9  -1487062.51129  21047171.716         912.024
 96  7  1  3 15 15.0010000  0  6G 1G17G 5G25G23G21
  15108021.044 9    962452.83629  21872532.851        -814.498
  15392492.332 7   5056233.55625  23572220.491       -4076.367
   3600119.606 6    522911.34525  24465888.768        -784.065
   8024979.971 9  -2845910.15929  21952163.753        1828.954
   8193415.974 9    942288.22528  21958860.787       -1009.534
  17879855.897 9  -1497700.67829  21044574.674         908.210
 96  7  1  3 15 30.0010000  0  6G 1G17G 5G25G23G21
  15120241.148 9    971975.00829  21874858.551        -814.913
  15453654.051 7   5103892.02825  23583862.002       -4078.455
   3611927.040 7    532111.95325  24468134.753        -790.350
   7997590.366 9  -2867252.70129  21946952.341        1822.987
   8208593.935 9    954115.20128  21961749.377       -1014.219
  17866262.990 9  -1508292.55029  21041987.135         904.189
 96  7  1  3 15 45.0010000  0  6G 1G17G 5G25G23G21
  15132468.552 9    981502.85129  21877179.933        -815.383
  15514846.424 7   5151574.43825  23595506.960       -4080.404
   3623831.089 6    541387.84125  24470387.843        -796.805
   7970287.801 9  -2888527.42929  21941754.659        1817.374
   8223843.319 9    965997.82428  21964650.109       -1018.981
  17852730.041 9  -1518837.70129  21039413.117         900.242
 96  7  1  3 16  0.0010000  0  6G 1G17G 5G25G23G21
  15144705.588 9    991038.21329  21879510.670        -816.153
  15576068.375 7   5199279.83925  23607157.195       -4082.371
   3635832.666 7    550739.74225  24472680.176        -803.384
   7943072.813 9  -2909733.90329  21936574.276        1811.329
   8239166.931 9    977938.30428  21967567.120       -1024.119
  17839257.991 9  -1529335.39629  21036846.744         896.125
 96  7  1  3 16 15.0010000  0  6G 1G17G 5G25G23G21
  15156953.035 9   1000581.68129  21881842.576        -816.906
  15637317.406 7   5247006.31525  23618805.691       -4084.155
   3647931.428 7    560167.33825  24474981.473        -809.894
   7915948.406 9  -2930869.80529  21931415.087        1805.192
   8254567.344 9    989938.60728  21970498.311       -1029.326
  17825847.079 9  -1539785.46029  21034296.709         891.911
 96  7  1  3 16 30.0010000  0  6G 1G17G 5G25G23G21
  15169212.679 9   1010134.66229  21884175.620        -817.738
  15698592.842 7   5294753.43825  23630471.305       -4085.816
   3660128.729 7    569671.74725  24477299.738        -816.360
   7888914.905 9  -2951934.86629  21926271.788        1799.361
   8270045.495 9   1001999.51428  21973442.272       -1034.367
  17812499.727 9  -1550185.99929  21031753.450         887.788
 96  7  1  3 16 45.0010000  0  6G 1G17G 5G25G23G21
  15181485.921 9   1019698.23629  21886510.284        -818.588
  15759891.683 7   5342518.76825  23642135.630       -4087.172
   3672425.619 7    579253.76125  24479640.158        -823.105
   7861968.711 9  -2972931.88829  21921141.739        1793.521
   8285601.867 9   1014121.36828  21976403.652       -1039.788
  17799216.119 9  -1560536.84529  21029227.279         883.421
 96  7  1  3 17  0.0010000  0  6G 1G17G 5G25G23G21
  15193770.253 9   1029270.45129  21888849.625        -819.361
  15821206.999 7   5390296.92625  23653801.304       -4088.153
   3684823.259 7    588914.27725  24482001.683        -829.950
   7835112.512 9  -2993858.78529  21916029.349        1787.270
   8301241.786 9   1026308.29828  21979378.613       -1045.533
  17785997.921 9  -1570836.74529  21026711.990         879.010
 96  7  1  3 17 15.0010000  0  6G 1G17G 5G25G23G21
  15206066.063 9   1038851.59929  21891190.764        -820.131
  15882536.455 7   5438086.08625  23665476.242       -4089.030
   3697322.875 7    598654.21925  24484381.495        -836.677
   7808350.849 9  -3014712.02429  21910937.913        1780.941
   8316966.466 9   1038561.28928  21982371.411       -1051.102
  17772845.982 9  -1581085.00629  21024208.423         874.553
 96  7  1  3 17 30.0010000  0  6G 1G17G 5G25G23G21
  15218375.307 9   1048443.22529  21893532.413        -821.116
  15943881.591 7   5485887.45025  23677146.443       -4090.287
   3709924.209 6    608473.47225  24486778.426        -843.494
   7781682.777 9  -3035492.32429  21905865.335        1774.830
   8332775.521 9   1050880.03028  21985382.107       -1056.827
  17759762.914 9  -1591279.60529  21021716.578         869.800
 96  7  1  3 17 45.0010000  0  6G 1G17G 5G25G23G21
  15230698.554 9   1058045.75729  21895879.008        -821.914
  16005245.283 7   5533703.30925  23688828.006       -4091.493
   3722629.250 7    618373.53225  24489197.361        -850.379
   7755106.571 9  -3056201.05629  21900807.387        1768.738
   8348670.395 9   1063265.62628  21988403.595       -1062.419
  17746751.431 9  -1601418.41729  21019244.700         865.186
 96  7  1  3 18  0.0010000  0  6G 1G17G 5G25G23G21
  15243032.891 9   1067656.93829  21898219.398        -822.632
  16066626.705 7   5581532.98325  23700502.404       -4092.707
   3735437.692 6    628354.15425  24491630.897        -857.289
   7728621.251 9  -3076838.95429  21895763.169        1762.671
   8364648.758 9   1075716.28928  21991446.728       -1068.062
  17733808.760 9  -1611503.62029  21016782.115         860.518
 96  7  1  3 18 15.0010000  0  6G 1G17G 5G25G23G21
  15255376.648 9   1077275.45029  21900576.966        -823.295
  16128025.151 7   5629375.95425  23712189.183       -4093.809
   3748347.032 6    638413.33825  24494088.206        -863.938
   7702225.335 9  -3097407.19629  21890744.853        1756.710
   8380711.676 9   1088232.85628  21994504.581       -1073.740
  17720933.315 9  -1621536.43029  21014330.412         856.184
 96  7  1  3 18 30.0010000  0  6G 1G17G 5G25G23G21
  15267732.173 9   1086903.15129  21902922.842        -824.168
  16189441.530 7   5677232.87025  23723879.140       -4095.164
   3761354.433 6    648548.99925  24496562.962        -870.348
   7675918.717 9  -3117905.83929  21885735.261        1750.801
   8396860.020 9   1100815.96428  21997574.276       -1079.426
  17708122.863 9  -1631518.58829  21011895.138         851.875
 96  7  1  3 18 45.0010000  0  6G 1G17G 5G25G23G21
  15280100.594 9   1096540.87829  21905276.273        -824.957
  16250879.332 7   5725106.47125  23735565.590       -4096.572
   3774457.811 6    658759.42225  24499053.758        -876.766
   7649700.906 9  -3138335.30729  21880747.853        1744.917
   8413092.954 9   1113464.99428  22000664.417       -1084.913
  17695375.857 9  -1641451.31229  21009468.498         847.742
 96  7  1  3 19  0.0010000  0  6G 1G17G 5G25G23G21
  15292479.514 9   1106186.79129  21907634.260        -825.513
  16312338.096 7   5772996.42325  23747258.845       -4097.932
   3787654.750 7    669042.76425  24501567.907        -882.770
   7623572.982 9  -3158694.72529  21875778.464        1738.809
   8429407.536 9   1126177.65328  22003771.496       -1090.277
  17682690.378 9  -1651336.10829  21007050.791         843.698
 96  7  1  3 19 15.0010000  0  6G 1G17G 5G25G23G21
  15304868.086 9   1115840.23929  21909991.439        -826.340
  16373819.719 7   5820904.17725  23758963.612       -4099.651
   3800942.504 7    679396.88525  24504105.441        -888.893
   7597535.885 9  -3178983.35529  21870822.415        1732.830
   8445800.102 8   1138951.08928  22006888.018       -1095.382
  17670065.945 9  -1661173.31229  21004653.291         839.518
 96  7  1  3 19 30.0010000  0  6G 1G17G 5G25G23G21
  15317268.396 9   1125502.82629  21912349.876        -827.114
  16435327.677 7   5868832.46825  23770665.141       -4101.442
   3814322.534 7    689822.86725  24506641.535        -895.226
   7571587.438 9  -3199202.92529  21865880.036        1726.938
   8462267.806 8   1151783.05928  22010022.888       -1100.467
  17657505.419 9  -1670960.74829  21002262.446         835.167
 96  7  1  3 19 45.0010000  0  6G 1G17G 5G25G23G21
  15329678.599 9   1135173.11429  21914711.521        -827.633
  16496861.884 7   5916781.16825  23782378.722       -4103.011
   3827798.643 7    700323.78125  24509211.866        -901.687
   7545728.802 9  -3219352.50429  21860965.449        1720.792
   8478812.169 8   1164674.75627  22013168.161       -1105.508
  17645008.422 9  -1680698.66429  20999884.313         831.090
 96  7  1  3 20  0.0010000  0  6G 1G17G 5G25G23G21
  15342096.182 9   1144849.14729  21917075.025        -828.052
  16558419.083 7   5964747.85325  23794096.350       -4104.495
   3841373.994 7    710901.99125  24511786.933        -908.391
   7519966.397 9  -3239427.09429  21856060.214        1714.224
   8495432.982 8   1177626.03027  22016330.132       -1110.549
  17632572.326 9  -1690389.13129  20997517.631         827.061
 96  7  1  3 20 15.0010000  0  6G 1G17G 5G25G23G21
  15354521.567 9   1154531.27329  21919439.818        -828.705
  16619998.595 7   6012731.82724  23805808.492       -4106.052
   3855050.737 7    721559.13025  24514395.937        -915.136
   7494301.183 9  -3259425.95029  21851178.394        1707.791
   8512129.854 8   1190636.55827  22019509.461       -1115.681
  17620198.385 9  -1700031.15429  20995163.061         822.832
 96  7  1  3 20 30.0010000  0  6G 1G17G 5G25G23G21
  15366957.694 9   1164221.76529  21921808.538        -829.428
  16681600.383 7   6060733.22324  23817534.184       -4107.482
   3868828.037 7    732294.68325  24517015.284        -921.815
   7468735.013 9  -3279347.63729  21846313.602        1701.077
   8528903.721 8   1203707.09327  22022702.460       -1120.744
  17607888.012 9  -1709623.65229  20992818.924         818.531
 96  7  1  3 20 45.0010000  0  6G 1G17G 5G25G23G21
  15379404.150 9   1173920.30729  21924176.568        -829.943
  16743224.588 7   6108752.06324  23829260.746       -4108.929
   3882708.947 7    743110.98825  24519656.935        -928.871
   7443269.682 9  -3299190.73829  21841465.538        1694.425
   8545751.599 9   1216835.32527  22025911.139       -1125.618
  17595645.185 9  -1719163.51329  20990487.738         813.918
 96  7  1  3 21  0.0010000  0  6G 1G17G 5G25G23G21
  15391855.418 9   1183622.59829  21926543.730        -830.286
  16804866.192 7   6156784.51325  23840990.516       -4109.919
   3896696.242 6    754010.17625  24522323.349        -936.067
   7417901.867 9  -3318957.86629  21836640.348        1687.953
   8562672.835 8   1230020.70527  22029129.831       -1130.619
  17583471.555 9  -1728649.45029  20988171.781         809.193
 96  7  1  3 21 15.0010000  0  6G 1G17G 5G25G23G21
  15404311.163 9   1193328.38229  21928918.566        -830.548
  16866520.682 7   6204826.97625  23852718.187       -4110.711
   3910791.261 6    764993.29925  24524999.806        -943.342
   7392629.410 9  -3338650.69529  21831826.251        1681.749
   8579670.296 8   1243265.46427  22032365.221       -1135.723
  17571368.468 9  -1738080.43729  20985871.923         804.470
 96  7  1  3 21 30.0010000  0  6G 1G17G 5G25G23G21
  15416771.605 9   1203037.81729  21931287.645        -830.795
  16928187.653 7   6252879.16025  23864458.179       -4111.517
   3924996.521 6    776062.30325  24527705.103        -950.688
   7367448.417 9  -3358272.24129  21827037.906        1675.742
   8596745.576 9   1256570.87427  22035610.804       -1140.952
  17559338.373 9  -1747454.53729  20983580.430         799.658
 96  7  1  3 21 45.0010000  0  6G 1G17G 5G25G23G21
  15429234.682 9   1212749.30029  21933659.094        -830.917
  16989866.615 7   6300940.69325  23876197.872       -4112.329
   3939313.738 6    787218.57525  24530428.448        -958.140
   7342358.479 9  -3377822.82729  21822259.364        1669.643
   8613900.245 9   1269938.12527  22038875.724       -1146.241
  17547379.525 9  -1756773.12329  20981310.341         794.977
 96  7  1  3 22  0.0010000  0  6G 1G17G 5G25G23G21
  15441698.826 9   1222461.62129  21936028.384        -830.950
  17051558.731 7   6349012.44225  23887930.520       -4113.203
   3953740.849 6    798460.44225  24533175.836        -965.425
   7317358.899 9  -3397303.01229  21817504.356        1663.715
   8631132.629 8   1283365.94127  22042156.892       -1151.388
  17535490.032 9  -1766037.66229  20979042.471         790.307
 96  7  1  3 22 15.0010000  0  5G 1G17G25G23G21
  15454163.360 9   1232174.25129  21938401.151        -831.068
  17113263.221 7   6397093.84524  23899673.211       -4114.089
   7292447.083 9  -3416714.80829  21812763.858        1657.922
   8648442.225 8   1296853.90527  22045451.132       -1156.620
  17523671.183 9  -1775247.15329  20976792.319         785.518
 96  7  1  3 22 30.0010000  0  5G 1G17G25G23G21
  15466630.249 9   1241888.72129  21940770.740        -831.191
  17174980.683 7   6445185.33824  23911412.843       -4114.848
   7267620.006 9  -3436060.56829  21808039.608        1652.275
   8665830.378 9   1310403.10427  22048760.301       -1161.817
  17511923.830 9  -1784400.92129  20974555.477         780.805
 96  7  1  3 22 45.0010000  0  5G 1G17G25G23G21
  15479098.531 9   1251604.26529  21943145.307        -831.305
  17236709.374 7   6493285.62324  23923172.203       -4115.629
   7242880.045 9  -3455338.46329  21803331.817        1646.435
   8683296.636 9   1324013.16927  22052081.102       -1167.009
  17500247.997 9  -1793498.97629  20972338.572         775.979
 96  7  1  3 23  0.0010000  0  5G 1G17G25G23G21
  15491569.197 9   1261321.67829  21945514.896        -831.517
  17298450.322 7   6541395.45624  23934908.807       -4116.532
   7218226.294 9  -3474549.16529  21798641.355        1640.685
   8700841.894 9   1337684.77727  22055422.679       -1172.376
  17488643.316 9  -1802541.57929  20970126.673         771.364
 96  7  1  3 23 15.0010000  0  5G 1G17G25G23G21
  15504044.765 9   1271042.90829  21947890.542        -831.952
  17360206.826 7   6589517.39424  23946667.477       -4117.729
   7193661.027 9  -3493690.92929  21793963.813        1634.693
   8718467.885 9   1351419.32027  22058778.316       -1177.732
  17477107.330 9  -1811530.66029  20967933.512         766.817
 96  7  1  3 23 30.0010000  0  5G 1G17G25G23G21
  15516526.504 9   1280768.93729  21950270.474        -832.304
  17421983.687 7   6637655.19324  23958422.129       -4119.186
   7169186.276 9  -3512762.15629  21789311.933        1628.596
   8736173.375 9   1365215.79427  22062143.036       -1182.989
  17465639.761 9  -1820466.42529  20965749.194         762.174
 96  7  1  3 23 45.0010000  0  5G 1G17G25G23G21
  15529015.137 9   1290500.33629  21952642.402        -832.875
  17483783.775 7   6685811.11724  23970182.178       -4120.837
   7144804.615 9  -3531760.84129  21784664.011        1622.227
   8753959.826 9   1379075.36527  22065533.089       -1188.553
  17454241.364 9  -1829348.29629  20963582.834         757.643
 96  7  1  3 24  0.0010000  0  5G 1G17G25G23G21
  15541512.600 9   1300238.63529  21955026.112        -833.516
  17545608.048 7   6733985.91824  23981945.974       -4122.316
   7120520.692 9  -3550683.37729  21780048.976        1615.588
   8771829.534 9   1392999.82327  22068927.190       -1194.109
  17442910.705 9  -1838177.37629  20961422.139         753.095
 96  7  1  3 24 15.0010000  0  5G 1G17G25G23G21
  15554019.829 9   1309984.53129  21957401.038        -834.131
  17607454.042 7   6782177.59324  23993712.469       -4123.719
   7096336.860 9  -3569527.91529  21775445.962        1608.932
   8789784.298 9   1406990.54927  22072350.490       -1199.865
  17431649.474 9  -1846952.35729  20959280.272         748.471
 96  7  1  3 24 30.0010000  0  5G 1G17G25G23G21
  15566538.865 9   1319739.62129  21959784.328        -835.008
  17669321.990 7   6830386.35924  24005490.984       -4125.351
   7072253.322 9  -3588294.29729  21770860.457        1602.305
   8807826.115 8   1421049.11027  22075777.657       -1205.674
  17420457.939 9  -1855673.03929  20957155.043         743.818
 96  7  1  3 24 45.0010000  0  5G 1G17G25G23G21
  15579070.912 9   1329504.84929  21962169.476        -835.841
  17731214.558 7   6878614.33024  24017263.654       -4126.971
   7048269.371 9  -3606983.09029  21766300.584        1595.562
   8825954.904 9   1435175.41427  22079232.256       -1211.437
  17409336.249 9  -1864339.28929  20955036.650         739.127
 96  7  1  3 25  0.0010000  0  5G 1G17G25G23G21
  15591614.665 9   1339279.21729  21964553.486        -836.604
  17793132.671 7   6926862.19224  24029042.530       -4128.766
   7024386.606 9  -3625593.03329  21761750.244        1588.849
   8844170.751 9   1449369.58427  22082700.435       -1217.290
  17398284.487 9  -1872951.05529  20952933.126         734.425
 96  7  1  3 25 15.0010000  0  5G 1G17G25G23G21
  15604166.877 9   1349060.16129  21966948.678        -836.996
  17855074.864 6   6975128.83724  24040835.886       -4130.149
   7000603.121 9  -3644125.61129  21757226.076        1582.314
   8862473.275 8   1463631.29127  22086177.068       -1223.021
  17387302.179 9  -1881508.69729  20950841.804         729.880
 96  7  1  3 25 30.0010000  0  5G 1G17G25G23G21
  15616725.370 9   1358845.99629  21969335.955        -837.390
  17917039.162 6   7023412.68724  24052624.804       -4131.596
   6976918.179 9  -3662581.40229  21752723.403        1575.728
   8880862.703 8   1477960.71427  22089676.515       -1228.856
  17376391.803 9  -1890010.29129  20948765.801         724.897
 96  7  1  3 25 45.0010000  0  5G 1G17G25G23G21
  15629288.986 9   1368635.83029  21971721.823        -837.748
  17979023.082 6   7071711.85424  24064428.863       -4132.779
   6953332.131 9  -3680960.13729  21748235.450        1569.086
   8899340.781 8   1492359.21227  22093197.188       -1234.790
  17365556.946 9  -1898453.02229  20946707.426         719.864
 96  7  1  3 26  0.0010000  0  5G 1G17G25G23G21
  15641858.102 9   1378429.95129  21974116.895        -838.056
  18041023.290 6   7120023.66424  24076218.861       -4133.819
   6929846.835 9  -3699260.36029  21743762.876        1562.313
   8917906.344 8   1506825.88827  22096729.133       -1240.530
  17354796.016 9  -1906838.16829  20944659.874         714.945
 96  7  1  3 26 15.0010000  0  5G 1G17G25G23G21
  15654429.007 9   1388225.45929  21976507.860        -838.113
  18103036.392 7   7168345.60124  24088020.041       -4134.558
   6906461.774 9  -3717482.47129  21739313.506        1555.688
   8936553.983 8   1521356.51027  22100277.926       -1245.884
  17344108.680 9  -1915165.96829  20942624.912         709.948
 96  7  1  3 26 30.0010000  0  5G 1G17G25G23G21
  15667000.505 9   1398021.43229  21978901.433        -838.117
  18165060.118 7   7216675.74125  24099824.579       -4135.217
   6883173.332 9  -3735629.30229  21734886.921        1549.432
   8955282.402 8   1535950.06727  22103841.439       -1251.247
  17333497.471 9  -1923434.42929  20940602.183         704.868
 96  7  1  3 26 45.0010000  0  5G 1G17G25G23G21
  15679573.455 9   1407818.54429  21981289.790        -838.174
  18227093.409 7   7265013.37125  24111627.078       -4135.755
   6859980.872 9  -3753701.34629  21730472.147        1542.943
   8974091.388 8   1550606.41727  22107419.432       -1256.521
  17322964.794 9  -1931641.72329  20938600.648         699.601
 96  7  1  3 27  0.0010000  0  5G 1G17G25G23G21
  15692144.931 9   1417614.50629  21983682.253        -838.080
  18289130.839 7   7313354.23324  24123434.464       -4135.908
   6836887.646 9  -3771696.06029  21726073.862        1536.210
   8992979.667 8   1565324.54827  22111013.134       -1261.888
  17312510.426 9  -1939787.97829  20936614.883         694.306
 96  7  1  3 27 15.0010000  0  5G 1G17G25G23G21
  15704714.540 9   1427409.01029  21986076.786        -837.926
  18351168.886 7   7361695.53024  24135239.302       -4135.820
   6813893.391 9  -3789613.64429  21721697.941        1529.718
   9011947.014 8   1580104.29527  22114622.515       -1267.140
  17302135.580 9  -1947872.26129  20934641.080         688.993
 96  7  1  3 27 30.0010000  0  5G 1G17G25G23G21
  15717281.624 9   1437201.54929  21988468.140        -837.770
  18413204.316 7   7410034.80025  24147045.158       -4135.677
   6790995.222 9  -3807456.37929  21717337.430        1523.333
   9030991.969 8   1594944.51527  22118245.837       -1272.347
  17291838.487 9  -1955895.97329  20932681.036         683.912
 96  7  1  3 27 45.0010000  0  5G 1G17G25G23G21
  15729848.792 9   1446994.14729  21990860.094        -837.931
  18475239.630 7   7458374.01425  24158844.840       -4135.787
   6768194.193 9  -3825223.40629  21713004.979        1516.701
   9050116.975 8   1609847.11427  22121889.185       -1277.744
  17281619.025 9  -1963859.19729  20930733.495         678.637
 96  7  1  3 28  0.0010000  0  5G 1G17G25G23G21
  15742417.908 9   1456788.26829  21993253.128        -837.963
  18537275.853 7   7506713.94724  24170650.397       -4135.677
   6745493.327 9  -3842912.36229  21708683.171        1510.065
   9069322.866 8   1624812.73927  22125542.905       -1282.946
  17271476.225 9  -1971762.67429  20928801.452         673.790
 96  7  1  3 28 15.0010000  0  5G 1G17G25G23G21
  15754987.633 9   1466582.86929  21995643.673        -837.998
  18599312.498 6   7555054.21425  24182456.614       -4135.771
   6722892.679 9  -3860523.27729  21704381.809        1503.431
   9088607.489 8   1639839.72027  22129210.836       -1288.325
  17261406.728 9  -1979609.03229  20926884.699         668.816
 96  7  1  3 28 30.0010000  0  5G 1G17G25G23G21
  15767557.998 9   1476377.95429  21998034.248        -838.202
  18661350.085 7   7603395.18325  24194266.938       -4136.026
   6700389.034 9  -3878058.57229  21700100.923        1496.962
   9107974.107 8   1654930.58127  22132896.754       -1294.015
  17251412.324 9  -1987396.88829  20924987.163         663.654
 96  7  1  3 28 45.0010000  0  5G 1G17G25G23G21
  15780132.149 9   1486176.00029  22000434.776        -838.459
  18723391.441 7   7651739.09924  24206073.964       -4136.301
   6677982.308 9  -3895518.35329  21695836.285        1490.442
   9127427.481 8   1670089.06627  22136594.365       -1299.814
  17241494.419 9  -1995125.11629  20923097.031         658.689
 96  7  1  3 29  0.0010000  0  5G 1G17G25G23G21
  15792709.293 9   1495976.37029  22002821.604        -838.525
  18785439.802 7   7700088.45924  24217882.399       -4136.857
   6655675.257 9  -3912900.45629  21691590.085        1483.789
   9146966.847 8   1685314.54227  22140322.104       -1305.497
  17231649.369 9  -2002796.57429  20921226.686         653.919
 96  7  1  3 29 15.0010000  0  5G 1G17G25G23G21
  15805287.666 9   1505777.70529  22005220.723        -838.603
  18847497.079 6   7748444.77524  24229682.980       -4137.557
   6633466.765 9  -3930205.76729  21687363.850        1477.300
   9166593.393 8   1700607.97127  22144049.663       -1311.353
  17221876.034 9  -2010412.16429  20919363.596         649.151
 96  7  1  3 29 30.0010000  0  5G 1G17G25G23G21
  15817866.590 9   1515579.46529  22007611.268        -838.649
  18909567.033 6   7796810.93124  24241498.280       -4138.494
   6611355.982 9  -3947434.93629  21683154.584        1470.726
   9186307.980 8   1715969.98027  22147804.864       -1317.264
  17212173.975 9  -2017972.21329  20917520.412         644.441
 96  7  1  3 29 45.0010000  0  5G 1G17G25G23G21
  15830447.187 9   1525382.54229  22010002.682        -838.728
  18971653.141 7   7845189.70724  24253314.480       -4139.607
   6589346.468 9  -3964585.20129  21678968.672        1463.952
   9206111.397 8   1731401.22627  22151574.274       -1323.105
  17202542.646 9  -2025477.12529  20915683.823         639.743
 96  7  1  3 30  0.0010000  0  5G 1G17G25G23G21
  15843028.137 9   1535185.88629  22012397.964        -838.737
  19033753.836 7   7893579.83124  24265129.301       -4140.453
   6567437.225 9  -3981657.33829  21674796.910        1457.286
   9226000.894 8   1746899.50026  22155355.796       -1328.786
  17192983.074 9  -2032926.14429  20913868.160         634.883
 96  7  1  3 30 15.0010000  0  5G 1G17G25G23G21
  15855608.450 9   1544988.72929  22014795.584        -838.703
  19095865.830 6   7941978.80023  24276948.109       -4141.135
   6545627.228 9  -3998652.13029  21670646.164        1450.708
   9245974.709 9   1762463.51326  22159159.653       -1334.379
  17183495.918 9  -2040318.73829  20912061.041         630.028
 96  7  1  3 30 30.0010000  0  5G 1G17G25G23G21
  15868187.715 9   1554790.75729  22017189.517        -838.563
  19157988.150 7   7990385.80924  24288772.223       -4141.762
   6523913.792 9  -4015571.68929  21666515.803        1444.462
   9266032.882 9   1778093.23926  22162970.105       -1340.038
  17174083.108 9  -2047653.39829  20910268.282         625.000
 96  7  1  3 30 45.0010000  0  5G 1G17G25G23G21
  15880765.567 9   1564591.69829  22019582.340        -838.492
  19220120.168 7   8038800.35724  24300595.168       -4142.509
   6502295.789 9  -4032416.88829  21662401.392        1437.911
   9286176.910 9   1793789.90826  22166809.097       -1345.877
  17164747.241 9  -2054928.09929  20908495.250         619.773
 96  7  1  3 31  0.0010000  0  5G 1G17G25G23G21
  15893341.339 9   1574391.00629  22021973.035        -838.336
  19282262.515 7   8087222.93824  24312427.197       -4143.203
   6480776.092 9  -4049185.46729  21658306.317        1431.269
   9306406.448 9   1809553.18526  22170659.482       -1351.491
  17155488.668 9  -2062142.57529  20906732.560         614.644
 96  7  1  3 31 15.0010000  0  5G 1G17G25G23G21
  15905915.043 9   1584188.70629  22024362.471        -838.236
  19344413.834 7   8135652.54824  24324249.213       -4143.660
   6459356.140 9  -4065876.33629  21654232.946        1424.729
   9326722.112 9   1825383.56326  22174525.156       -1357.304
  17146309.393 9  -2069295.25529  20904984.890         609.226
 96  7  1  3 31 30.0010000  0  5G 1G17G25G23G21
  15918490.055 9   1593987.40829  22026758.682        -838.434
  19406572.509 7   8184087.91924  24336077.734       -4144.155
   6438033.785 9  -4082491.15929  21650175.196        1418.210
   9347124.674 8   1841281.67126  22178404.320       -1363.012
  17137212.809 9  -2076383.50129  20903253.259         603.683
 96  7  1  3 31 45.0010000  0  5G 1G17G25G23G21
  15931067.318 9   1603787.88029  22029151.656        -838.618
  19468735.132 7   8232526.31024  24347907.035       -4144.270
   6416808.008 9  -4099030.72329  21646137.231        1411.869
   9367611.820 9   1857245.65726  22182305.489       -1368.660
  17128199.523 9  -2083406.84129  20901540.035         598.008
 96  7  1  3 32  0.0010000  0  5G 1G17G25G23G21
  15943647.235 9   1613590.43129  22031544.569        -838.788
  19530899.248 7   8280965.84823  24359735.196       -4144.386
   6395675.564 9  -4115497.54629  21642114.376        1405.662
   9388184.445 8   1873276.26326  22186217.751       -1374.478
  17119273.569 9  -2090362.12729  20899842.130         592.014
 96  7  1  3 32 15.0010000  0  5G 1G17G25G23G21
  15956229.423 9   1623394.72829  22033938.022        -838.850
  19593065.156 6   8329406.79523  24371564.917       -4144.380
   6374638.242 9  -4131890.27029  21638110.108        1399.263
   9408844.940 8   1889375.35426  22190149.769       -1380.328
  17110438.721 9  -2097246.42529  20898159.575         585.999
 96  7  1  3 32 30.0010000  0  5G 1G17G25G23G21
  15968813.124 9   1633200.21129  22036331.805        -838.988
  19655234.068 7   8377850.10123  24383396.226       -4144.717
   6353698.769 9  -4148206.72629  21634128.235        1392.632
   9429595.315 8   1905544.46526  22194099.025       -1386.427
  17101694.043 9  -2104060.44529  20896492.939         579.910
 96  7  1  3 32 45.0010000  0  5G 1G17G25G23G21
  15981398.602 9   1643007.07329  22038731.763        -839.111
  19717407.897 6   8426297.21823  24395224.178       -4145.080
   6332859.364 9  -4164445.22529  21630160.781        1385.910
   9450438.167 8   1921785.64526  22198062.461       -1392.576
  17093041.227 9  -2110802.91029  20894847.318         573.748
 96  7  1  3 33  0.0010000  0  5G 1G17G25G23G21
  15993986.989 9   1652816.20929  22041127.075        -839.312
  19779587.090 6   8474748.53623  24407058.665       -4145.356
   6312122.757 9  -4180603.61229  21626215.333        1379.024
   9471372.671 8   1938098.26026  22202050.360       -1398.577
  17084481.493 9  -2117472.82129  20893215.488         567.641
 96  7  1  3 33 15.0010000  0  5G 1G17G25G23G21
  16006578.436 9   1662627.72829  22043521.787        -839.521
  19841767.701 6   8523201.02423  24418893.512       -4145.282
   6291487.099 9  -4196683.33429  21622289.820        1372.444
   9492395.220 8   1954479.48626  22206048.692       -1404.326
  17076011.135 9  -2124073.09929  20891605.123         561.758
 96  7  1  3 33 30.0010000  0  5G 1G17G25G23G21
  16019173.546 9   1672442.11929  22045917.879        -839.805
  19903947.426 6   8571652.73423  24430725.331       -4145.358
   6270951.705 9  -4212684.92929  21618383.345        1365.647
   9513503.985 8   1970927.86226  22210065.462       -1410.093
  17067630.023 9  -2130603.84429  20890011.816         555.831
 96  7  1  3 33 45.0010000  0  5G 1G17G25G23G21
  16031772.140 9   1682259.19929  22048314.509        -840.034
  19966125.935 6   8620103.48723  24442552.803       -4145.199
   6250519.164 9  -4228606.37829  21614491.559        1358.658
   9534698.506 8   1987443.06226  22214097.430       -1415.944
  17059337.045 9  -2137065.89129  20888433.468         549.891
 96  7  1  3 34  0.0010000  0  5G 1G17G25G23G21
  16044373.118 9   1692078.15529  22050712.699        -840.184
  20028304.827 6   8668554.50323  24454380.245       -4145.292
   6230191.745 9  -4244445.92729  21610623.876        1351.597
   9555982.307 8   2004027.85527  22218148.556       -1421.905
  17051132.261 9  -2143459.23129  20886871.430         544.113
 96  7  1  3 34 15.0010000  0  5G 1G17G25G23G21
  16056978.069 9   1701900.19929  22053112.658        -840.506
  20090484.470 6   8717006.19823  24466219.888       -4145.341
   6209972.682 9  -4260201.02229  21606776.910        1344.252
   9577354.465 8   2020681.49927  22222215.300       -1427.741
  17043011.523 9  -2149787.08929  20885327.529         538.656
 96  7  1  3 34 30.0010000  0  5G 1G17G25G23G21
  16069586.887 9   1711725.26729  22055512.706        -840.773
  20152663.021 6   8765457.05622  24478054.256       -4145.178
   6189863.794 9  -4275870.28029  21602951.558        1336.960
   9598813.773 8   2037403.04027  22226299.403       -1433.577
  17034970.648 9  -2156052.69629  20883795.169         533.425
 96  7  1  3 34 45.0010000  0  5G 1G17G25G23G21
  16082201.098 9   1721554.52729  22057912.575        -841.155
  20214839.813 7   8813906.46622  24489879.089       -4145.119
   6169862.252 9  -4291455.90129  21599145.003        1329.872
   9620361.122 8   2054193.16727  22230402.213       -1439.433
  17027008.640 9  -2162256.86229  20882283.916         528.079
 96  7  1  3 35  0.0010000  0  5G 1G17G25G23G21
  16094819.256 9   1731386.85629  22060311.034        -841.348
  20277015.193 6   8862354.84423  24501718.283       -4144.909
   6149964.920 9  -4306960.29429  21595359.973        1323.075
   9641994.477 8   2071050.31527  22234518.213       -1445.042
  17019126.058 9  -2168399.14129  20880782.165         522.879
 96  7  1  3 35 15.0010000  0  5G 1G17G25G23G21
  16107440.619 9   1741221.68729  22062715.760        -841.483
  20339187.699 6   8910800.91523  24513537.961       -4144.728
   6130169.519 9  -4322385.27829  21591584.747        1316.342
   9663712.379 8   2087973.35827  22238654.300       -1450.650
  17011320.031 9  -2174481.74729  20879296.574         517.918
 96  7  1  3 35 30.0010000  0  5G 1G17G25G23G21
  16120064.443 9   1751058.44229  22065118.956        -841.679
  20401358.289 6   8959245.51123  24525378.744       -4144.723
   6110475.899 9  -4337730.95029  21587843.817        1309.489
   9685517.423 8   2104964.29727  22242799.980       -1456.582
  17003590.725 9  -2180504.58829  20877828.190         512.654
 96  7  1  3 35 45.0010000  0  5G 1G17G25G23G21
  16132689.793 9   1760896.37629  22067518.045        -841.791
  20463530.902 6   9007691.71823  24537212.211       -4145.047
   6090885.854 9  -4352995.91629  21584114.369        1302.514
   9707411.159 8   2122024.33427  22246969.194       -1462.630
  16995940.626 9  -2186465.71029  20876371.379         507.264
 96  7  1  3 36  0.0010000  0  5G 1G17G25G23G21
  16145315.680 9   1770734.74329  22069919.143        -841.719
  20525706.215 6   9056139.95723  24549036.775       -4145.131
   6071398.247 9  -4368181.05329  21580408.754        1295.851
   9729393.982 8   2139153.77627  22251148.780       -1468.442
  16988370.848 9  -2192364.23129  20874931.476         501.993
 96  7  1  3 36 15.0010000  0  5G 1G17G25G23G21
  16157940.507 9   1780572.26529  22072324.857        -841.598
  20587883.135 6   9104589.47923  24560870.273       -4145.117
   6052011.281 9  -4383287.77529  21576716.030        1289.075
   9751462.275 8   2156349.83227  22255347.673       -1474.054
  16980880.916 9  -2198200.53929  20873502.695         496.630
 96  7  1  3 36 30.0010000  0  5G 1G17G25G23G21
  16170560.914 9   1790406.35529  22074724.067        -841.068
  20650060.337 6   9153039.25823  24572703.262       -4145.199
   6032724.565 9  -4398316.38029  21573046.541        1282.521
   9773614.718 8   2173611.47727  22259560.447       -1479.627
  16973471.734 9  -2203973.92329  20872094.120         491.238
 96  7  1  3 36 45.0010000  0  5G 1G17G25G23G21
  16183172.850 9   1800233.85129  22077122.616        -840.537
  20712237.491 6   9201488.98923  24584537.299       -4145.170
   6013534.591 9  -4413269.59629  21569395.158        1276.170
   9795851.324 8   2190938.70127  22263794.985       -1485.274
  16966144.241 9  -2209683.66829  20870701.164         485.702
 96  7  1  3 37  0.0010000  0  5G 1G17G25G23G21
  16195777.340 9   1810055.52629  22079522.395        -840.095
  20774415.077 6   9249939.02523  24596371.127       -4145.170
   5994439.535 9  -4428148.84129  21565761.974        1269.775
   9818172.441 8   2208331.77326  22268040.197       -1490.851
  16958901.659 9  -2215327.23629  20869322.629         479.944
 96  7  1  3 37 15.0010000  0  5G 1G17G25G23G21
  16208376.345 9   1819872.93129  22081922.683        -839.836
  20836591.602 6   9298388.24022  24608198.629       -4145.053
   5975440.449 9  -4442953.32629  21562145.337        1263.364
   9840577.471 8   2225790.23026  22272306.033       -1496.514
  16951744.556 9  -2220904.20329  20867960.641         474.295
 96  7  1  3 37 30.0010000  0  5G 1G17G25G23G21
  16220973.386 9   1829688.80729  22084319.794        -839.805
  20898764.724 6   9346834.83823  24620038.812       -4144.785
   5956539.304 9  -4457681.48329  21558548.877        1256.777
   9863067.317 8   2243314.77426  22276587.819       -1502.205
  16944672.790 9  -2226414.67329  20866612.894         468.523
 96  7  1  3 37 45.0010000  0  5G 1G17G25G23G21
  16233569.376 9   1839503.87629  22086714.925        -839.697
  20960933.835 6   9395278.31423  24631862.656       -4144.408
   5937736.247 9  -4472333.21429  21554972.023        1250.266
   9885640.972 8   2260904.64526  22280880.188       -1507.659
  16937688.854 9  -2231856.69629  20865285.054         462.648
 96  7  1  3 38  0.0010000  0  5G 1G17G25G23G21
  16246164.783 9   1849318.48329  22089111.916        -839.722
  21023096.254 6   9443716.61022  24643685.961       -4143.879
   5919031.031 9  -4486908.70629  21551412.558        1243.763
   9908297.770 8   2278559.25926  22285195.041       -1513.223
  16930793.198 9  -2237229.93729  20863977.029         456.801
 96  7  1  3 38 15.0010000  0  5G 1G17G25G23G21
  16258761.814 9   1859134.31929  22091512.354        -839.937
  21085248.834 6   9492147.13022  24655515.262       -4143.255
   5900423.392 9  -4501408.15129  21547873.807        1237.165
   9931039.034 8   2296279.74026  22289517.388       -1519.066
  16923985.459 9  -2242534.66929  20862673.771         450.821
 96  7  1  3 38 30.0010000  0  5G 1G17G25G23G21
  16271362.825 9   1868953.29529  22093908.086        -840.146
  21147393.566 7   9540571.55822  24667345.582       -4142.657
   5881915.904 9  -4515829.55729  21544350.287        1230.590
   9953870.332 8   2314070.35826  22293866.148       -1525.068
  16917268.516 9  -2247768.64429  20861400.553         444.852
 96  7  1  3 38 45.0010000  0  4G 1G25G23G21
  16283967.448 9   1878775.09029  22096307.595        -840.609
   5863503.895 9  -4530176.57129  21540843.524        1224.212
   9976791.119 8   2331930.72426  22298225.879       -1531.099
  16910640.758 9  -2252933.12929  20860137.677         438.722
 96  7  1  3 39  0.0010000  0  4G 1G25G23G21
  16296580.481 9   1888603.42029  22098706.924        -841.164
   5845187.953 9  -4544448.73429  21537362.424        1217.840
   9999803.862 8   2349862.73626  22302604.918       -1537.271
  16904106.862 9  -2258024.47729  20858894.468         432.440
 96  7  1  3 39 15.0010000  0  4G 1G25G23G21
  16309200.202 9   1898436.96629  22101110.300        -841.482
   5826969.489 9  -4558644.92829  21533892.866        1211.240
  10022907.551 8   2367865.58326  22307002.484       -1543.208
  16897666.550 9  -2263042.90029  20857669.756         426.316
 96  7  1  3 39 30.0010000  0  4G 1G25G23G21
  16321823.949 9   1908273.65729  22103511.098        -841.638
   5808852.061 9  -4572762.38829  21530441.895        1204.388
  10046101.677 8   2385938.93426  22311417.407       -1549.262
  16891317.449 9  -2267990.25029  20856460.873         420.216
 96  7  1  3 39 45.0010000  0  4G 1G25G23G21
  16334447.027 9   1918109.82529  22105909.947        -841.422
   5790838.372 9  -4586799.02429  21527017.966        1197.430
  10069386.656 8   2404083.09626  22315846.481       -1555.385
  16885061.537 9  -2272864.98629  20855271.026         413.910
 96  7  1  3 40  0.0010000  0  4G 1G25G23G21
  16347065.050 9   1927942.05429  22108310.505        -841.030
   5772928.662 9  -4600754.63229  21523608.216        1190.488
  10092763.628 8   2422298.92026  22320296.750       -1561.602
  16878899.620 9  -2277666.48429  20854098.328         407.705
 96  7  1  3 40 15.0010000  0  4G 1G25G23G21
  16359675.766 9   1937768.57829  22110714.931        -840.452
   5755123.906 9  -4614628.46529  21520222.570        1183.429
  10116234.048 8   2440587.54826  22324766.985       -1567.777
  16872829.481 9  -2282396.45629  20852943.228         401.644
 96  7  1  3 40 30.0010000  0  4G 1G25G23G21
  16372275.789 9   1947586.78729  22113111.681        -839.594
   5737423.627 9  -4628420.87929  21516853.712        1176.507
  10139796.021 8   2458947.53526  22329244.835       -1573.787
  16866850.148 9  -2287055.67429  20851805.126         395.577
 96  7  1  3 40 45.0010000  0  4G 1G25G23G21
  16384863.478 9   1957395.36629  22115510.531        -838.804
   5719830.325 9  -4642129.94729  21513504.731        1169.356
  10163448.175 8   2477377.79826  22333745.500       -1579.727
  16860962.319 9  -2291643.60229  20850687.080         389.514
 96  7  1  3 41  0.0010000  0  4G 1G25G23G21
  16397439.656 9   1967194.99229  22117899.787        -838.019
   5702345.080 9  -4655754.80129  21510182.521        1161.967
  10187188.317 8   2495876.60426  22338262.862       -1585.609
  16855164.780 9  -2296161.15529  20849578.087         383.479
 96  7  1  3 41 15.0010000  0  4G 1G25G23G21
  16410003.099 9   1976984.68329  22120288.053        -837.176
   5684972.730 9  -4669291.68729  21506871.912        1154.332
  10211015.917 8   2514443.54526  22342801.960       -1591.380
  16849457.254 9  -2300608.57929  20848497.396         377.483
 96  7  1  3 41 30.0010000  0  4G 1G25G23G21
  16422554.726 9   1986765.16629  22122678.179        -836.497
   5667714.902 9  -4682739.34229  21503586.817        1146.680
  10234929.402 8   2533077.41726  22347347.773       -1597.126
  16843838.808 9  -2304986.59429  20847426.957         371.587
 96  7  1  3 41 45.0010000  0  4G 1G25G23G21
  16435098.021 9   1996539.15829  22125066.295        -836.022
   5650569.769 9  -4696099.17029  21500323.876        1139.409
  10258929.347 8   2551778.66926  22351919.818       -1602.928
  16838309.933 9  -2309294.81529  20846372.347         365.531
 96  7  1  3 42  0.0010000  0  4G 1G25G23G21
  16447636.624 9   2006309.50329  22127452.224        -835.849
   5633532.698 9  -4709374.80129  21497082.609        1132.255
  10283017.435 8   2570548.58426  22356498.668       -1608.792
  16832873.229 9  -2313531.19429  20845338.812         359.395
 96  7  1  3 42 15.0010000  0  4G 1G25G23G21
  16460174.380 9   2016079.18329  22129836.773        -835.960
   5616602.244 9  -4722567.36729  21493860.050        1125.068
  10307191.871 8   2589385.79726  22361100.063       -1614.561
  16827527.227 9  -2317696.91829  20844321.197         353.370
 96  7  1  3 42 30.0010000  0  4G 1G25G23G21
  16472714.035 9   2025850.33729  22132226.239        -836.057
   5599779.017 9  -4735676.35929  21490658.537        1118.068
  10331452.628 8   2608290.27426  22365713.179       -1620.211
  16822271.567 9  -2321792.23429  20843318.181         347.332
 96  7  1  3 42 45.0010000  0  4G 1G25G23G21
  16485258.372 9   2035625.13929  22134611.267        -836.452
   5583061.830 9  -4748702.73529  21487477.229        1111.026
  10355800.826 8   2627262.86026  22370349.200       -1626.060
  16817108.824 9  -2325815.14929  20842338.190         341.168
 96  7  1  3 43  0.0010000  0  4G 1G25G23G21
  16497808.847 9   2045404.73629  22136999.084        -836.935
   5566448.840 9  -4761647.91329  21484318.616        1104.109
  10380238.063 8   2646304.86426  22375002.338       -1632.128
  16812037.995 9  -2329766.45429  20841375.316         334.961
 96  7  1  3 43 15.0010000  0  4G 1G25G23G21
  16510366.440 9   2055189.87429  22139388.011        -837.335
   5549941.068 9  -4774511.10229  21481175.592        1096.973
  10404767.481 8   2665418.67326  22379669.747       -1638.462
  16807062.618 9  -2333643.36429  20840427.672         328.467
 96  7  1  3 43 30.0010000  0  4G 1G25G23G21
  16522928.541 9   2064978.52029  22141775.828        -837.581
   5533537.709 9  -4787292.92929  21478056.251        1090.243
  10429391.457 8   2684606.18926  22384352.056       -1644.723
  16802184.429 9  -2337444.54729  20839497.386         322.066
 96  7  1  3 43 45.0010000  0  4G 1G25G23G21
  16535493.435 9   2074769.34129  22144167.752        -837.754
   5517234.785 9  -4799996.50329  21474951.450        1083.502
  10454109.984 8   2703867.38426  22389056.639       -1651.020
  16797400.128 9  -2341172.57629  20838584.908         315.845
 96  7  1  3 44  0.0010000  0  4G 1G25G23G21
  16548060.143 9   2084561.59429  22146564.323        -837.784
   5501034.292 9  -4812620.26429  21471869.254        1076.519
  10478924.918 8   2723203.68326  22393784.456       -1657.566
  16792710.697 9  -2344826.68629  20837693.205         309.453
 96  7  1  3 44 15.0010000  0  4G 1G25G23G21
  16560625.459 9   2094352.73929  22148952.799        -837.576
   5484940.777 9  -4825160.65029  21468805.195        1069.259
  10503836.759 8   2742615.51526  22398521.536       -1663.974
  16788115.126 9  -2348407.64329  20836821.469         303.307
 96  7  1  3 44 30.0010000  0  4G 1G25G23G21
  16573185.776 9   2104139.98729  22151339.807        -837.074
   5468955.859 9  -4837616.41429  21465764.431        1062.141
  10528845.830 8   2762103.09526  22403277.324       -1670.500
  16783610.943 9  -2351917.39529  20835964.062         297.242
 96  7  1  3 44 45.0010000  0  4G 1G25G23G21
  16585738.027 9   2113920.96329  22153727.474        -836.526
   5453078.112 9  -4849988.68529  21462742.882        1054.969
  10553953.055 8   2781667.17227  22408055.146       -1676.993
  16779199.659 9  -2355354.75829  20835123.834         290.982
 96  7  1  3 45  0.0010000  0  4G 1G25G23G21
  16598279.863 9   2123693.83529  22156114.931        -835.808
   5437306.829 9  -4862277.97629  21459742.619        1047.809
  10579154.995 8   2801305.02727  22412851.616       -1683.276
  16774881.484 9  -2358719.56129  20834302.103         284.707
 96  7  1  3 45 15.0010000  0  4G 1G25G23G21
  16610810.602 9   2133458.04029  22158503.018        -834.911
   5421643.489 9  -4874483.17629  21456758.635        1040.669
  10604450.393 8   2821015.72227  22417667.602       -1689.304
  16770658.429 9  -2362010.26229  20833498.659         278.404
 96  7  1  3 45 30.0010000  0  4G 1G25G23G21
  16623327.049 9   2143211.11829  22160883.430        -833.972
   5406086.722 9  -4886605.32829  21453801.632        1033.654
  10629835.080 8   2840796.01027  22422495.849       -1695.302
  16766529.228 9  -2365227.83229  20832713.473         272.198
 96  7  1  3 45 45.0010000  0  4G 1G25G23G21
  16635830.266 9   2152953.89329  22163261.293        -833.107
   5390631.853 9  -4898648.07729  21450861.657        1026.990
  10655306.777 8   2860644.08427  22427344.243       -1700.948
  16762491.994 9  -2368373.72429  20831947.023         266.121
 96  7  1  3 46  0.0010000  0  4G 1G25G23G21
  16648320.864 9   2162686.81629  22165639.367        -832.279
   5375279.327 9  -4910611.07729  21447940.330        1020.059
  10680864.779 8   2880559.43027  22432208.885       -1706.728
  16758547.389 9  -2371447.43829  20831195.024         259.849
 96  7  1  3 46 15.0010000  0  4G 1G25G23G21
  16660798.963 9   2172409.99729  22168017.351        -831.489
   5360029.189 9  -4922494.29429  21445039.058        1013.320
  10706509.777 8   2900542.52127  22437088.577       -1712.485
  16754697.133 9  -2374447.64729  20830459.273         253.536
 96  7  1  3 46 30.0010000  0  4G 1G25G23G21
  16673265.047 9   2182123.83129  22170384.962        -830.739
   5344876.746 9  -4934301.38629  21442151.218        1006.999
  10732239.253 8   2920591.43626  22441980.920       -1718.109
  16750941.582 9  -2377374.04429  20829744.598         247.130
 96  7  1  3 46 45.0010000  0  4G 1G25G23G21
  16685720.314 9   2191829.24029  22172757.310        -830.038
   5329818.093 9  -4946035.38729  21439290.568        1000.757
  10758051.951 8   2940705.22226  22446894.878       -1723.584
  16747283.338 9  -2380224.62229  20829052.167         240.598
 96  7  1  3 47  0.0010000  0  4G 1G25G23G21
  16698166.821 9   2201527.81529  22175124.081        -829.510
   5314855.471 9  -4957694.57229  21436439.452         994.305
  10783946.068 8   2960882.46826  22451826.164       -1728.981
  16743723.964 9  -2382998.17129  20828376.765         234.000
 96  7  1  3 47 15.0010000  0  4G 1G25G23G21
  16710606.102 9   2211220.75029  22177494.120        -829.007
   5299988.929 9  -4969278.89829  21433611.749         987.953
  10809923.285 8   2981124.45326  22456764.675       -1734.638
  16740264.314 9  -2385694.00329  20827715.902         227.354
 96  7  1  3 47 30.0010000  0  4G 1G25G23G21
  16723037.361 9   2220907.45829  22179860.832        -828.582
   5285216.289 9  -4980790.02929  21430798.017         981.696
  10835986.116 7   3001433.15626  22461723.303       -1740.425
  16736902.148 9  -2388313.86029  20827074.346         220.913
 96  7  1  3 47 45.0010000  0  4G 1G25G23G21
  16735463.902 9   2230590.48429  22182225.415        -828.293
   5270539.239 9  -4992226.67429  21428007.849         975.246
  10862136.630 8   3021810.16626  22466700.697       -1746.359
  16733636.546 9  -2390858.49329  20826454.945         214.580
 96  7  1  3 48  0.0010000  0  4G 1G25G23G21
  16747887.188 9   2240270.95829  22184588.859        -828.155
   5255961.887 9  -5003585.64129  21425235.758         968.343
  10888377.577 8   3042257.64126  22471694.550       -1752.448
  16730466.772 9  -2393328.45329  20825849.574         208.062
 96  7  1  3 48 15.0010000  0  4G 1G25G23G21
  16760309.372 9   2249950.58229  22186951.793        -828.138
   5241489.293 9  -5014862.98629  21422482.914         961.380
  10914710.283 8   3062776.61426  22476708.848       -1758.524
  16727394.680 9  -2395722.29229  20825268.247         201.548
 96  7  1  3 48 30.0010000  0  4G 1G25G23G21
  16772730.564 9   2259629.42929  22189314.997        -828.002
   5227119.944 9  -5026059.86529  21419745.988         954.516
  10941133.488 8   3083366.12026  22481731.871       -1764.530
  16724421.499 9  -2398039.05429  20824701.759         194.892
 96  7  1  3 48 45.0010000  0  4G 1G25G23G21
  16785149.664 9   2269306.64229  22191678.621        -827.940
   5212854.448 9  -5037175.83429  21417029.869         947.440
  10967647.230 8   3104026.19526  22486781.515       -1770.700
  16721547.824 9  -2400278.28429  20824151.130         188.219
 96  7  1  3 49  0.0010000  0  4G 1G25G23G21
  16797566.676 9   2278982.24329  22194040.326        -827.722
   5198697.059 9  -5048207.57029  21414336.533         940.157
  10994254.747 8   3124759.30326  22491845.040       -1777.009
  16718772.693 9  -2402440.72929  20823626.014         181.680
 96  7  1  3 49 15.0010000  0  4G 1G25G23G21
  16809979.954 9   2288654.92429  22196405.328        -827.354
   5184648.669 9  -5059154.35329  21411666.522         933.035
  11020957.807 8   3145566.86626  22496927.271       -1783.386
  16716095.460 9  -2404526.89029  20823115.227         175.309
 96  7  1  3 49 30.0010000  0  4G 1G25G23G21
  16822387.771 9   2298323.34429  22198765.594        -827.007
   5170707.425 9  -5070017.66129  21409009.221         925.798
  11047756.305 8   3166448.81426  22502021.944       -1789.708
  16713513.979 9  -2406538.43729  20822626.296         168.917
 96  7  1  3 49 45.0010000  0  4G 1G25G23G21
  16834791.231 9   2307988.37629  22201125.860        -826.765
   5156875.973 9  -5080795.40329  21406377.643         918.405
  11074648.702 8   3187403.95726  22507142.519       -1795.878
  16711027.761 9  -2408475.74529  20822155.742         162.565
 96  7  1  3 50  0.0010000  0  4G 1G25G23G21
  16847190.170 9   2317649.89529  22203485.347        -826.461
   5143155.577 9  -5091486.60829  21403768.100         910.968
  11101634.141 8   3208431.58226  22512278.834       -1802.207
  16708638.274 9  -2410337.68029  20821697.029         155.938
 96  7  1  3 50 15.0010000  0  4G 1G25G23G21
  16859585.306 9   2327308.44329  22205838.778        -826.264
   5129546.655 9  -5102090.95229  21401175.674         903.566
  11128712.744 8   3229531.75026  22517433.195       -1808.349
  16706350.460 9  -2412120.39429  20821265.208         149.031
 96  7  1  3 50 30.0010000  0  4G 1G25G23G21
  16871976.220 9   2336963.70829  22208204.800        -825.928
   5116046.928 9  -5112610.22329  21398607.262         896.326
  11155883.242 8   3250703.54726  22522602.427       -1814.508
  16704166.442 9  -2413822.22729  20820845.619         142.163
 96  7  1  3 50 45.0010000  0  4G 1G25G23G21
  16884362.673 9   2346615.49029  22210560.329        -825.645
   5102657.282 9  -5123043.70329  21396058.547         888.914
  11183146.960 8   3271947.98126  22527788.207       -1820.647
  16702085.928 9  -2415443.41129  20820448.723         135.274
 96  7  1  3 51  0.0010000  0  4G 1G25G23G21
  16896744.449 9   2356263.62329  22212912.351        -825.282
   5089379.676 9  -5133389.88029  21393532.855         881.404
  11210503.283 8   3293264.55526  22532999.259       -1826.833
  16700108.043 9  -2416984.61329  20820080.818         128.438
 96  7  1  3 51 15.0010000  0  4G 1G25G23G21
  16909121.089 9   2365907.76629  22215272.617        -824.977
   5076213.893 9  -5143648.92329  21391028.389         874.067
  11237950.735 8   3314652.19826  22538218.886       -1832.803
  16698234.194 9  -2418444.76129  20819717.290         121.356
 96  7  1  3 51 30.0010000  0  4G 1G25G23G21
  16921493.596 9   2375548.68129  22217628.146        -824.751
   5063157.228 9  -5153822.94929  21388546.527         866.813
  11265486.806 8   3336108.86926  22543455.421       -1838.613
  16696467.530 9  -2419821.37429  20819379.573         114.193
 96  7  1  3 51 45.0010000  0  4G 1G25G23G21
  16933863.997 9   2385187.95029  22219978.069        -824.680
   5050209.575 9  -5163912.01029  21386077.766         859.522
  11293109.114 8   3357632.73726  22548715.009       -1844.374
  16694810.488 9  -2421112.58529  20819066.590         106.722
 96  7  1  3 52  0.0010000  0  4G 1G25G23G21
  16946232.109 9   2394825.44029  22222331.350        -824.371
   5037370.920 9  -5173916.15429  21383638.085         852.348
  11320818.418 8   3379224.40626  22553986.710       -1850.180
  16693265.489 9  -2422316.48229  20818773.243          99.245
 96  7  1  3 52 15.0010000  0  4G 1G25G23G21
  16958594.453 9   2404458.43129  22224686.040        -823.971
   5024639.960 9  -5183836.37629  21381215.433         845.130
  11348615.726 8   3400884.63626  22559278.047       -1856.119
  16691833.755 9  -2423432.12129  20818497.074          91.714
 96  7  1  3 52 30.0010000  0  4G 1G25G23G21
  16970950.065 9   2414086.18429  22227039.741        -823.428
   5012016.435 9  -5193672.87629  21378807.919         838.096
  11376501.826 8   3422614.07626  22564583.474       -1862.091
  16690513.405 9  -2424460.95429  20818245.459          84.406
 96  7  1  3 52 45.0010000  0  4G 1G25G23G21
  16983296.131 9   2423706.50029  22229384.927        -822.691
   4999498.126 9  -5203427.39029  21376430.385         831.085
  11404478.254 8   3444413.87826  22569903.321       -1868.017
  16689301.691 9  -2425405.15329  20818017.646          77.260
 96  7  1  3 53  0.0010000  0  4G 1G25G23G21
  16995629.769 9   2433317.13029  22231730.533        -821.767
   4987084.439 9  -5213100.38729  21374067.601         824.176
  11432544.332 8   3466283.53626  22575249.670       -1873.970
  16688197.022 9  -2426265.93829  20817806.113          70.173
 96  7  1  3 53 15.0010000  0  4G 1G25G23G21
  17007950.964 9   2442918.06629  22234076.079        -821.033
   4974773.265 9  -5222693.50429  21371722.744         817.408
  11460698.997 8   3488222.23926  22580607.471       -1879.985
  16687196.959 9  -2427045.21129  20817617.843          63.196
 96  7  1  3 53 30.0010000  0  4G 1G25G23G21
  17020262.348 9   2452511.34329  22236420.936        -820.400
   4962562.866 9  -5232208.09429  21369402.261         810.703
  11488945.189 8   3510232.23926  22585979.482       -1886.155
  16686300.944 9  -2427743.40529  20817443.214          56.370
 96  7  1  3 53 45.0010000  0  4G 1G25G23G21
  17032562.822 9   2462096.13829  22238760.427        -819.717
   4950454.437 9  -5241643.22729  21367098.805         803.759
  11517284.435 8   3532314.74726  22591374.157       -1892.446
  16685503.867 9  -2428364.50229  20817295.896          49.954
 96  7  1  3 54  0.0010000  0  4G 1G25G23G21
  17044852.527 9   2471672.54029  22241100.247        -818.930
   4938450.592 9  -5250996.86629  21364809.710         796.722
  11545718.855 8   3554471.44226  22596786.880       -1898.853
  16684801.591 9  -2428911.71829  20817163.568          43.741
 96  7  1  3 54 15.0010000  0  4G 1G25G23G21
  17057129.324 9   2481238.87429  22243438.088        -818.071
   4926552.961 9  -5260267.73829  21362552.962         789.661
  11574250.678 8   3576704.01526  22602212.944       -1905.318
  16684190.114 9  -2429388.19529  20817043.770          37.772
 96  7  1  3 54 30.0010000  0  4G 1G25G23G21
  17069394.873 9   2490796.44029  22245769.154        -817.422
   4914759.846 9  -5269457.16729  21360304.609         782.746
  11602879.168 8   3599011.93226  22607661.072       -1911.819
  16683668.252 9  -2429794.85829  20816945.379          31.754
 96  7  1  3 54 45.0010000  0  4G 1G25G23G21
  17081652.979 9   2500348.22329  22248101.989        -816.971
   4903070.672 9  -5278565.59629  21358081.168         775.848
  11631604.885 8   3621395.57226  22613126.738       -1918.246
  16683239.957 9  -2430128.58229  20816866.143          25.383
 96  7  1  3 55  0.0010000  0  4G 1G25G23G21
  17093904.839 9   2509895.13029  22250433.775        -816.617
   4891486.442 9  -5287592.26829  21355877.753         768.790
  11660426.392 7   3643853.88626  22618614.169       -1924.508
  16682907.840 9  -2430387.37029  20816801.059          18.933
 96  7  1  3 55 15.0010000  0  4G 1G25G23G21
  17106152.207 9   2519438.52629  22252764.212        -816.370
   4880008.769 9  -5296535.91029  21353694.815         761.647
  11689343.008 8   3666386.30526  22624114.911       -1930.905
  16682672.568 9  -2430570.70629  20816753.751          12.429
 96  7  1  3 55 30.0010000  0  4G 1G25G23G21
  17118395.558 9   2528978.79829  22255094.259        -816.034
   4868637.201 9  -5305396.86029  21351527.315         754.559
  11718354.689 8   3688992.79526  22629639.666       -1937.310
  16682536.615 9  -2430676.63729  20816730.727           5.658
 96  7  1  3 55 45.0010000  0  4G 1G25G23G21
  17130632.076 9   2538513.74429  22257422.237        -815.564
   4857373.451 9  -5314173.80629  21349384.339         747.279
  11747463.021 8   3711674.61826  22635174.645       -1943.747
  16682503.754 9  -2430702.24829  20816723.322          -1.350
 96  7  1  3 56  0.0010000  0  4G 1G25G23G21
  17142861.427 9   2548043.13029  22259744.939        -815.012
   4846217.048 9  -5322867.09629  21347262.618         740.296
  11776663.923 8   3734428.57626  22640731.927       -1949.739
  16682578.039 9  -2430644.36429  20816737.772          -8.619
 96  7  1  3 56 15.0010000  0  4G 1G25G23G21
  17155081.691 9   2557565.39329  22262073.727        -814.359
   4835163.371 9  -5331480.34429  21345161.792         733.541
  11805955.766 8   3757253.39626  22646305.339       -1955.797
  16682764.152 9  -2430499.35129  20816774.257         -16.208
 96  7  1  3 56 30.0010000  0  4G 1G25G23G21
  17167293.951 9   2567081.44529  22264397.209        -814.029
   4824211.244 9  -5340014.45829  21343075.626         726.759
  11835337.832 8   3780148.49826  22651898.687       -1961.798
  16683067.008 9  -2430263.34929  20816833.106         -24.235
 96  7  1  3 56 45.0010000  0  4G 1G25G23G21
  17179502.252 9   2576594.40929  22266724.288        -813.809
   4813361.862 9  -5348468.52629  21341012.365         719.744
  11864809.394 8   3803113.36226  22657504.116       -1967.764
  16683491.913 9  -2429932.25529  20816911.952         -32.453
 96  7  1  3 57  0.0010000  0  4G 1G25G23G21
  17191707.215 9   2586104.76229  22269045.191        -813.466
   4802619.301 9  -5356839.33429  21338967.690         712.632
  11894372.053 8   3826149.20326  22663127.953       -1973.816
  16684039.185 9  -2429505.81729  20817019.817         -40.399
 96  7  1  3 57 15.0010000  0  4G 1G25G23G21
  17203905.487 9   2595609.90629  22271365.465        -812.981
   4791983.018 9  -5365127.34429  21336940.194         705.562
  11924023.224 8   3849254.02626  22668775.263       -1979.646
  16684703.428 9  -2428988.22529  20817143.691         -48.111
 96  7  1  3 57 30.0010000  0  4G 1G25G23G21
  17216094.941 9   2605108.19329  22273686.548        -812.368
   4781451.101 9  -5373334.03529  21334936.771         698.655
  11953762.014 8   3872427.09326  22674432.767       -1985.484
  16685482.641 9  -2428381.04529  20817290.380         -55.822
 96  7  1  3 57 45.0010000  0  4G 1G25G23G21
  17228276.676 9   2614600.45129  22276003.104        -811.879
   4771023.711 9  -5381459.26529  21332956.042         691.620
  11983587.801 8   3895667.97726  22680102.592       -1991.296
  16686377.622 9  -2427683.66729  20817463.780         -63.494
 96  7  1  3 58  0.0010000  0  4G 1G25G23G21
  17240453.666 9   2624089.02029  22278320.949        -811.792
   4760702.331 9  -5389501.87529  21330990.513         684.559
  12013500.415 8   3918976.49526  22685799.458       -1997.108
  16687387.252 9  -2426896.93429  20817655.797         -71.134
 96  7  1  3 58 15.0010000  0  4G 1G25G23G21
  17252628.091 9   2633575.58929  22280636.426        -811.485
   4750487.074 9  -5397461.81629  21329045.159         677.426
  12043501.215 7   3942353.73926  22691507.986       -2003.116
  16688509.693 9  -2426022.30829  20817862.983         -78.451
 96  7  1  3 58 30.0010000  0  4G 1G25G23G21
  17264799.489 9   2643059.79629  22282951.004        -811.411
   4740380.283 9  -5405337.23329  21327121.601         670.075
  12073592.555 7   3965801.52826  22697233.752       -2009.157
  16689740.722 9  -2425063.07329  20818102.158         -85.628
 96  7  1  3 58 45.0010000  0  4G 1G25G23G21
  17276969.995 9   2652543.31229  22285269.569        -811.372
   4730384.903 9  -5413125.83329  21325220.587         662.579
  12103775.840 7   3989320.96426  22702977.266       -2015.405
  16691077.671 9  -2424021.30629  20818357.881         -92.657
 96  7  1  3 59  0.0010000  0  4G 1G25G23G21
  17289135.732 9   2662023.10529  22287584.506        -810.742
   4720499.945 9  -5420828.38029  21323339.839         655.382
  12134053.771 8   4012914.19126  22708738.318       -2021.682
  16692516.302 9  -2422900.28929  20818630.542         -99.185
 96  7  1  3 59 15.0010000  0  4G 1G25G23G21
  17301290.215 9   2671494.11729  22289895.067        -809.871
   4710721.524 9  -5428447.93129  21321476.569         648.418
  12164425.060 8   4036580.12726  22714518.556       -2027.764
  16694050.619 9  -2421704.71829  20818924.668        -105.455
 96  7  1  3 59 30.0010000  0  4G 1G25G23G21
  17313433.646 9   2680956.54229  22292208.925        -809.248
   4701048.165 9  -5435985.60229  21319636.323         641.396
  12194888.731 7   4060318.02326  22720316.662       -2034.067
  16695681.271 9  -2420434.08029  20819235.283        -111.895
 96  7  1  3 59 45.0010000  0  4G 1G25G23G21
  17325569.459 9   2690413.01429  22294518.196        -808.866
   4691482.426 9  -5443439.41929  21317817.542         634.053
  12225449.423 7   4084131.52926  22726128.708       -2040.629
  16697409.215 9  -2419087.62929  20819560.348        -118.510
 96  7  1  4  0  0.0010000  0  4G 1G25G23G21
  17337698.460 9   2699864.18029  22296823.181        -808.274
   4682025.156 9  -5450808.71129  21316018.188         626.950
  12256108.243 8   4108021.53426  22731964.109       -2047.145
  16699235.461 9  -2417664.59729  20819910.146        -124.960
 96  7  1  4  0 15.0010000  0  4G 1G25G23G21
  17349818.219 9   2709308.15829  22299132.932        -807.684
   4672676.010 9  -5458093.75429  21314238.889         619.545
  12286866.972 7   4131989.38526  22737817.736       -2054.018
  16701159.108 9  -2416165.65229  20820276.463        -131.600
 96  7  1  4  0 30.0010000  0  4G 1G25G23G21
  17361925.931 9   2718742.73529  22301433.089        -806.765
   4663435.989 9  -5465293.75129  21312481.056         612.428
  12317726.091 8   4156035.46326  22743694.358       -2060.582
  16703181.470 9  -2414589.78429  20820659.178        -138.137
 96  7  1  4  0 45.0010000  0  4G 1G25G23G21
  17374022.296 9   2728168.46629  22303738.433        -806.079
   4654303.502 9  -5472409.96729  21310740.821         605.289
  12348684.518 8   4180158.90526  22749585.370       -2067.235
  16705305.564 9  -2412934.64829  20821061.259        -145.120
 96  7  1  4  1  0.0010000  0  4G 1G25G23G21
  17386106.868 9   2737585.01429  22306037.392        -805.292
   4645277.327 9  -5479443.35329  21309022.441         598.197
  12379742.258 8   4204359.74626  22755490.112       -2073.784
  16707535.487 9  -2411197.05429  20821488.134        -152.270
 96  7  1  4  1 15.0010000  0  4G 1G25G23G21
  17398179.892 9   2746992.56829  22308333.742        -804.540
   4636356.258 9  -5486394.82529  21307327.534         591.214
  12410896.221 8   4228635.57126  22761423.454       -2080.009
  16709873.975 9  -2409374.86029  20821927.300        -159.606
 96  7  1  4  1 30.0010000  0  4G 1G25G23G21
  17410244.908 9   2756393.87529  22310632.880        -804.161
   4627541.396 9  -5493263.53329  21305649.116         584.090
  12442142.964 8   4252983.67926  22767363.272       -2086.274
  16712326.612 9  -2407463.70929  20822397.134        -167.484
 96  7  1  4  1 45.0010000  0  4G 1G25G23G21
  17422306.348 9   2765792.40429  22312923.534        -803.953
   4618834.846 9  -5500047.85029  21303991.204         576.821
  12473486.827 8   4277407.45826  22773334.119       -2092.848
  16714901.295 9  -2405457.47329  20822893.501        -175.757
 96  7  1  4  2  0.0010000  0  4G 1G25G23G21
  17434360.215 9   2775185.03229  22315222.193        -803.245
   4610234.114 9  -5506749.71729  21302354.427         569.935
  12504924.519 8   4301904.33126  22779315.188       -2098.860
  16717598.603 9  -2403355.67529  20823403.208        -183.968
 96  7  1  4  2 15.0010000  0  4G 1G25G23G21
  17446405.225 9   2784570.75029  22317510.629        -802.762
   4601737.585 9  -5513370.38029  21300740.974         562.904
  12536453.534 8   4326472.39026  22785317.663       -2105.014
  16720421.719 9  -2401155.84229  20823941.725        -192.423
 96  7  1  4  2 30.0010000  0  4G 1G25G23G21
  17458442.389 9   2793950.34829  22319801.523        -802.258
   4593345.240 9  -5519909.85429  21299141.851         556.035
  12568072.925 8   4351110.89226  22791334.587       -2110.939
  16723372.384 9  -2398856.63029  20824504.376        -201.061
 96  7  1  4  2 45.0010000  0  4G 1G25G23G21
  17470474.117 9   2803325.72129  22322093.496        -801.960
   4585056.038 9  -5526368.96429  21297565.962         549.264
  12599781.711 8   4375819.03326  22797362.904       -2116.884
  16726453.998 9  -2396455.38729  20825086.842        -209.804
 96  7  1  4  3  0.0010000  0  4G 1G25G23G21
  17482501.761 9   2812697.91829  22324381.033        -801.692
   4576868.568 9  -5532748.79829  21296007.281         542.374
  12631579.487 8   4400596.54626  22803417.992       -2122.776
  16729666.754 9  -2393951.93329  20825703.186        -218.524
 96  7  1  4  3 15.0010000  0  4G 1G25G23G21
  17494524.313 9   2822066.13229  22326670.308        -801.279
   4568785.679 9  -5539047.14629  21294468.566         535.449
  12663466.430 8   4425443.52126  22809484.053       -2128.735
  16733008.583 9  -2391347.91929  20826336.078        -226.981
 96  7  1  4  3 30.0010000  0  4G 1G25G23G21
  17506539.469 9   2831428.58829  22328955.626        -800.792
   4560805.817 9  -5545265.21729  21292949.788         528.487
  12695441.264 8   4450358.98826  22815568.760       -2134.589
  16736476.359 9  -2388645.76329  20827000.088        -235.309
 96  7  1  4  3 45.0010000  0  4G 1G25G23G21
  17518546.803 9   2840784.95429  22331239.415        -800.192
   4552930.734 9  -5551401.64029  21291450.496         521.526
  12727504.723 8   4475343.49826  22821671.606       -2140.526
  16740067.049 9  -2385847.82129  20827680.767        -243.375
 96  7  1  4  4  0.0010000  0  4G 1G25G23G21
  17530545.068 9   2850134.24229  22333522.574        -799.550
   4545160.312 9  -5557456.50029  21289975.547         514.531
  12759656.416 8   4500396.76526  22827790.519       -2146.303
  16743775.370 9  -2382958.22929  20828381.382        -251.013
 96  7  1  4  4 15.0010000  0  4G 1G25G23G21
  17542532.908 9   2859475.41529  22335804.025        -798.889
   4537496.731 9  -5563428.11829  21288513.549         507.307
  12791894.551 8   4525517.39426  22833922.384       -2152.097
  16747597.858 9  -2379979.68129  20829113.415        -258.578
 96  7  1  4  4 30.0010000  0  4G 1G25G23G21
  17554512.499 9   2868810.16529  22338084.336        -798.413
   4529941.128 9  -5569315.59029  21287076.584         500.141
  12824221.253 8   4550707.06226  22840076.584       -2158.091
  16751532.319 9  -2376913.87129  20829860.767        -265.989
 96  7  1  4  4 45.0010000  0  4G 1G25G23G21
  17566483.322 9   2878138.07529  22340360.330        -797.779
   4522491.757 9  -5575120.29929  21285660.964         493.062
  12856638.188 8   4575967.00426  22846246.882       -2164.214
  16755576.538 9  -2373762.53629  20830631.084        -273.225
 96  7  1  4  5  0.0010000  0  4G 1G25G23G21
  17578443.229 9   2887457.47729  22342637.344        -797.047
   4515148.361 9  -5580842.41429  21284263.391         485.936
  12889145.890 8   4601297.70326  22852431.181       -2170.311
  16759725.410 9  -2370529.65729  20831418.189        -280.083
 96  7  1  4  5 15.0010000  0  4G 1G25G23G21
  17590392.319 9   2896768.46229  22344907.193        -796.253
   4507913.999 9  -5586479.56229  21282883.956         478.612
  12921746.568 8   4626700.84626  22858632.628       -2176.488
  16763977.021 9  -2367216.71329  20832229.817        -286.868
 96  7  1  4  5 30.0010000  0  4G 1G25G23G21
  17602330.973 9   2906071.30129  22347183.007        -795.589
   4500790.947 9  -5592029.99829  21281529.464         471.181
  12954441.351 7   4652177.30526  22864858.238       -2182.785
  16768333.318 9  -2363822.20529  20833058.564        -293.943
 96  7  1  4  5 45.0010000  0  4G 1G25G23G21
  17614260.718 9   2915367.21229  22349452.466        -795.092
   4493779.627 9  -5597493.35729  21280198.535         463.640
  12987230.295 7   4677727.11126  22871097.309       -2189.127
  16772795.206 9  -2360345.40529  20833908.535        -301.045
 96  7  1  4  6  0.0010000  0  4G 1G25G23G21
  17626181.734 9   2924656.30029  22351723.214        -794.481
   4486879.737 9  -5602869.88229  21278883.466         456.266
  13020115.212 7   4703351.69526  22877348.791       -2195.598
  16777365.172 9  -2356784.39629  20834774.336        -308.369
 96  7  1  4  6 15.0010000  0  4G 1G25G23G21
  17638093.318 9   2933938.05129  22353990.005        -793.747
   4480090.963 9  -5608159.83729  21277590.401         448.939
  13053098.069 7   4729052.64226  22883628.634       -2202.101
  16782045.076 9  -2353137.71429  20835665.469        -315.650
 96  7  1  4  6 30.0010000  0  4G 1G25G23G21
  17649994.594 9   2943211.77129  22356254.517        -793.167
   4473411.861 9  -5613364.32129  21276319.011         441.681
  13086179.872 7   4754830.70026  22889919.748       -2208.801
  16786836.480 9  -2349404.15429  20836579.836        -323.211
 96  7  1  4  6 45.0010000  0  4G 1G25G23G21
  17661887.029 9   2952478.59129  22358520.288        -792.460
   4466839.029 9  -5618486.00329  21275068.517         434.619
  13119359.792 7   4780685.18726  22896238.234       -2215.273
  16791739.986 9  -2345583.24629  20837510.931        -330.653
 96  7  1  4  7  0.0010000  0  4G 1G25G23G21
  17673768.341 9   2961736.74929  22360775.837        -791.698
   4460374.690 9  -5623523.14229  21273836.879         427.320
  13152638.477 7   4806616.67026  22902569.251       -2221.765
  16796757.146 9  -2341673.77329  20838469.248        -338.242
 96  7  1  4  7 15.0010000  0  4G 1G25G23G21
  17685638.273 9   2970986.05029  22363035.673        -791.057
   4454021.259 9  -5628473.86729  21272632.733         419.839
  13186013.060 7   4832622.83526  22908918.466       -2228.187
  16801889.844 9  -2337674.27129  20839442.014        -346.168
 96  7  1  4  7 30.0010000  0  4G 1G25G23G21
  17697498.669 9   2980227.91329  22365290.741        -790.298
   4447779.524 9  -5633337.53729  21271439.289         412.484
  13219481.998 7   4858702.52126  22915289.115       -2234.273
  16807142.222 9  -2333581.50829  20840442.752        -354.075
 96  7  1  4  7 45.0010000  0  4G 1G25G23G21
  17709348.542 9   2989461.56129  22367546.590        -789.660
   4441646.497 9  -5638116.51729  21270275.405         405.362
  13253041.832 7   4884853.02726  22921674.005       -2240.271
  16812513.153 9  -2329396.37229  20841463.635        -361.915
 96  7  1  4  8  0.0010000  0  4G 1G25G23G21
  17721190.045 9   2998688.70229  22369801.479        -789.149
   4435620.547 9  -5642812.07329  21269128.609         398.178
  13286693.869 7   4911075.41926  22928078.172       -2246.566
  16818002.576 9  -2325118.91229  20842513.388        -369.965
 96  7  1  4  8 15.0010000  0  4G 1G25G23G21
  17733022.744 9   3007908.98429  22372050.012        -788.670
   4429700.794 9  -5647424.86629  21268000.999         390.989
  13320437.101 8   4937368.84426  22934502.155       -2252.564
  16823610.819 9  -2320748.84629  20843575.763        -377.846
 96  7  1  4  8 30.0010000  0  4G 1G25G23G21
  17744849.698 9   3017124.78529  22374297.796        -788.250
   4423890.470 9  -5651952.37029  21266895.724         383.812
  13354269.628 8   4963731.85626  22940940.647       -2258.346
  16829336.284 9  -2316287.45129  20844668.746        -385.515
 96  7  1  4  8 45.0010000  0  4G 1G25G23G21
  17756672.294 9   3026337.18729  22376554.604        -788.080
   4418188.155 9  -5656395.73329  21265809.157         376.547
  13388187.820 8   4990161.64126  22947398.477       -2264.096
  16835178.515 9  -2311735.07129  20845777.678        -393.405
 96  7  1  4  9  0.0010000  0  4G 1G25G23G21
  17768491.495 9   3035546.95029  22378799.599        -787.785
   4412595.576 9  -5660753.57929  21264744.833         369.127
  13422192.733 8   5016658.98226  22953866.019       -2269.872
  16841139.664 9  -2307090.01729  20846912.393        -401.419
 96  7  1  4  9 15.0010000  0  4G 1G25G23G21
  17780307.094 9   3044753.90029  22381050.981        -787.604
   4407114.136 9  -5665024.83129  21263707.312         361.789
  13456285.124 8   5043224.48026  22960354.248       -2275.734
  16847221.747 9  -2302350.73429  20848068.572        -409.439
 96  7  1  4  9 30.0010000  0  4G 1G25G23G21
  17792120.434 9   3053959.08529  22383296.816        -787.482
   4401741.750 9  -5669211.09529  21262676.176         354.598
  13490463.745 8   5069857.17626  22966861.423       -2281.451
  16853423.808 9  -2297517.96629  20849252.723        -417.455
 96  7  1  4  9 45.0010000  0  4G 1G25G23G21
  17803930.501 9   3063161.74429  22385547.898        -787.215
   4396476.323 9  -5673314.02029  21261678.916         347.450
  13524730.130 8   5096558.27426  22973376.692       -2287.438
  16859745.122 9  -2292592.25729  20850451.023        -425.424
 96  7  1  4 10  0.0010000  0  4G 1G25G23G21
  17815736.151 9   3072360.93329  22387794.392        -786.886
   4391317.082 9  -5677334.20629  21260697.365         340.386
  13559087.739 8   5123330.44826  22979918.014       -2293.596
  16866186.973 9  -2287572.63029  20851683.200        -433.516
 96  7  1  4 10 15.0010000  0  4G 1G25G23G21
  17827535.757 9   3081555.42829  22390039.178        -786.444
   4386265.513 9  -5681270.48229  21259734.252         333.098
  13593538.401 8   5150175.09426  22986470.008       -2299.787
  16872751.513 9  -2282457.42729  20852926.140        -441.718
 96  7  1  4 10 30.0010000  0  4G 1G25G23G21
  17839328.056 9   3090744.23229  22392281.866        -785.874
   4381323.207 9  -5685121.61929  21258795.152         325.909
  13628080.555 8   5177091.07726  22993040.469       -2305.895
  16879438.795 9  -2277246.55929  20854199.328        -449.868
 96  7  1  4 10 45.0010000  0  4G 1G25G23G21
  17851112.834 9   3099927.16229  22394522.215        -785.326
   4376488.441 9  -5688888.97029  21257878.267         318.777
  13662717.485 8   5204080.88626  22999633.475       -2312.344
  16886250.793 9  -2271938.51129  20855498.899        -458.374
 96  7  1  4 11  0.0010000  0  4G 1G25G23G21
  17862885.020 9   3109100.27929  22396767.780        -784.313
   4371759.259 9  -5692574.03329  21256975.112         311.769
  13697451.324 8   5231146.24726  23006245.308       -2318.895
  16893189.416 9  -2266531.79629  20856815.077        -466.775
 96  7  1  4 11 15.0010000  0  4G 1G25G23G21
  17874642.858 9   3118262.22829  22399002.074        -783.465
   4367136.444 9  -5696176.22229  21256097.290         304.639
  13732285.023 8   5258289.41426  23012872.130       -2325.611
  16900253.778 9  -2261027.10529  20858162.585        -475.133
 96  7  1  4 11 30.0010000  0  4G 1G25G23G21
  17886387.901 9   3127414.20629  22401235.797        -782.637
   4362618.167 9  -5699696.95129  21255239.164         297.709
  13767218.378 8   5285510.25526  23019519.308       -2332.189
  16907440.736 9  -2255426.86629  20859525.981        -483.162
 96  7  1  4 11 45.0010000  0  4G 1G25G23G21
  17898119.884 9   3136556.00629  22403466.943        -781.677
   4358203.543 9  -5703136.90729  21254396.088         290.940
  13802249.438 8   5312807.20626  23026189.421       -2338.520
  16914748.545 9  -2249732.48629  20860920.555        -491.193
 96  7  1  4 12  0.0010000  0  4G 1G25G23G21
  17909838.203 9   3145687.15729  22405700.786        -780.794
   4353888.993 9  -5706498.88429  21253574.716         284.259
  13837377.001 8   5340179.33226  23032874.703       -2345.069
  16922176.959 9  -2243944.11729  20862331.438        -499.262
 96  7  1  4 12 15.0010000  0  4G 1G25G23G21
  17921545.821 9   3154809.97529  22407926.475        -780.172
   4349676.696 9  -5709781.19229  21252773.701         277.407
  13872601.739 8   5367627.20126  23039574.644       -2351.484
  16929726.876 9  -2238061.05429  20863767.774        -507.311
 96  7  1  4 12 30.0010000  0  4G 1G25G23G21
  17933243.917 9   3163925.34229  22410153.603        -779.612
   4345566.230 9  -5712984.15029  21251985.756         270.607
  13907920.631 7   5395148.45626  23046295.811       -2357.696
  16937395.440 9  -2232085.55629  20865229.142        -515.169
 96  7  1  4 12 45.0010000  0  4G 1G25G23G21
  17944933.675 9   3173034.22229  22412380.312        -779.032
   4341556.099 9  -5716108.92629  21251228.001         264.111
  13943333.144 7   5422742.62226  23053033.917       -2363.965
  16945182.267 9  -2226017.90529  20866708.738        -523.026
 96  7  1  4 13  0.0010000  0  4G 1G25G23G21
  17956614.499 9   3182136.15429  22414601.294        -778.461
   4337644.082 9  -5719157.23429  21250482.237         257.533
  13978840.094 7   5450410.37525  23059792.228       -2370.236
  16953086.027 9  -2219859.12829  20868218.013        -530.822
 96  7  1  4 13 15.0010000  0  4G 1G25G23G21
  17968286.824 9   3191231.46429  22416823.836        -777.949
   4333828.928 9  -5722130.08229  21249757.789         251.129
  14014439.105 7   5478149.90625  23066565.139       -2376.209
  16961105.562 9  -2213610.14229  20869740.809        -538.435
 96  7  1  4 13 30.0010000  0  4G 1G25G23G21
  17979954.219 9   3200322.92429  22419040.981        -777.736
   4330110.000 9  -5725027.93729  21249049.619         244.674
  14050126.737 7   5505958.43925  23073357.057       -2382.131
  16969240.561 9  -2207271.19329  20871287.768        -546.314
 96  7  1  4 13 45.0010000  0  4G 1G25G23G21
  17991617.927 9   3209411.51329  22421260.045        -777.451
   4326488.925 9  -5727849.55729  21248361.356         238.047
  14085903.022 7   5533836.02025  23080166.034       -2388.053
  16977496.699 9  -2200837.83529  20872857.691        -554.579
 96  7  1  4 14  0.0010000  0  4G 1G25G23G21
  18003277.638 9   3218496.97429  22423477.250        -777.091
   4322968.781 9  -5730592.50929  21247690.510         231.352
  14121768.429 7   5561783.09726  23086990.839       -2393.969
  16985879.065 9  -2194306.12229  20874459.962        -562.986
 96  7  1  4 14 15.0010000  0  4G 1G25G23G21
  18014932.655 9   3227578.79729  22425697.633        -776.845
   4319550.905 9  -5733255.78229  21247042.149         224.292
  14157724.738 7   5589801.00626  23093834.681       -2400.101
  16994386.608 9  -2187676.88229  20876075.094        -571.323
 96  7  1  4 14 30.0010000  0  4G 1G25G23G21
  18026582.257 9   3236656.40729  22427913.579        -776.382
   4316239.071 9  -5735836.43129  21246410.246         217.227
  14193772.205 7   5617889.92726  23100687.787       -2406.176
  17003018.638 9  -2180950.62529  20877717.027        -579.587
 96  7  1  4 14 45.0010000  0  4G 1G25G23G21
  18038223.140 9   3245727.22029  22430130.664        -775.739
   4313033.626 9  -5738334.17729  21245801.368         210.146
  14229910.420 7   5646049.59626  23107564.876       -2412.289
  17011774.933 9  -2174127.54129  20879380.306        -587.947
 96  7  1  4 15  0.0010000  0  4G 1G25G23G21
  18049853.367 9   3254789.72829  22432345.530        -775.033
   4309934.388 9  -5740749.15129  21245213.025         203.064
  14266140.268 7   5674280.65126  23114464.030       -2418.381
  17020655.771 9  -2167207.41229  20881074.283        -596.164
 96  7  1  4 15 15.0010000  0  4G 1G25G23G21
  18061473.506 9   3263844.38429  22434554.671        -774.403
   4306943.429 9  -5743079.77429  21244639.192         195.723
  14302461.219 7   5702582.68626  23121371.847       -2424.391
  17029660.683 9  -2160190.61429  20882787.297        -604.505
 96  7  1  4 15 30.0010000  0  4G 1G25G23G21
  18073083.927 9   3272891.46629  22436762.612        -773.739
   4304064.344 9  -5745323.21429  21244093.570         188.085
  14338871.625 7   5730954.42326  23128301.040       -2430.367
  17038790.848 9  -2153076.20229  20884525.884        -612.874
 96  7  1  4 15 45.0010000  0  4G 1G25G23G21
  18084684.823 9   3281931.12829  22438978.379        -773.017
   4301300.134 9  -5747477.13229  21243566.205         180.465
  14375373.540 7   5759397.47826  23135249.840       -2436.532
  17048048.150 9  -2145862.72429  20886282.757        -621.350
 96  7  1  4 16  0.0010000  0  4G 1G25G23G21
  18096272.461 9   3290960.46529  22441178.915        -772.062
   4298649.208 9  -5749542.78329  21243062.974         173.013
  14411966.772 7   5787911.71726  23142214.049       -2442.558
  17057429.177 9  -2138552.85229  20888071.769        -629.378
 96  7  1  4 16 15.0010000  0  4G 1G25G23G21
  18107846.726 9   3299979.38329  22443383.499        -771.175
   4296109.972 9  -5751521.41829  21242578.959         165.565
  14448649.886 7   5816495.96526  23149194.536       -2448.523
  17066927.949 9  -2131151.21429  20889878.798        -637.138
 96  7  1  4 16 30.0010000  0  4G 1G25G23G21
  18119406.628 9   3308987.11529  22445577.140        -770.241
   4293681.909 9  -5753413.39529  21242117.668         158.113
  14485422.500 7   5845149.94226  23156187.915       -2454.497
  17076542.765 9  -2123659.15229  20891707.442        -644.938
 96  7  1  4 16 45.0010000  0  4G 1G25G23G21
  18130952.546 9   3317983.93529  22447773.540        -769.317
   4291364.902 9  -5755218.84829  21241678.112         150.843
  14522284.875 7   5873873.87726  23163205.247       -2460.462
  17086276.118 9  -2116074.73229  20893561.149        -652.842
 96  7  1  4 17  0.0010000  0  4G 1G25G23G21
  18142487.396 9   3326972.13829  22449970.719        -768.680
   4289156.338 9  -5756939.80729  21241258.193         143.697
  14559236.626 7   5902667.44626  23170241.106       -2466.425
  17096128.392 9  -2108397.65429  20895436.920        -660.777
 96  7  1  4 17 15.0010000  0  4G 1G25G23G21
  18154014.416 9   3335954.24029  22452167.868        -768.280
   4287054.338 9  -5758577.71829  21240858.749         136.587
  14596278.347 7   5931531.11826  23177280.353       -2472.430
  17106100.076 9  -2100627.50929  20897333.767        -668.765
 96  7  1  4 17 30.0010000  0  4G 1G25G23G21
  18165535.376 9   3344931.61029  22454356.622        -767.859
   4285058.769 9  -5760132.69229  21240474.745         129.548
  14633410.948 7   5960465.58826  23184350.598       -2478.634
  17116193.097 9  -2092762.83829  20899253.848        -676.912
 96  7  1  4 17 45.0010000  0  4G 1G25G23G21
  18177051.301 9   3353905.05629  22456549.424        -767.569
   4283167.842 9  -5761606.14729  21240118.952         122.721
  14670638.818 7   5989474.33926  23191436.013       -2485.041
  17126408.736 9  -2084802.61229  20901198.331        -685.058
 96  7  1  4 18  0.0010000  0  4G 1G25G23G21
  18188561.824 9   3362874.28429  22458738.479        -767.274
   4281376.628 9  -5763001.89029  21239775.599         116.036
  14707962.511 7   6018557.75526  23198537.557       -2491.481
  17136744.819 9  -2076748.53029  20903163.951        -693.073
 96  7  1  4 18 15.0010000  0  4G 1G25G23G21
  18200069.162 9   3371841.04829  22460929.902        -767.048
   4279687.390 9  -5764318.16929  21239452.333         109.218
  14745382.715 7   6047716.37226  23205661.165       -2497.849
  17147200.236 9  -2068601.47029  20905156.221        -701.017
 96  7  1  4 18 30.0010000  0  4G 1G25G23G21
  18211573.229 9   3380805.25029  22463118.027        -766.855
   4278100.566 9  -5765554.64729  21239153.320         102.383
  14782900.095 7   6076950.67726  23212796.196       -2504.432
  17157777.313 9  -2060359.60429  20907168.698        -709.321
 96  7  1  4 18 45.0010000  0  4G 1G25G23G21
  18223074.709 9   3389767.45029  22465305.583        -766.672
   4276616.530 9  -5766711.05029  21238870.376          95.533
  14820517.589 7   6106263.00625  23219961.475       -2511.206
  17168480.010 9  -2052019.86229  20909201.831        -717.743
 96  7  1  4 19  0.0010000  0  4G 1G25G23G21
  18234572.815 9   3398727.01729  22467495.806        -766.534
   4275233.424 9  -5767788.79129  21238604.640          88.833
  14858235.103 7   6135653.24425  23227137.427       -2517.826
  17179309.435 9  -2043581.37329  20911262.154        -726.195
 96  7  1  4 19 15.0010000  0  4G 1G25G23G21
  18246067.840 9   3407684.18129  22469680.364        -766.230
   4273951.214 9  -5768787.89829  21238364.027          82.097
  14896051.501 7   6165120.57625  23234329.329       -2524.407
  17190266.026 9  -2035043.79429  20913349.819        -734.674
 96  7  1  4 19 30.0010000  0  5G 1G25G15G23G21
  18257557.981 9   3416637.54029  22471869.419        -765.798
   4272769.492 9  -5769708.71629  21238138.643          75.432
  -6699731.935 7  -5085114.36125  24484319.229        1825.094
  14933966.403 7   6194664.69825  23241548.391       -2530.869
  17201349.602 9  -2026407.26229  20915457.060        -743.147
 96  7  1  4 19 45.0010000  0  5G 1G25G15G23G21
  18269040.963 9   3425585.32429  22474053.377        -765.308
   4271688.322 9  -5770551.19329  21237931.276          68.691
  -6727053.631 7  -5106403.95325  24479122.446        1817.771
  14971977.566 7   6224283.78925  23248773.449       -2537.231
  17212560.459 9  -2017671.56029  20917588.195        -751.688
 96  7  1  4 20  0.0010000  0  5G 1G25G15G23G21
  18280515.912 9   3434526.87629  22476239.733        -764.717
   4270709.609 9  -5771313.81229  21237746.544          61.673
  -6754266.024 7  -5127608.42625  24473941.523        1810.506
  15010080.082 7   6253974.06425  23256031.964       -2543.141
  17223899.862 9  -2008835.67729  20919746.311        -760.313
 96  7  1  4 20 15.0010000  0  5G 1G25G15G23G21
  18291980.009 9   3443459.95229  22478418.954        -763.851
   4269837.704 9  -5771993.21029  21237581.298          54.568
  -6781369.650 7  -5148728.15825  24468782.065        1803.344
  15048268.034 8   6283730.90525  23263295.156       -2548.616
  17235368.682 9  -1999898.95329  20921931.708        -768.888
 96  7  1  4 20 30.0010000  0  5G 1G25G15G23G21
  18303432.324 9   3452383.86729  22480602.852        -763.154
   4269073.502 9  -5772588.68829  21237434.400          47.436
  -6808364.383 7  -5169763.03125  24463649.528        1796.016
  15086540.455 8   6313553.57925  23270578.764       -2554.293
  17246968.495 9  -1990860.16629  20924133.834        -777.765
 96  7  1  4 20 45.0010000  0  5G 1G25G15G23G21
  18314874.403 9   3461299.79529  22482775.358        -762.525
   4268414.247 9  -5773102.40429  21237310.256          40.395
  -6835249.650 7  -5190712.58225  24458534.859        1788.617
  15124897.319 8   6343442.10925  23277884.556       -2559.982
  17258701.866 9  -1981717.29129  20926370.525        -786.717
 96  7  1  4 21  0.0010000  0  5G 1G25G15G23G21
  18326306.453 9   3470207.90529  22484952.571        -761.883
   4267859.692 9  -5773534.50529  21237202.720          33.500
  -6862025.220 7  -5211576.66725  24453437.398        1781.387
  15163338.282 8   6373396.13025  23285194.156       -2565.470
  17270567.554 9  -1972471.33329  20928629.551        -795.439
 96  7  1  4 21 15.0010000  0  5G 1G25G15G23G21
  18337732.407 9   3479111.26629  22487129.364        -761.596
   4267410.733 9  -5773884.33329  21237120.248          26.433
  -6888690.444 7  -5232354.72725  24448360.772        1774.001
  15201860.896 8   6403413.70325  23292521.653       -2570.877
  17282565.463 9  -1963122.32429  20930915.349        -804.167
 96  7  1  4 21 30.0010000  0  5G 1G25G15G23G21
  18349153.494 9   3488010.80429  22489299.922        -761.231
   4267066.311 9  -5774152.71629  21237051.835          19.475
  -6915245.163 7  -5253046.69825  24443312.807        1766.680
  15240465.109 8   6433494.92225  23299869.416       -2576.342
  17294694.004 9  -1953671.53129  20933223.541        -812.960
 96  7  1  4 21 45.0010000  0  5G 1G25G15G23G21
  18360568.993 9   3496906.00529  22491469.280        -760.806
   4266828.150 9  -5774338.28829  21237007.556          12.271
  -6941689.399 7  -5273652.61925  24438278.032        1759.247
  15279151.688 7   6463640.30725  23307231.389       -2581.858
  17306955.283 9  -1944117.32829  20935555.147        -821.850
 96  7  1  4 22  0.0010000  0  5G 1G25G15G23G21
  18371975.719 9   3505794.35429  22493642.775        -760.155
   4266698.953 9  -5774438.94529  21236980.454           4.960
  -6968023.130 7  -5294172.43524  24433264.633        1751.846
  15317920.582 8   6493849.83625  23314611.051       -2587.340
  17319349.607 9  -1934459.42529  20937912.775        -830.729
 96  7  1  4 22 15.0010000  0  5G 1G25G15G23G21
  18383373.758 9   3514675.94829  22495810.155        -759.612
   4266678.654 9  -5774454.76229  21236984.412          -2.206
  -6994246.209 7  -5314605.97224  24428275.787        1744.450
  15356773.751 8   6524125.01725  23322006.001       -2593.145
  17331875.493 9  -1924699.01029  20940294.386        -839.399
 96  7  1  4 22 30.0010000  0  5G 1G25G15G23G21
  18394764.384 9   3523551.77029  22497977.954        -759.156
   4266762.180 9  -5774389.67729  21236996.134          -8.861
  -7020357.797 7  -5334952.68624  24423309.035        1737.092
  15395717.182 7   6554470.55825  23329416.361       -2599.306
  17344530.993 9  -1914837.59829  20942701.120        -847.945
 96  7  1  4 22 45.0010000  0  5G 1G25G15G23G21
  18406147.709 9   3532421.90229  22500142.545        -758.591
   4266943.956 9  -5774248.02029  21237027.702         -15.363
  -7046358.092 7  -5355212.63725  24418355.115        1729.607
  15434753.304 7   6584888.28825  23336844.289       -2605.453
  17357313.725 9  -1904877.04329  20945135.195        -856.418
 96  7  1  4 23  0.0010000  0  5G 1G25G15G23G21
  18417522.629 9   3541285.48029  22502308.306        -758.081
   4267224.241 9  -5774029.61229  21237080.225         -22.004
  -7072246.935 7  -5375385.74024  24413429.135        1722.218
  15473882.149 7   6615378.27325  23344289.095       -2611.655
  17370223.634 9  -1894817.37629  20947594.962        -864.864
 96  7  1  4 23 15.0010000  0  5G 1G25G15G23G21
  18428890.910 9   3550143.89629  22504471.039        -757.723
   4267605.052 9  -5773732.88029  21237154.814         -28.799
  -7098024.355 7  -5395472.00624  24408527.858        1714.718
  15513103.396 7   6645940.25125  23351746.372       -2617.850
  17383261.676 9  -1884657.88429  20950074.006        -873.560
 96  7  1  4 23 30.0010000  0  5G 1G25G15G23G21
  18440252.064 9   3558996.75929  22506633.412        -757.054
   4268088.514 9  -5773356.15329  21237249.788         -35.628
  -7123688.946 7  -5415470.45524  24403645.198        1707.205
  15552418.186 7   6676575.15325  23359230.211       -2624.168
  17396429.460 9  -1874397.26729  20952583.029        -882.124
 96  7  1  4 23 45.0010000  0  5G 1G25G15G23G21
  18451600.793 9   3567839.93329  22508791.588        -756.156
   4268674.281 9  -5772899.69529  21237359.812         -42.483
  -7149241.633 7  -5435381.64824  24398784.603        1699.775
  15591828.415 7   6707284.42825  23366733.687       -2630.507
  17409725.828 9  -1864036.45929  20955111.748        -890.717
 96  7  1  4 24  0.0010000  0  5G 1G25G15G23G21
  18462936.100 9   3576672.64129  22510949.764        -755.321
   4269363.280 9  -5772362.81229  21237487.613         -49.383
  -7174681.972 7  -5455205.28824  24393936.899        1692.182
  15631334.565 7   6738068.42125  23374246.876       -2636.939
  17423149.376 9  -1853576.55229  20957664.960        -899.118
 96  7  1  4 24 15.0010000  0  5G 1G25G15G23G21
  18474260.965 9   3585497.21229  22513108.299        -754.785
   4270153.773 9  -5771746.84529  21237639.128         -56.039
  -7200009.387 7  -5474940.89725  24389119.234        1684.746
  15670936.425 7   6768927.01425  23381791.722       -2643.368
  17436698.181 9  -1843019.04329  20960244.225        -907.442
 96  7  1  4 24 30.0010000  0  5G 1G25G15G23G21
  18485579.707 9   3594317.02429  22515262.398        -754.412
   4271043.879 9  -5771053.24229  21237806.323         -62.699
  -7225223.916 7  -5494588.60125  24384317.698        1677.214
  15710635.779 7   6799861.54425  23389338.698       -2649.856
  17450371.403 9  -1832364.56629  20962843.785        -915.673
 96  7  1  4 24 45.0010000  0  5G 1G25G15G23G21
  18496893.697 9   3603133.10329  22517411.970        -754.134
   4272035.717 9  -5770280.37229  21238000.348         -69.621
  -7250325.311 7  -5514148.15325  24379547.460        1669.614
  15750431.714 7   6830871.31725  23396915.682       -2656.214
  17464169.319 9  -1821612.92029  20965471.196        -924.025
 96  7  1  4 25  0.0010000  0  5G 1G25G15G23G21
  18508202.720 9   3611945.33129  22519564.840        -753.843
   4273133.602 9  -5769424.86729  21238205.256         -76.809
  -7275314.156 7  -5533619.94925  24374791.763        1662.150
  15790320.458 7   6861953.48425  23404501.481       -2662.286
  17478092.005 9  -1810764.05429  20968119.863        -932.432
 96  7  1  4 25 15.0010000  0  5G 1G25G15G23G21
  18519509.599 9   3620755.89529  22521716.750        -753.741
   4274340.173 9  -5768484.68629  21238435.977         -84.057
  -7300189.791 7  -5553003.59225  24370059.539        1654.560
  15830300.890 7   6893107.05125  23412112.282       -2668.427
  17492142.137 9  -1799815.88129  20970791.403        -940.927
 96  7  1  4 25 30.0010000  0  5G 1G25G15G23G21
  18530812.283 9   3629563.17929  22523866.532        -753.235
   4275655.240 9  -5767459.94929  21238686.753         -91.218
  -7324951.533 7  -5572298.41225  24365345.302        1647.022
  15870372.419 7   6924331.62425  23419740.891       -2674.407
  17506319.619 9  -1788768.44829  20973493.702        -949.308
 96  7  1  4 25 45.0010000  0  5G 1G25G15G23G21
  18542107.034 9   3638364.25929  22526017.543        -752.767
   4277076.782 9  -5766352.23429  21238957.256         -98.290
  -7349599.958 7  -5591505.04024  24360653.461        1639.430
  15910533.555 7   6955626.02125  23427380.682       -2680.407
  17520620.859 9  -1777624.58829  20976215.039        -957.508
 96  7  1  4 26  0.0010000  0  5G 1G25G15G23G21
  18553395.859 9   3647160.73329  22528165.915        -752.448
   4278604.022 9  -5765162.17829  21239247.305        -105.282
  -7374134.791 7  -5610623.06124  24355989.259        1631.887
  15950784.143 7   6986990.13925  23435038.371       -2686.311
  17535045.236 9  -1766384.76529  20978956.611        -965.686
 96  7  1  4 26 15.0010000  0  5G 1G25G15G23G21
  18564680.936 9   3655954.29129  22530310.930        -752.261
   4280236.539 9  -5763890.08829  21239555.851        -112.348
  -7398555.227 7  -5629651.99824  24351339.359        1624.177
  15991121.766 7   7018422.02225  23442715.876       -2692.185
  17549592.800 9  -1755048.94029  20981728.941        -974.017
 96  7  1  4 26 30.0010000  0  5G 1G25G15G23G21
  18575963.743 9   3664746.07729  22532457.504        -752.070
   4281973.142 9  -5762536.87929  21239889.580        -119.209
  -7422860.796 7  -5648591.39524  24346712.002        1616.538
  16031546.836 7   7049922.05925  23450407.621       -2697.944
  17564265.374 9  -1743615.71229  20984515.752        -982.375
 96  7  1  4 26 45.0010000  0  5G 1G25G15G23G21
  18587241.602 9   3673534.01629  22534606.596        -751.613
   4283813.195 9  -5761103.06729  21240239.558        -126.078
  -7447051.530 7  -5667441.32025  24342110.518        1608.946
  16072058.833 7   7081489.87225  23458120.201       -2703.595
  17579064.548 9  -1732083.84529  20987335.750        -990.816
 96  7  1  4 27  0.0010000  0  5G 1G25G15G23G21
  18598512.291 9   3682316.37129  22536749.963        -751.193
   4285755.787 9  -5759589.36129  21240609.412        -132.957
  -7471128.078 7  -5686202.24025  24337526.931        1601.217
  16112655.448 7   7113123.60725  23465844.414       -2709.293
  17593992.509 9  -1720451.61529  20990173.945        -999.587
 96  7  1  4 27 15.0010000  0  5G 1G25G15G23G21
  18609776.141 9   3691093.37729  22538893.299        -750.692
   4287799.094 9  -5757997.16629  21240998.093        -139.488
  -7495089.442 7  -5704873.44825  24332964.299        1593.535
  16153337.997 7   7144824.29125  23473581.757       -2715.039
  17609052.780 9  -1708716.29329  20993041.160       -1008.464
 96  7  1  4 27 30.0020000  0  5G 1G25G15G23G21
  18621032.540 9   3699864.59829  22541035.466        -749.990
   4289938.788 9  -5756329.86629  21241404.222        -145.725
  -7518937.273 7  -5723456.16125  24328430.658        1585.978
  16194110.291 7   7176594.87625  23481344.943       -2720.785
  17624246.403 9  -1696877.07029  20995935.207       -1017.140
 96  7  1  4 27 45.0020000  0  6G 1G25G15G22G23G21
  18632280.070 9   3708628.90929  22543174.455        -749.693
   4292174.240 9  -5754587.95429  21241831.276        -152.285
  -7542667.786 7  -5741947.50125  24323919.321        1578.183
  -8702823.135 6  -4026252.94725  24561535.123        3144.776
  16234968.002 7   7208432.06325  23489117.692       -2726.760
  17639570.730 9  -1684936.01729  20998850.119       -1025.976
 96  7  1  4 28  0.0020000  0  6G 1G25G15G22G23G21
  18643524.721 9   3717390.97329  22545317.312        -749.656
   4294507.371 9  -5752769.92029  21242270.142        -158.850
  -7566282.300 7  -5760348.40525  24319420.785        1570.356
  -8750002.761 6  -4063016.22425  24552565.393        3145.822
  16275914.416 7   7240338.37625  23496912.566       -2732.767
  17655027.491 9  -1672891.76629  21001788.474       -1034.978
 96  7  1  4 28 15.0020000  0  6G 1G25G15G22G23G21
  18654766.201 9   3726150.56529  22547456.481        -749.290
   4296937.372 9  -5750876.41329  21242734.791        -165.209
  -7589781.659 7  -5778659.56725  24314946.893        1562.784
  -8797201.671 6  -4099794.58425  24543588.287        3147.261
  16316946.813 7   7272311.70025  23504720.121       -2738.258
  17670618.869 9  -1660742.63729  21004754.771       -1043.977
 96  7  1  4 28 30.0020000  0  6G 1G25G15G22G23G21
  18666003.590 9   3734906.97729  22549592.112        -749.079
   4299464.599 9  -5748907.13429  21243219.045        -171.734
  -7613165.526 7  -5796880.78425  24310494.825        1555.071
  -8844418.567 6  -4136586.94625  24534600.659        3148.356
  16358063.840 7   7304350.91825  23512545.274       -2744.039
  17686349.959 9  -1648484.63029  21007749.698       -1053.481
 96  7  1  4 28 45.0020000  0  6G 1G25G15G22G23G21
  18677237.788 9   3743660.89729  22551732.061        -748.786
   4302090.423 9  -5746861.04029  21243714.902        -178.400
  -7636433.591 7  -5815011.73125  24306071.537        1547.325
  -8891651.354 6  -4173391.64625  24525618.278        3149.360
  16399267.247 7   7336457.48625  23520380.829       -2749.691
  17702224.177 9  -1636115.09729  21010772.925       -1063.073
 96  7  1  4 29  0.0020000  0  6G 1G25G15G22G23G21
  18688466.312 9   3752410.38129  22553868.352        -748.394
   4304817.241 9  -5744736.25229  21244237.470        -185.127
  -7659585.622 7  -5833052.26225  24301669.444        1539.589
  -8938899.496 6  -4210208.35925  24516624.294        3150.448
  16440554.770 7   7368629.57125  23528233.413       -2755.276
  17718241.778 9  -1623633.84229  21013817.857       -1072.492
 96  7  1  4 29 15.0020000  0  6G 1G25G15G22G23G21
  18699689.580 9   3761155.78529  22556007.251        -747.980
   4307645.031 9  -5742532.75829  21244773.469        -191.815
  -7682620.752 7  -5851001.73625  24297276.675        1531.812
  -8986162.526 6  -4247036.66925  24507633.398        3151.333
  16481926.683 7   7400867.42025  23536114.117       -2760.902
  17734398.840 9  -1611043.91829  21016895.406       -1081.670
 96  7  1  4 29 30.0020000  0  6G 1G25G15G22G23G21
  18710904.826 9   3769894.94029  22558135.838        -747.368
   4310572.295 9  -5740251.77529  21245329.854        -198.528
  -7705539.244 7  -5868860.34025  24292922.190        1524.068
  -9033441.512 6  -4283877.40125  24498635.518        3152.444
  16523380.228 7   7433168.86525  23543999.348       -2766.193
  17750690.835 9  -1598348.84129  21019995.530       -1090.518
 96  7  1  4 29 45.0020000  0  6G 1G25G15G22G23G21
  18722110.641 9   3778626.73629  22560275.666        -746.767
   4313603.393 9  -5737889.88029  21245908.244        -205.578
  -7728340.600 7  -5886627.63625  24288574.870        1516.182
  -9080736.280 7  -4320730.49525  24489635.148        3153.517
  16564914.567 7   7465533.27725  23551906.434       -2771.619
  17767114.543 9  -1585551.14029  21023116.879       -1099.263
 96  7  1  4 30  0.0020000  0  6G 1G25G15G22G23G21
  18733307.817 9   3787351.80229  22562400.355        -746.138
   4316740.640 9  -5735445.26229  21246504.981        -212.567
  -7751024.216 7  -5904303.15825  24284261.815        1508.365
  -9128044.712 7  -4357594.14925  24480627.314        3154.295
  16606529.751 7   7497960.69425  23559828.930       -2776.979
  17783669.180 9  -1572651.43729  21026270.306       -1107.888
 96  7  1  4 30 15.0020000  0  6G 1G25G15G22G23G21
  18744492.772 9   3796067.34529  22564531.490        -745.247
   4319978.730 9  -5732922.06629  21247121.714        -219.196
  -7773591.795 7  -5921888.26225  24279975.952        1500.604
  -9175364.682 7  -4394466.83425  24471620.889        3155.020
  16648224.483 7   7530450.08425  23567756.102       -2782.329
  17800351.207 9  -1559652.44529  21029446.337       -1116.359
 96  7  1  4 30 30.0020000  0  6G 1G25G15G22G23G21
  18755663.588 9   3804771.86829  22566651.202        -744.261
   4323316.402 9  -5730321.28629  21247760.511        -225.827
  -7796042.235 7  -5939382.10525  24275699.053        1492.749
  -9222694.780 7  -4431347.40225  24462620.460        3155.744
  16690001.452 7   7563003.54625  23575704.859       -2787.921
  17817159.643 9  -1546554.94429  21032640.416       -1124.702
 96  7  1  4 30 45.0020000  0  6G 1G25G15G22G23G21
  18766820.978 9   3813465.92629  22568773.553        -743.369
   4326753.218 9  -5727643.24329  21248414.359        -232.379
  -7818374.814 7  -5956784.20025  24271449.315        1484.978
  -9270035.742 7  -4468236.44425  24453608.789        3156.453
  16731864.574 7   7595624.14426  23583674.722       -2793.777
  17834090.020 9  -1533362.44229  21035862.555       -1132.557
 96  7  1  4 31  0.0020000  0  6G 1G25G15G22G23G21
  18777964.343 9   3822149.04129  22570897.823        -742.348
   4330288.567 9  -5724888.42029  21249083.076        -238.811
  -7840589.636 7  -5974094.43125  24267217.745        1477.157
  -9317387.995 7  -4505134.26525  24444602.754        3157.401
  16773814.544 7   7628312.39526  23591660.024       -2799.419
  17851134.827 9  -1520080.75829  21039105.380       -1139.938
 96  7  1  4 31 15.0020000  0  6G 1G25G15G22G23G21
  18789093.135 9   3830820.82029  22573018.884        -741.562
   4333918.232 9  -5722060.10629  21249771.729        -245.116
  -7862687.603 7  -5991313.60925  24263015.854        1469.266
  -9364755.810 7  -4542044.24125  24435586.046        3158.458
  16815851.203 7   7661068.22126  23599655.968       -2805.448
  17868288.856 9  -1506713.98529  21042371.409       -1147.291
 96  7  1  4 31 30.0020000  0  6G 1G25G15G22G23G21
  18800211.301 9   3839484.30429  22575134.520        -740.881
   4337642.277 9  -5719158.25529  21250480.019        -251.426
  -7884667.389 7  -6008440.73425  24258833.119        1461.362
  -9412141.725 7  -4578968.34825  24426572.636        3159.706
  16857977.212 7   7693893.65626  23607674.097       -2811.396
  17885554.743 9  -1493260.02829  21045658.094       -1154.888
 96  7  1  4 31 45.0020000  0  6G 1G25G15G22G23G21
  18811321.194 9   3848141.36929  22577248.566        -740.457
   4341462.884 9  -5716181.14729  21251212.592        -257.929
  -7906529.045 7  -6025475.76325  24254675.178        1453.555
  -9459545.798 7  -4615906.57925  24417553.739        3160.861
  16900193.920 7   7726789.78526  23615704.008       -2817.448
  17902936.645 9  -1479715.67129  21048964.505       -1162.676
 96  7  1  4 32  0.0020000  0  6G 1G25G15G22G23G21
  18822426.595 9   3856794.91129  22579358.655        -740.288
   4345380.146 9  -5713128.72629  21251957.306        -264.345
  -7928272.607 7  -6042418.84325  24250540.260        1445.562
  -9506967.919 7  -4652858.82425  24408523.271        3162.150
  16942503.753 7   7759758.47326  23623758.562       -2823.819
  17920437.618 9  -1466078.54929  21052293.011       -1170.811
 96  7  1  4 32 15.0020000  0  6G 1G25G15G22G23G21
  18833528.535 9   3865445.80029  22581474.201        -740.020
   4349392.223 9  -5710002.42729  21252716.141        -270.608
  -7949897.337 7  -6059269.27425  24246420.063        1437.678
  -9554410.718 7  -4689827.23625  24399493.012        3163.620
  16984908.372 7   7792801.04326  23631828.016       -2830.115
  17938061.084 9  -1452345.98829  21055650.986       -1179.072
 96  7  1  4 32 30.0020000  0  6G 1G25G15G22G23G21
  18844626.394 9   3874093.46129  22583584.530        -739.732
   4353501.306 9  -5706800.54529  21253501.627        -277.213
  -7971402.584 7  -6076026.58125  24242326.996        1429.704
  -9601877.023 7  -4726813.92925  24390465.062        3165.266
  17027408.169 7   7825917.77426  23639915.337       -2836.461
  17955811.779 9  -1438514.26629  21059027.309       -1187.687
 96  7  1  4 32 45.0020000  0  6G 1G25G15G22G23G21
  18855719.601 9   3882737.51529  22585696.178        -739.451
   4357708.689 9  -5703522.06329  21254299.764        -283.835
  -7992789.233 7  -6092691.51525  24238261.001        1421.714
  -9649369.457 7  -4763821.03025  24381431.086        3166.895
  17070000.361 7   7859106.45626  23648022.175       -2842.523
  17973692.053 9  -1424581.57529  21062430.523       -1196.442
 96  7  1  4 33  0.0020000  0  6G 1G25G15G22G23G21
  18866809.098 9   3891378.68129  22587802.520        -739.169
   4362016.286 9  -5700165.49929  21255121.166        -290.582
  -8014056.611 7  -6109263.49925  24234215.662        1413.835
  -9696885.158 7  -4800846.21925  24372386.438        3168.532
  17112683.920 7   7892366.37226  23656144.002       -2848.548
  17991706.304 9  -1410544.51529  21065858.769       -1205.513
 96  7  1  4 33 15.0020000  0  6G 1G25G15G22G23G21
  18877894.913 9   3900016.98829  22589909.731        -738.897
   4366426.205 9  -5696729.19429  21255960.795        -297.310
  -8035204.982 7  -6125742.76025  24230187.560        1405.948
  -9744424.878 7  -4837890.13925  24363339.001        3170.101
  17155457.722 7   7925696.59326  23664283.547       -2854.528
  18009859.651 9  -1396399.05229  21069314.687       -1214.867
 96  7  1  4 33 30.0020000  0  6G 1G25G15G22G23G21
  18888976.957 9   3908652.34929  22592028.634        -738.701
   4370938.227 9  -5693213.33129  21256818.591        -304.281
  -8056234.564 7  -6142129.44225  24226186.380        1397.902
  -9791986.479 7  -4874951.11625  24354287.458        3171.322
  17198320.818 7   7959096.40226  23672433.555       -2860.483
  18028154.971 9  -1382142.94529  21072793.209       -1224.526
 96  7  1  4 33 45.0020000  0  6G 1G25G15G22G23G21
  18900053.854 9   3917283.69029  22594132.727        -738.286
   4375553.924 9  -5689616.67829  21257694.165        -311.111
  -8077144.475 7  -6158422.89325  24222207.864        1390.009
  -9839565.318 7  -4912025.54625  24345231.507        3172.407
  17241272.912 7   7992565.56825  23680611.324       -2866.410
  18046594.279 9  -1367774.65129  21076303.539       -1234.039
 96  7  1  4 34  0.0020000  0  6G 1G25G15G22G23G21
  18911124.473 9   3925910.12029  22596238.590        -737.731
   4380272.728 9  -5685939.68729  21258597.050        -317.914
  -8097934.128 7  -6174622.60325  24218249.195        1381.938
  -9887157.793 7  -4949110.52025  24336180.113        3173.293
  17284312.907 7   8026103.24425  23688800.335       -2872.117
  18065176.927 9  -1353294.67529  21079840.580       -1243.534
 96  7  1  4 34 15.0020000  0  6G 1G25G15G22G23G21
  18922183.809 9   3934527.76929  22598343.942        -736.903
   4385089.882 9  -5682186.05429  21259511.986        -324.437
  -8118604.754 7  -6190729.58025  24214315.468        1374.065
  -9934765.177 7  -4986207.18925  24327116.668        3174.241
  17327437.127 7   8059706.56625  23697008.532       -2877.747
  18083899.644 9  -1338705.55729  21083404.932       -1252.850
 96  7  1  4 34 30.0020000  0  6G 1G25G15G22G23G21
  18933232.023 9   3943136.76829  22600446.147        -736.273
   4390006.237 9  -5678355.12729  21260449.137        -331.132
  -8139154.772 7  -6206742.56626  24210409.682        1365.933
  -9982381.731 7  -5023310.99825  24318060.477        3174.544
  17370645.168 7   8093375.17825  23705232.049       -2883.330
  18102761.997 9  -1324007.61029  21086990.870       -1262.161
 96  7  1  4 34 45.0020000  0  6G 1G25G15G22G23G21
  18944271.044 9   3951738.59029  22602550.510        -735.778
   4395020.937 9  -5674447.56429  21261404.306        -337.536
  -8159584.491 7  -6222661.81626  24206512.050        1357.959
 -10030002.722 7  -5060418.22925  24308992.415        3174.789
  17413934.458 7   8127107.10125  23713469.956       -2888.699
  18121759.697 9  -1309204.21229  21090606.097       -1270.911
 96  7  1  4 35  0.0020000  0  6G 1G25G15G22G23G21
  18955303.663 9   3960335.42629  22604648.098        -735.264
   4400132.120 9  -5670464.82829  21262371.556        -343.949
  -8179894.196 7  -6238487.57126  24202656.959        1350.026
 -10077625.587 7  -5097526.96825  24299931.997        3174.931
  17457304.795 7   8160902.16625  23721716.857       -2893.991
  18140887.481 9  -1294299.44929  21094248.396       -1279.392
 96  7  1  4 35 15.0020000  0  6G 1G25G15G22G23G21
  18966330.918 9   3968928.07129  22606748.744        -735.009
   4405340.967 9  -5666405.98129  21263365.129        -350.441
  -8200083.258 7  -6254219.29326  24198809.423        1341.864
 -10125249.761 7  -5134636.68525  24290874.937        3174.912
  17500755.698 7   8194760.01125  23729985.223       -2899.419
  18160142.763 9  -1279295.32729  21097912.429       -1287.901
 96  7  1  4 35 30.0020000  0  6G 1G25G15G22G23G21
  18977353.490 9   3977517.04829  22608841.265        -734.655
   4410643.168 9  -5662274.39429  21264377.468        -356.466
  -8220151.597 7  -6269856.96526  24194994.294        1333.911
 -10172873.821 7  -5171746.33325  24281808.014        3174.976
  17544284.545 6   8228678.55525  23738274.515       -2904.405
  18179522.076 9  -1264194.56229  21101597.298       -1295.959
 96  7  1  4 35 45.0020000  0  6G 1G25G15G22G23G21
  18988370.421 9   3986101.64829  22610940.112        -734.313
   4416035.842 9  -5658072.31729  21265402.998        -362.553
  -8240100.507 7  -6285401.56826  24191195.924        1325.924
 -10220498.776 7  -5208856.65525  24272744.389        3175.078
  17587888.543 6   8262655.70925  23746568.243       -2909.510
  18199022.660 9  -1248999.30929  21105308.159       -1304.130
 96  7  1  4 36  0.0020000  0  6G 1G25G15G22G23G21
  18999384.256 9   3994683.84729  22613032.933        -734.256
   4421520.215 9  -5653798.77229  21266443.248        -368.683
  -8259929.214 7  -6300852.49926  24187423.785        1317.886
 -10268124.783 7  -5245967.79125  24263685.470        3175.091
  17631570.331 6   8296693.44325  23754888.293       -2914.672
  18218647.537 9  -1233707.20129  21109042.614       -1312.558
 96  7  1  4 36 15.0020000  0  6G 1G25G15G22G23G21
  19010396.055 9   4003264.44529  22615128.962        -734.043
   4427097.297 9  -5649452.99729  21267503.254        -374.972
  -8279637.018 7  -6316209.21626  24183668.675        1309.764
 -10315751.567 7  -5283079.56125  24254615.189        3175.124
  17675329.975 6   8330791.83725  23763211.191       -2919.926
  18238398.734 9  -1218316.66629  21112803.061       -1320.963
 96  7  1  4 36 30.0020000  0  6G 1G25G15G22G23G21
  19021405.549 9   4011843.24029  22617222.143        -733.938
   4432769.529 9  -5645033.06129  21268585.355        -381.349
  -8299223.910 7  -6331471.72826  24179945.762        1301.763
 -10363380.153 7  -5320192.72725  24245556.061        3175.356
  17719169.294 6   8364952.28925  23771546.980       -2925.300
  18258276.041 9  -1202827.87629  21116589.469       -1329.398
 96  7  1  4 36 45.0020000  0  6G 1G25G15G22G23G21
  19032415.334 9   4020422.26629  22619323.208        -734.088
   4438538.672 9  -5640537.63229  21269681.486        -387.950
  -8318689.515 7  -6346639.73726  24176248.152        1293.582
 -10411011.334 7  -5357307.90925  24236491.116        3175.481
  17763090.253 6   8399176.39225  23779910.650       -2930.842
  18278281.189 9  -1187239.46129  21120391.377       -1338.076
 96  7  1  4 37  0.0020000  0  6G 1G25G15G22G23G21
  19043425.278 9   4029001.42729  22621413.032        -733.957
   4444405.902 9  -5635965.77329  21270799.262        -394.434
  -8338033.657 7  -6361713.09926  24172561.844        1285.576
 -10458647.251 7  -5394426.78825  24227428.930        3175.902
  17807095.149 7   8433465.89025  23788283.224       -2936.538
  18298416.944 9  -1171549.27129  21124223.774       -1346.846
 96  7  1  4 37 15.0020000  0  6G 1G25G15G22G23G21
  19054431.380 9   4037577.61529  22623511.759        -733.600
   4450370.577 9  -5631317.95729  21271934.037        -400.870
  -8357256.422 7  -6376691.88626  24168905.695        1277.470
 -10506289.169 7  -5431550.32025  24218358.859        3176.408
  17851184.674 6   8467821.35725  23796679.871       -2942.151
  18318687.630 9  -1155753.94329  21128081.653       -1355.967
 96  7  1  4 37 30.0020000  0  6G 1G25G15G22G23G21
  19065432.716 9   4046150.08929  22625601.882        -733.268
   4456431.053 9  -5626595.51029  21273082.691        -407.203
  -8376357.521 7  -6391575.86126  24165267.294        1269.354
 -10553939.058 7  -5468680.11125  24209294.214        3176.973
  17895359.921 7   8502243.61225  23805079.007       -2947.909
  18339096.615 9  -1139850.85329  21131967.174       -1365.200
 96  7  1  4 37 45.0020000  0  6G 1G25G15G22G23G21
  19076428.900 9   4054718.54129  22627695.273        -732.953
   4462588.101 9  -5621797.81729  21274259.557        -413.821
  -8395337.425 7  -6406365.38926  24161656.653        1261.306
 -10601598.762 7  -5505817.52525  24200220.996        3177.666
  17939624.879 7   8536735.78825  23813504.794       -2954.008
  18359643.691 9  -1123840.13329  21135875.868       -1374.462
 96  7  1  4 38  0.0020000  0  6G 1G25G15G22G23G21
  19087420.637 9   4063283.54729  22629785.935        -732.663
   4468847.065 9  -5616920.69429  21275448.683        -420.661
  -8414194.843 7  -6421059.50726  24158074.043        1253.133
 -10649269.864 7  -5542963.82525  24191151.165        3178.471
  17983983.614 7   8571300.98225  23821943.742       -2960.319
  18380331.113 9  -1107720.07929  21139810.674       -1383.784
 96  7  1  4 38 15.0020000  0  6G 1G25G15G22G23G21
  19098407.074 9   4071844.40329  22631880.315        -732.209
   4475209.060 9  -5611963.29329  21276662.213        -427.560
  -8432930.097 7  -6435658.40826  24154497.309        1244.952
 -10696951.371 7  -5580118.24525  24182076.777        3179.095
  18028432.620 7   8605936.53125  23830403.915       -2966.205
  18401155.911 9  -1091492.97429  21143773.690       -1392.820
 96  7  1  4 38 30.0020000  0  6G 1G25G15G22G23G21
  19109385.990 9   4080399.39029  22633967.081        -731.741
   4481674.544 9  -5606925.24929  21277890.883        -434.489
  -8451543.588 7  -6450162.42326  24150958.979        1236.826
 -10744643.971 7  -5617281.28725  24173000.260        3179.877
  18072969.504 7   8640640.59425  23838877.429       -2972.023
  18422114.517 9  -1075161.60429  21147760.750       -1401.692
 96  7  1  4 38 45.0020000  0  6G 1G25G15G22G23G21
  19120362.114 9   4088952.21729  22636056.064        -731.713
   4488242.964 9  -5601807.01929  21279138.859        -441.226
  -8470033.832 7  -6464570.40426  24147434.679        1228.580
 -10792344.762 7  -5654450.68325  24163925.542        3180.289
  18117594.642 7   8675413.41225  23847370.189       -2977.953
  18443208.353 9  -1058724.86929  21151776.800       -1410.773
 96  7  1  4 39  0.0020000  0  6G 1G25G15G22G23G21
  19131336.741 9   4097503.90829  22638143.669        -731.621
   4494910.484 9  -5596611.54829  21280409.739        -447.856
  -8488401.244 7  -6478882.67426  24143952.140        1220.371
 -10840054.343 7  -5691626.97625  24154843.959        3180.909
  18162306.535 7   8710253.85125  23855879.079       -2983.637
  18464437.488 9  -1042182.68229  21155814.404       -1419.802
 96  7  1  4 39 15.0020000  0  6G 1G25G15G22G23G21
  19142308.803 9   4106053.57729  22640228.756        -731.460
   4501675.743 9  -5591339.91429  21281698.697        -454.257
  -8506646.225 7  -6493099.53626  24140477.305        1212.202
 -10887773.355 6  -5728810.65825  24145765.135        3181.534
  18207100.977 7   8745158.61425  23864400.649       -2989.082
  18485800.003 9  -1025536.57629  21159883.398       -1428.600
 96  7  1  4 39 30.0020000  0  6G 1G25G15G22G23G21
  19153280.175 9   4114602.71829  22642317.560        -731.473
   4508537.044 9  -5585993.44829  21283003.933        -460.676
  -8524767.863 7  -6507220.31626  24137026.784        1204.003
 -10935502.106 6  -5766001.87625  24136680.914        3182.254
  18251976.126 7   8780126.23725  23872943.835       -2994.349
  18507293.469 9  -1008788.42729  21163971.487       -1437.215
 96  7  1  4 39 45.0020000  0  6G 1G25G15G22G23G21
  19164251.250 9   4123151.62629  22644405.824        -731.399
   4515495.779 9  -5580571.06429  21284327.966        -467.192
  -8542766.723 7  -6521245.40626  24133601.655        1195.871
 -10983238.891 6  -5803199.33525  24127596.093        3182.612
  18296929.888 7   8815155.12825  23881498.503       -2999.512
  18528914.080 9   -991941.20329  21168086.589       -1445.562
 96  7  1  4 40  0.0020000  0  6G 1G25G15G22G23G21
  19175222.284 9   4131700.51129  22646493.129        -731.394
   4522552.118 9  -5575072.62129  21285670.227        -473.548
  -8560642.046 7  -6535174.22826  24130190.167        1187.548
 -11030979.862 7  -5840400.06925  24118512.291        3182.826
  18341959.762 7   8850243.32125  23890067.860       -3004.391
  18550661.604 9   -974995.09729  21172224.594       -1454.115
 96  7  1  4 40 15.0020000  0  6G 1G25G15G22G23G21
  19186191.558 9   4140248.02829  22648582.952        -731.264
   4529700.736 9  -5569502.27229  21287030.206        -479.628
  -8578394.656 7  -6549007.43426  24126821.969        1179.364
 -11078722.651 7  -5877602.21825  24109429.809        3182.766
  18387060.660 7   8885386.86425  23898650.678       -3009.141
  18572537.633 9   -957948.85529  21176389.700       -1462.767
 96  7  1  4 40 30.0020000  0  6G 1G25G15G22G23G21
  19197159.891 9   4148794.79729  22650669.658        -731.164
   4536939.618 9  -5563861.59829  21288408.651        -485.431
  -8596022.872 7  -6562743.70026  24123470.829        1171.109
 -11126463.015 6  -5914802.46825  24100342.470        3182.745
  18432235.420 7   8920587.97025  23907246.358       -3014.125
  18594544.142 9   -940800.94029  21180574.713       -1471.454
 96  7  1  4 40 45.0020000  0  6G 1G25G15G22G23G21
  19208126.665 9   4157340.34629  22652754.834        -731.015
   4544263.120 9  -5558154.96229  21289801.367        -490.921
  -8613528.261 7  -6576384.23426  24120143.252        1162.954
 -11174205.315 7  -5952004.23325  24091258.789        3182.889
  18477485.531 7   8955847.79025  23915855.108       -3019.134
  18616682.460 9   -923550.30829  21184783.709       -1480.307
 96  7  1  4 41  0.0020000  0  6G 1G25G15G22G23G21
  19219092.054 9   4165884.82829  22654845.287        -730.957
   4551669.098 9  -5552384.07229  21291208.533        -496.624
  -8630910.289 7  -6589928.70326  24116828.027        1154.640
 -11221949.134 7  -5989207.21025  24082176.966        3182.979
  18522812.025 7   8991167.11925  23924476.210       -3024.443
  18638955.119 9   -906194.99629  21189026.582       -1489.332
 96  7  1  4 41 15.0020000  0  6G 1G25G15G22G23G21
  19230053.583 9   4174426.29829  22656927.585        -730.606
   4559161.504 9  -5546545.83529  21292635.815        -502.414
  -8648168.764 7  -6603376.88226  24113548.897        1146.496
 -11269695.106 7  -6026411.84825  24073087.588        3183.105
  18568214.743 7   9026545.86325  23933124.982       -3029.297
  18661360.593 9   -888736.21229  21193289.631       -1498.005
 96  7  1  4 41 30.0020000  0  6G 1G25G15G22G23G21
  19241009.977 9   4182963.78329  22659010.933        -730.245
   4566740.355 9  -5540640.22929  21294080.994        -508.156
  -8665303.973 7  -6616728.97826  24110283.588        1138.207
 -11317440.244 7  -6063615.84325  24063999.140        3182.901
  18613693.805 6   9061984.09025  23941775.104       -3034.502
  18683896.600 9   -871175.69029  21197576.633       -1506.738
 96  7  1  4 41 45.0020000  0  6G 1G25G15G22G23G21
  19251960.196 9   4191496.44929  22661097.788        -729.840
   4574407.411 9  -5534665.90229  21295538.795        -514.200
  -8682315.401 7  -6629984.63626  24107041.033        1129.853
 -11365181.386 7  -6100816.70825  24054913.900        3182.532
  18659252.238 7   9097484.18125  23950446.751       -3039.990
  18706563.624 9   -853513.09229  21201888.398       -1515.620
 96  7  1  4 42  0.0020000  0  6G 1G25G15G22G23G21
  19262903.674 9   4200023.88129  22663175.290        -729.299
   4582163.226 9  -5528622.41129  21297016.232        -519.870
  -8699202.253 7  -6643143.21026  24103833.253        1121.663
 -11412917.038 7  -6138013.30725  24045834.415        3182.231
  18704892.366 7   9133047.91425  23959136.085       -3045.413
  18729363.986 9   -835746.59029  21206231.072       -1524.473
 96  7  1  4 42 15.0020000  0  6G 1G25G15G22G23G21
  19273838.918 9   4208544.88829  22665257.529        -728.746
   4590003.938 9  -5522512.76829  21298504.102        -525.580
  -8715965.688 7  -6656205.61326  24100644.181        1113.513
 -11460650.482 7  -6175208.16825  24036760.657        3182.159
  18750614.950 7   9168675.87225  23967826.559       -3050.951
  18752298.486 9   -817875.57329  21210595.151       -1533.438
 96  7  1  4 42 30.0020000  0  6G 1G25G15G22G23G21
  19284765.720 9   4217059.33229  22667339.857        -728.146
   4597932.791 9  -5516334.42629  21300014.637        -531.542
  -8732605.107 7  -6669171.44726  24097479.752        1105.179
 -11508382.538 6  -6212401.93925  24027663.335        3182.204
  18796422.734 6   9204370.21625  23976543.115       -3056.611
  18775367.125 9   -799900.04229  21214983.273       -1542.293
 96  7  1  4 42 45.0020000  0  6G 1G25G15G22G23G21
  19295684.758 9   4225567.72129  22669415.380        -727.727
   4605953.356 9  -5510084.63329  21301542.769        -537.935
  -8749119.783 7  -6682040.02226  24094336.188        1096.744
 -11556115.041 7  -6249596.09625  24018583.611        3182.161
  18842315.109 6   9240130.55025  23985282.754       -3062.134
  18798569.662 9   -781820.14729  21219399.845       -1551.337
 96  7  1  4 43  0.0020000  0  6G 1G25G15G22G23G21
  19306595.827 9   4234069.89229  22671495.400        -727.057
   4614069.455 9  -5503760.41029  21303086.670        -544.174
  -8765509.611 7  -6694811.32326  24091219.306        1088.593
 -11603846.580 7  -6286789.48126  24009499.749        3182.050
  18888288.400 7   9275953.87425  23994028.720       -3067.472
  18821905.508 9   -763636.37129  21223840.371       -1559.990
 96  7  1  4 43 15.0020000  0  6G 1G25G15G22G23G21
  19317497.104 9   4242564.41629  22673568.285        -726.479
   4622281.699 9  -5497361.25929  21304649.188        -550.823
  -8781775.899 7  -6707486.33326  24088120.201        1080.195
 -11651575.104 7  -6323980.53026  24000424.072        3181.687
  18934340.175 7   9311838.38225  24002789.225       -3072.826
  18845369.538 9   -745352.72729  21228304.970       -1568.485
 96  7  1  4 43 30.0020000  0  6G 1G25G15G22G23G21
  19328389.082 9   4251051.70229  22675639.342        -725.867
   4630591.627 9  -5490885.98429  21306227.955        -557.197
  -8797917.437 7  -6720064.16626  24085054.494        1071.923
 -11699297.261 7  -6361166.60226  23991337.872        3181.234
  18980471.618 7   9347785.00925  24011570.985       -3078.140
  18868960.179 9   -726970.40929  21232795.262       -1576.985
 96  7  1  4 43 45.0020000  0  6G 1G25G15G22G23G21
  19339271.477 9   4259531.51529  22677713.366        -725.160
   4638996.190 9  -5484336.97229  21307827.678        -563.419
  -8813933.714 7  -6732544.37825  24082002.397        1063.573
 -11747012.887 7  -6398347.57926  23982258.868        3180.902
  19026683.930 7   9383794.56825  24020365.217       -3083.469
  18892679.124 9   -708488.12829  21237310.106       -1585.604
 96  7  1  4 44  0.0020000  0  6G 1G25G15G22G23G21
  19350144.771 9   4268004.25529  22679781.244        -724.593
   4647495.292 9  -5477714.29729  21309444.608        -569.718
  -8829825.031 7  -6744927.24125  24078977.851        1055.299
 -11794724.375 7  -6435525.33626  23973179.353        3180.682
  19072977.265 7   9419867.29425  24029176.747       -3088.843
  18916529.456 9   -689903.48429  21241846.895       -1594.372
 96  7  1  4 44 15.0020000  0  6G 1G25G15G22G23G21
  19361010.045 9   4276470.71929  22681848.043        -724.153
   4656089.848 9  -5471017.23629  21311079.826        -576.244
  -8845592.180 7  -6757213.30925  24075970.542        1046.962
 -11842433.570 7  -6472701.33126  23964095.912        3180.466
  19119348.854 7   9456001.03825  24037996.701       -3094.096
  18940510.018 9   -671217.34429  21246411.116       -1603.035
 96  7  1  4 44 30.0020000  0  6G 1G25G15G22G23G21
  19371868.765 9   4284932.06129  22683912.864        -723.740
   4664784.201 9  -5464242.41229  21312736.929        -583.023
  -8861234.036 7  -6769401.77325  24072993.663        1038.533
 -11890139.046 7  -6509874.44326  23955024.312        3180.215
  19165798.706 7   9492195.69925  24046835.272       -3099.285
  18964619.155 9   -652431.00529  21250999.649       -1611.478
 96  7  1  4 44 45.0020000  0  6G 1G25G15G22G23G21
  19382721.684 9   4293388.89229  22685982.991        -723.375
   4673577.789 9  -5457390.26629  21314406.563        -589.464
  -8876751.054 7  -6781493.00025  24070052.250        1030.295
 -11937840.627 7  -6547044.44126  23945943.808        3179.915
  19212323.949 7   9528449.12025  24055687.574       -3104.183
  18988853.229 9   -633547.33229  21255612.046       -1619.842
 96  7  1  4 45  0.0020000  0  6G 1G25G15G22G23G21
  19393570.689 9   4301842.66929  22688047.032        -723.186
   4682468.001 9  -5450462.83329  21316099.371        -595.842
  -8892143.060 7  -6793486.75025  24067120.459        1022.008
 -11985535.316 7  -6584209.13426  23936871.669        3179.318
  19258925.638 6   9564762.12125  24064556.454       -3109.357
  19013213.751 9   -614565.11429  21260243.150       -1628.186
 96  7  1  4 45 15.0020000  0  6G 1G25G15G22G23G21
  19404417.606 9   4310294.82929  22690109.304        -723.081
   4691452.220 9  -5443462.14629  21317811.336        -602.067
  -8907409.555 7  -6805382.70925  24064220.147        1013.569
 -12033221.192 7  -6621366.95326  23927790.385        3178.779
  19305606.671 6   9601136.92925  24073438.555       -3114.800
  19037698.976 9   -595485.72429  21264903.873       -1636.543
 96  7  1  4 45 30.0020000  0  6G 1G25G15G22G23G21
  19415262.301 9   4318745.25829  22692172.326        -722.997
   4700529.394 9  -5436389.02229  21319539.490        -608.235
  -8922550.828 7  -6817181.09125  24061333.925        1005.213
 -12080900.538 7  -6658519.65026  23918722.863        3178.432
  19352369.312 6   9637575.36025  24082341.222       -3120.285
  19062309.875 9   -576308.41029  21269586.781       -1645.102
 96  7  1  4 45 45.0020000  0  6G 1G25G15G22G23G21
  19426106.804 9   4327195.51529  22694238.705        -722.984
   4709697.276 9  -5429245.21029  21321282.693        -614.158
  -8937566.652 7  -6828881.75125  24058469.918         996.867
 -12128574.904 7  -6695668.52726  23909649.404        3178.212
  19399214.306 6   9674077.95525  24091251.504       -3125.656
  19087052.109 9   -557028.76429  21274295.831       -1653.858
 96  7  1  4 46  0.0020000  0  6G 1G25G15G22G23G21
  19436952.365 9   4335646.61129  22696301.188        -723.124
   4718956.629 9  -5422030.13629  21323043.584        -620.428
  -8952457.012 7  -6840484.61925  24055641.676         988.525
 -12176246.003 7  -6732814.79626  23900580.023        3177.934
  19446141.410 7   9710644.54425  24100185.799       -3131.224
  19111926.148 9   -537646.40629  21279027.786       -1662.685
 96  7  1  4 46 15.0020000  0  6G 1G25G15G22G23G21
  19447799.421 9   4344098.86729  22698363.670        -723.219
   4728310.776 9  -5414741.18129  21324824.081        -626.756
  -8967221.895 7  -6851989.75025  24052829.413         980.143
 -12223912.365 7  -6769957.41426  23891506.264        3177.537
  19493148.959 7   9747273.75825  24109126.989       -3136.530
  19136931.443 9   -518161.77829  21283790.648       -1671.328
 96  7  1  4 46 30.0020000  0  6G 1G25G15G22G23G21
  19458646.019 9   4352550.74329  22700424.953        -723.082
   4737756.292 9  -5407381.04429  21326622.027        -632.613
  -8981861.364 7  -6863397.09525  24050055.493         971.776
 -12271573.861 7  -6807096.21726  23882438.712        3177.288
  19540237.316 7   9783965.99925  24118091.743       -3141.937
  19162066.191 9   -498576.27829  21288574.017       -1680.028
 96  7  1  4 46 45.0020000  0  6G 1G25G15G22G23G21
  19469492.296 9   4361002.37129  22702492.771        -723.178
   4747287.277 9  -5399954.30229  21328434.962        -638.210
  -8996375.159 7  -6874706.54325  24047288.109         963.350
 -12319230.892 7  -6844231.52226  23873368.251        3176.930
  19587407.238 7   9820721.76125  24127061.983       -3147.365
  19187334.133 9   -478886.99929  21293377.921       -1689.114
 96  7  1  4 47  0.0020000  0  6G 1G25G15G22G23G21
  19480340.106 9   4369455.19129  22704555.373        -723.227
   4756901.232 9  -5392462.89729  21330265.524        -643.720
  -9010762.554 7  -6885917.50825  24044546.627         954.936
 -12366881.778 6  -6881362.06526  23864292.904        3176.509
  19634657.787 7   9857540.42424  24136056.266       -3152.847
  19212741.548 9   -459089.01129  21298212.314       -1698.529
 96  7  1  4 47 15.0020000  0  6G 1G25G15G22G23G21
  19491188.476 9   4377908.46029  22706623.132        -723.163
   4766599.490 9  -5384905.82229  21332109.398        -649.324
  -9025023.844 7  -6897030.22325  24041835.484         946.565
 -12414526.060 6  -6918487.48326  23855236.294        3176.121
  19681990.196 7   9894422.80824  24145068.267       -3158.153
  19238289.218 9   -439181.76229  21303073.989       -1707.762
 96  7  1  4 47 30.0020000  0  6G 1G25G15G22G23G21
  19502035.250 9   4386360.49529  22708683.426        -723.023
   4776382.396 9  -5377282.77629  21333971.379        -655.044
  -9039158.846 7  -6908044.50026  24039141.908         938.093
 -12462165.123 6  -6955608.81626  23846164.154        3175.701
  19729402.006 7   9931367.07324  24154091.630       -3163.408
  19263977.270 9   -419165.10529  21307964.173       -1717.253
 96  7  1  4 47 45.0020000  0  6G 1G25G15G22G23G21
  19512878.894 9   4394810.05729  22710745.248        -722.820
   4786249.974 9  -5369593.74629  21335851.557        -660.605
  -9053167.516 7  -6918960.34026  24036473.576         929.702
 -12509797.788 7  -6992725.15026  23837108.713        3175.248
  19776892.363 7   9968372.54024  24163126.176       -3168.578
  19289806.324 9   -399038.57029  21312878.012       -1726.656
 96  7  1  4 48  0.0020000  0  6G 1G25G15G22G23G21
  19523717.855 9   4403256.00829  22712813.486        -722.410
   4796200.685 9  -5361839.94229  21337742.708        -666.175
  -9067050.368 7  -6929778.15426  24033831.685         921.309
 -12557424.081 7  -7029836.53326  23828046.557        3174.812
  19824457.701 7  10005436.40825  24172177.750       -3173.477
  19315773.207 9   -378804.65229  21317817.842       -1735.600
 96  7  1  4 48 15.0020000  0  6G 1G25G15G22G23G21
  19534551.611 9   4411697.87729  22714870.872        -722.061
   4806234.894 9  -5354021.07529  21339652.746        -671.621
  -9080807.049 7  -6940497.63626  24031215.516         912.899
 -12605041.749 7  -7066941.19426  23818978.195        3174.173
  19872095.865 7  10042557.06825  24181241.195       -3178.192
  19341875.963 9   -358464.84529  21322785.073       -1744.705
 96  7  1  4 48 30.0020000  0  6G 1G25G15G22G23G21
  19545381.360 9   4420136.63229  22716938.391        -721.934
   4816348.794 9  -5346140.11529  21341577.144        -676.828
  -9094437.311 7  -6951118.68826  24028627.617         904.520
 -12652648.615 7  -7104037.42626  23809921.794        3173.465
  19919806.922 7  10079734.54725  24190323.408       -3183.161
  19368116.218 9   -338017.89829  21327779.226       -1753.908
 96  7  1  4 48 45.0020000  0  6G 1G25G15G22G23G21
  19556210.300 9   4428574.74129  22718994.308        -722.014
   4826542.183 9  -5338197.21129  21343518.240        -682.320
  -9107940.568 7  -6961640.65226  24026054.139         895.963
 -12700244.464 7  -7141125.11626  23800861.616        3172.638
  19967591.841 6  10116969.48925  24199409.727       -3188.063
  19394494.551 9   -317463.34929  21332802.788       -1763.104
 96  7  1  4 49  0.0020000  0  6G 1G25G15G22G23G21
  19567040.584 9   4437013.90029  22721058.948        -722.110
   4836819.041 9  -5330189.25929  21345471.028        -688.042
  -9121317.889 7  -6972064.51926  24023507.432         887.600
 -12747828.404 7  -7178203.49126  23791811.062        3171.758
  20015447.001 7  10154259.22225  24208521.739       -3192.724
  19421007.494 9   -296803.93229  21337844.967       -1772.010
 96  7  1  4 49 15.0020000  0  6G 1G25G15G22G23G21
  19577871.352 9   4445453.44229  22723118.792        -722.003
   4847183.645 9  -5322112.93829  21347443.213        -693.913
  -9134568.394 7  -6982389.63626  24020975.355         879.144
 -12795397.447 7  -7215270.28226  23782759.368        3170.761
  20063373.214 7  10191604.27425  24217643.824       -3197.420
  19447652.655 9   -276041.48829  21342916.197       -1780.600
 96  7  1  4 49 30.0020000  0  6G 1G25G15G22G23G21
  19588700.582 9   4453891.77029  22725175.368        -721.868
   4857637.004 9  -5313967.45829  21349431.976        -699.726
  -9147691.924 7  -6992615.76526  24018488.247         870.686
 -12842952.819 7  -7252326.39826  23773705.546        3169.939
  20111368.157 7  10229002.96525  24226773.044       -3201.847
  19474425.295 9   -255179.70729  21348011.169       -1789.054
 96  7  1  4 49 45.0020000  0  6G 1G25G15G22G23G21
  19599528.199 9   4462328.87629  22727235.572        -721.880
   4868175.809 9  -5305755.38629  21351440.106        -705.529
  -9160689.720 7  -7002743.93525  24016018.946         862.301
 -12890496.121 7  -7289373.09326  23764659.399        3169.110
  20159430.598 7  10266454.19725  24235918.393       -3206.457
  19501324.476 9   -234219.32629  21353129.466       -1797.521
 96  7  1  4 50  0.0020000  0  6G 1G25G15G22G23G21
  19610357.284 9   4470767.13029  22729295.686        -722.021
   4878801.990 9  -5297475.22729  21353461.126        -711.331
  -9173560.763 7  -7012773.30425  24013571.950         853.822
 -12938027.450 7  -7326410.46626  23755616.759        3168.364
  20207559.687 7  10303957.39425  24245079.721       -3210.824
  19528351.126 9   -213159.59529  21358273.155       -1806.040
 96  7  1  4 50 15.0020000  0  6G 1G25G15G22G23G21
  19621189.046 9   4479207.46029  22731359.547        -722.325
   4889516.846 9  -5289125.98129  21355503.583        -717.345
  -9186305.476 7  -7022704.27725  24011139.194         845.391
 -12985546.707 7  -7363438.46926  23746570.401        3167.477
  20255753.286 7  10341510.84525  24254255.948       -3215.181
  19555505.213 9   -192000.55529  21363441.337       -1814.590
 96  7  1  4 50 30.0020000  0  6G 1G25G15G22G23G21
  19632024.561 9   4487650.66329  22733422.989        -722.506
   4900322.341 9  -5280706.11629  21357559.259        -723.468
  -9198923.783 7  -7032536.72725  24008735.638         836.975
 -13033052.597 7  -7400456.04226  23737534.687        3166.629
  20304012.919 7  10379115.73525  24263431.876       -3219.626
  19582788.291 9   -170741.01729  21368628.466       -1823.120
 96  7  1  4 50 45.0020000  0  6G 1G25G15G22G23G21
  19642862.848 9   4496096.09429  22735483.642        -722.591
   4911222.121 9  -5272212.78129  21359631.575        -729.839
  -9211415.349 7  -7042270.43925  24006361.252         828.543
 -13080546.613 7  -7437464.32826  23728492.437        3165.910
  20352340.977 7  10416773.94325  24272631.427       -3224.155
  19610198.049 9   -149382.75329  21373847.313       -1831.517
 96  7  1  4 51  0.0020000  0  6G 1G25G15G22G23G21
  19653701.351 9   4504541.68229  22737543.126        -722.541
   4922217.511 9  -5263644.93529  21361720.559        -736.138
  -9223779.941 7  -7051905.14925  24004012.348         820.088
 -13128029.266 7  -7474463.78226  23719462.898        3165.141
  20400737.288 7  10454485.33225  24281842.460       -3228.689
  19637734.177 9   -127926.04829  21379089.274       -1839.930
 96  7  1  4 51 15.0020000  0  6G 1G25G15G22G23G21
  19664537.892 9   4512985.71629  22739606.808        -722.243
   4933306.781 9  -5255003.94829  21363833.646        -742.334
  -9236017.297 7  -7061440.76325  24001683.950         811.604
 -13175499.634 7  -7511453.66426  23710421.607        3164.318
  20449202.659 7  10492250.54125  24291059.579       -3233.312
  19665397.776 9   -106369.96529  21384354.709       -1848.502
 96  7  1  4 51 30.0020000  0  6G 1G25G15G22G23G21
  19675368.453 9   4521425.13829  22741669.350        -721.837
   4944487.314 9  -5246291.84929  21365958.215        -748.355
  -9248128.231 7  -7070877.87525  23999374.589         803.240
 -13222959.993 7  -7548435.76126  23701394.076        3163.706
  20497737.650 7  10530070.00225  24300298.433       -3238.105
  19693188.970 9    -84714.48029  21389637.652       -1856.991
 96  7  1  4 51 45.0020000  0  6G 1G25G15G22G23G21
  19686195.039 9   4529861.42929  22743728.624        -721.742
   4955757.694 9  -5237509.72829  21368106.648        -754.279
  -9260112.276 7  -7080216.09425  23997097.095         794.674
 -13270410.412 7  -7585410.11626  23692364.297        3162.976
  20546345.912 6  10567946.57125  24309544.273       -3242.965
  19721109.542 9    -62958.17429  21394949.675       -1865.738
 96  7  1  4 52  0.0020000  0  6G 1G25G15G22G23G21
  19697020.186 9   4538296.61529  22745788.348        -721.674
   4967116.341 9  -5228658.82229  21370267.432        -760.215
  -9271969.440 7  -7089455.44026  23994844.695         786.209
 -13317850.022 7  -7622376.02026  23683338.686        3162.261
  20595028.246 7  10605880.82425  24318810.438       -3247.901
  19749160.403 9    -41100.35629  21400288.588       -1874.398
 96  7  1  4 52 15.0020000  0  6G 1G25G15G22G23G21
  19707844.887 9   4546731.46829  22747849.661        -721.641
   4978563.789 9  -5219738.73729  21372443.925        -766.087
  -9283699.267 7  -7098595.56926  23992602.007         777.778
 -13365277.596 7  -7659332.57026  23674311.155        3161.370
  20643786.370 6  10643874.17125  24328090.783       -3253.153
  19777340.998 9    -19141.44729  21405654.334       -1882.981
 96  7  1  4 52 30.0020000  0  6G 1G25G15G22G23G21
  19718667.712 9   4555164.83729  22749908.966        -721.440
   4990098.568 9  -5210750.59829  21374640.085        -771.891
  -9295302.184 7  -7107636.80326  23990395.445         769.190
 -13412689.929 7  -7696277.23326  23665291.000        3160.258
  20692623.940 6  10681929.40525  24337383.930       -3258.619
  19805649.605 9      2917.23329  21411042.114       -1891.543
 96  7  1  4 52 45.0020000  0  6G 1G25G15G22G23G21
  19729487.194 9   4563595.60729  22751971.088        -721.189
   5001718.511 9  -5201696.09029  21376851.204        -777.389
  -9306777.894 7  -7116578.93226  23988216.943         760.885
 -13460086.295 7  -7733209.46526  23656265.448        3159.251
  20741543.778 6  10720048.76325  24346696.173       -3263.997
  19834086.070 9     25075.54729  21416450.999       -1899.991
 96  7  1  4 53  0.0020000  0  6G 1G25G15G22G23G21
  19740301.733 9   4572022.51429  22754020.739        -720.826
   5013418.175 9  -5192579.47229  21379080.790        -782.586
  -9318127.260 7  -7125422.60625  23986060.176         752.389
 -13507467.676 7  -7770130.00126  23647247.391        3158.193
  20790544.291 7  10758230.92925  24356018.489       -3269.386
  19862650.573 9     47333.62229  21421890.284       -1908.655
 96  7  1  4 53 15.0020000  0  6G 1G25G15G22G23G21
  19751112.455 9   4580446.47829  22756084.600        -720.680
   5025195.918 9  -5183402.00129  21381318.441        -787.821
  -9329350.313 7  -7134167.82526  23983920.557         744.024
 -13554832.106 7  -7807037.34826  23638244.024        3156.990
  20839624.461 6  10796475.24125  24365360.022       -3274.562
  19891345.562 9     69693.37529  21427345.967       -1917.307
 96  7  1  4 53 30.0020000  0  6G 1G25G15G22G23G21
  19761921.312 9   4588868.96329  22758139.318        -720.562
   5037052.585 9  -5174163.03129  21383576.568        -793.064
  -9340447.155 7  -7142814.72426  23981813.316         735.526
 -13602178.434 7  -7843930.56826  23629229.535        3155.788
  20888781.785 6  10834779.58325  24374708.121       -3279.682
  19920170.306 9     92154.21629  21432832.259       -1925.965
 96  7  1  4 53 45.0020000  0  6G 1G25G15G22G23G21
  19772731.153 9   4597292.21329  22760192.896        -720.692
   5048987.805 9  -5164862.85129  21385848.125        -798.186
  -9351416.267 7  -7151362.12325  23979715.069         727.054
 -13649505.955 7  -7880809.16326  23620225.088        3154.517
  20938015.889 6  10873143.84625  24384078.734       -3284.792
  19949125.551 9    114716.75029  21438344.783       -1934.600
 96  7  1  4 54  0.0020000  0  6G 1G25G15G22G23G21
  19783543.285 9   4605717.26029  22762252.381        -720.881
   5060998.378 9  -5155503.95929  21388131.135        -803.310
  -9362258.947 7  -7159810.94826  23977661.670         718.589
 -13696814.421 7  -7917672.88826  23611225.799        3153.189
  20987323.941 6  10911565.69125  24393462.957       -3289.651
  19978207.358 9    137377.90229  21443878.502       -1943.020
 96  7  1  4 54 15.0020000  0  6G 1G25G15G22G23G21
  19794355.440 9   4614142.33429  22764313.154        -720.719
   5073088.098 9  -5146083.40029  21390432.252        -808.648
  -9372974.563 7  -7168160.79126  23975622.752         710.176
 -13744101.904 7  -7954520.26226  23602223.870        3151.828
  21036705.626 6  10950044.94525  24402865.198       -3294.597
  20007416.179 9    160138.04929  21449438.003       -1951.451
 96  7  1  4 54 30.0020000  0  6G 1G25G15G22G23G21
  19805163.223 9   4622563.98029  22766366.253        -720.296
   5085258.221 9  -5136600.18029  21392746.650        -814.044
  -9383563.796 7  -7176412.14825  23973602.540         701.748
 -13791367.339 7  -7991350.46926  23593226.559        3150.244
  21086160.482 6  10988581.17025  24412275.983       -3299.365
  20036751.602 9    182996.83129  21455018.670       -1959.964
 96  7  1  4 54 45.0020000  0  6G 1G25G15G22G23G21
  19815964.949 9   4630980.89129  22768424.058        -719.972
   5097510.009 9  -5127053.32029  21395081.014        -819.504
  -9394025.882 7  -7184564.41925  23971612.278         693.277
 -13838610.127 7  -8028163.00326  23584236.113        3148.913
  21135685.525 6  11027172.13225  24421687.248       -3303.919
  20066216.312 9    205956.35329  21460623.380       -1968.601
 96  7  1  4 55  0.0020000  0  6G 1G25G15G22G23G21
  19826761.650 9   4639393.89829  22770483.183        -719.641
   5109842.951 9  -5117443.23429  21397425.720        -824.937
  -9404361.225 7  -7192617.93426  23969640.633         684.771
 -13885835.738 7  -8064962.17926  23575252.412        3147.829
  21185276.090 6  11065814.12625  24431129.421       -3308.125
  20095809.539 9    229015.99629  21466252.732       -1977.174
 96  7  1  4 55 15.0020000  0  6G 1G25G15G22G23G21
  19837554.980 9   4647804.29029  22772536.101        -719.463
   5122260.262 9  -5107767.40629  21399788.025        -830.757
  -9414569.906 7  -7200572.79026  23967699.027         676.353
 -13933044.520 7  -8101748.25626  23566263.705        3146.642
  21234931.201 6  11104506.40425  24440582.447       -3312.402
  20125532.116 9    252176.44229  21471912.155       -1985.773
 96  7  1  4 55 30.0020000  0  6G 1G25G15G22G23G21
  19848345.332 9   4656212.35529  22774588.001        -719.260
   5134764.089 9  -5098024.15629  21402167.957        -836.406
  -9424652.156 7  -7208429.06426  23965787.790         667.924
 -13980236.534 7  -8138521.22526  23557291.576        3145.638
  21284648.333 6  11143247.08525  24450044.287       -3316.568
  20155380.883 9    275435.22429  21477594.751       -1994.046
 96  7  1  4 55 45.0020000  0  6G 1G25G15G22G23G21
  19859130.873 9   4664616.66729  22776637.232        -718.806
   5147352.419 9  -5088215.06629  21404566.747        -842.066
  -9434607.937 7  -7216186.80326  23963895.920         659.489
 -14027413.096 8  -8175282.17326  23548311.953        3144.539
  21334428.911 6  11182037.11024  24459502.859       -3320.876
  20185354.128 9    298790.97729  21483294.165       -2002.298
 96  7  1  4 56  0.0020000  0  6G 1G25G15G22G23G21
  19869908.970 9   4673015.17329  22778686.853        -718.303
   5160027.003 9  -5078338.76729  21406979.776        -847.930
  -9444437.659 7  -7223846.34526  23962006.568         651.130
 -14074572.629 7  -8212029.84826  23539340.604        3143.379
  21384275.211 6  11220878.37524  24468999.354       -3325.255
  20215449.847 9    322242.17329  21489022.869       -2010.492
 96  7  1  4 56 15.0020000  0  6G 1G25G15G22G23G21
  19880681.484 9   4681409.31829  22780742.830        -718.010
   5172793.144 9  -5068391.13229  21409406.536        -854.203
  -9454140.322 7  -7231406.88426  23960165.543         642.586
 -14121712.778 7  -8248762.42326  23530365.867        3141.957
  21434187.007 6  11259770.71724  24478503.315       -3329.649
  20245671.905 9    345791.84729  21494775.407       -2019.164
 96  7  1  4 56 30.0020000  0  6G 1G25G15G22G23G21
  19891448.501 9   4689799.18429  22782789.753        -717.650
   5185651.214 9  -5058371.84229  21411854.731        -860.101
  -9463715.972 7  -7238868.40626  23958353.477         634.200
 -14168833.470 7  -8285479.81726  23521398.235        3140.818
  21484162.918 6  11298712.98724  24488001.849       -3333.770
  20276023.447 9    369442.39929  21500548.120       -2027.606
 96  7  1  4 56 45.0020000  0  6G 1G25G15G22G23G21
  19902214.895 9   4698188.58529  22784831.969        -717.816
   5198596.104 9  -5048284.91029  21414317.736        -865.810
  -9473164.912 7  -7246231.20926  23956551.365         625.679
 -14215935.521 7  -8322182.71126  23512435.220        3139.527
  21534201.280 6  11337703.96323  24497530.333       -3338.036
  20306501.784 9    393191.75229  21506352.702       -2036.109
 96  7  1  4 57  0.0020000  0  6G 1G25G15G22G23G21
  19912984.129 9   4706580.19029  22786886.986        -718.074
   5211625.628 9  -5038132.04929  21416796.780        -871.455
  -9482487.088 7  -7253495.26126  23954781.630         617.233
 -14263021.357 7  -8358872.96026  23503473.854        3138.460
  21584302.824 6  11376744.10523  24507067.001       -3342.234
  20337104.702 9    417038.17329  21512175.391       -2044.253
 96  7  1  4 57 15.0020000  0  6G 1G25G15G22G23G21
  19923757.331 9   4714974.89429  22788930.941        -718.281
   5224739.463 9  -5027913.46729  21419294.111        -877.017
  -9491681.725 7  -7260659.92326  23953027.214         608.765
 -14310087.445 7  -8395547.81226  23494519.593        3136.973
  21634470.576 6  11415835.84923  24516610.444       -3346.823
  20367830.953 9    440980.71029  21518022.153       -2052.531
 96  7  1  4 57 30.0020000  0  6G 1G25G15G22G23G21
  19934532.480 9   4723371.12229  22790987.518        -718.395
   5237935.011 9  -5017631.21429  21421801.695        -882.330
  -9500749.780 8  -7267725.95926  23951309.493         600.335
 -14357131.568 7  -8432205.58426  23485564.792        3135.577
  21684704.392 6  11454979.10323  24526168.397       -3351.061
  20398681.053 9    465019.73029  21523894.008       -2060.753
 96  7  1  4 57 45.0020000  0  6G 1G25G15G22G23G21
  19945309.738 9   4731768.97029  22793035.580        -718.651
   5251207.903 9  -5007288.69429  21424328.526        -887.490
  -9509692.100 7  -7274693.99326  23949605.983         591.867
 -14404154.366 7  -8468846.73226  23476620.634        3134.065
  21735002.410 6  11494172.29723  24535736.603       -3355.505
  20429653.438 9    489154.03329  21529783.461       -2069.002
 96  7  1  4 58  0.0020000  0  6G 1G25G15G22G23G21
  19956091.338 9   4740170.22928  22795084.631        -719.020
   5264558.826 9  -4996885.38129  21426869.387        -892.601
  -9518507.317 8  -7281562.98326  23947924.657         583.476
 -14451153.558 7  -8505469.44726  23467677.765        3132.444
  21785367.449 6  11533417.83622  24545326.574       -3359.847
  20460752.482 9    513387.04029  21535702.084       -2077.522
 96  7  1  4 58 15.0020000  0  6G 1G25G15G22G23G21
  19966881.138 9   4748577.86928  22797144.955        -719.712
   5277983.980 9  -4986424.21629  21429421.760        -897.366
  -9527196.641 7  -7288333.90326  23946273.520         575.084
 -14498128.866 7  -8542073.56926  23458736.934        3130.903
  21835796.745 6  11572713.38922  24554922.031       -3364.082
  20491980.575 9    537720.60529  21541643.730       -2086.225
 96  7  1  4 58 30.0020000  0  6G 1G25G15G22G23G21
  19977682.964 9   4756994.88028  22799196.735        -720.452
   5291478.918 9  -4975908.68129  21431990.682        -901.917
  -9535759.312 7  -7295006.11726  23944640.430         566.568
 -14545080.755 7  -8578659.47926  23449802.430        3129.315
  21886291.305 6  11612059.82122  24564528.521       -3368.545
  20523338.904 9    562155.65029  21547612.478       -2094.807
 96  7  1  4 58 45.0020000  0  6G 1G25G15G22G23G21
  19988493.866 9   4765418.96728  22801254.630        -721.057
   5305040.348 9  -4965341.33629  21434573.454        -906.369
  -9544195.868 7  -7301580.07326  23943037.200         558.198
 -14592009.942 7  -8615227.62426  23440871.792        3127.825
  21936853.323 6  11651458.73523  24574147.662       -3373.088
  20554823.695 9    586689.24129  21553604.910       -2103.204
 96  7  1  4 59  0.0020000  0  6G 1G25G15G22G23G21
  19999311.914 9   4773848.61528  22803315.133        -721.358
   5318670.370 9  -4954720.54229  21437167.917        -911.016
  -9552505.396 7  -7308055.02426  23941447.911         549.712
 -14638916.202 7  -8651777.96926  23431943.733        3126.308
  21987482.386 6  11690910.01923  24583780.923       -3377.461
  20586435.701 9    611321.96329  21559615.839       -2111.787
 96  7  1  4 59 15.0020000  0  6G 1G25G15G22G23G21
  20010134.264 9   4782281.62128  22805373.389        -721.662
   5332371.499 9  -4944044.33029  21439771.165        -915.799
  -9560688.069 7  -7314431.13326  23939898.853         541.282
 -14685798.741 8  -8688309.81126  23423027.216        3124.628
  22038177.099 6  11730412.42323  24593435.079       -3381.903
  20618177.855 9    636056.08229  21565656.177       -2120.560
 96  7  1  4 59 30.0020000  0  6G 1G25G15G22G23G21
  20020960.887 9   4790717.95228  22807431.674        -721.937
   5346143.032 9  -4933313.25929  21442389.433        -920.447
  -9568744.207 8  -7320708.64426  23938368.292         532.860
 -14732654.815 8  -8724821.01626  23414106.022        3122.870
  22088938.229 6  11769966.58723  24603092.144       -3386.273
  20650053.881 9    660894.52729  21571725.625       -2129.556
 96  7  1  4 59 45.0020000  0  6G 1G25G15G22G23G21
  20031793.035 9   4799158.58728  22809497.034        -722.356
   5359986.131 9  -4922526.42729  21445023.739        -925.320
  -9576673.782 8  -7326887.53226  23936852.662         524.388
 -14779484.372 8  -8761311.54426  23405197.509        3120.990
  22139763.512 6  11809570.63623  24612763.718       -3390.674
  20682064.147 9    685837.59829  21577819.446       -2138.451
 96  7  1  5  0  0.0020000  0  6G 1G25G15G22G23G21
  20042631.455 9   4807604.09628  22811558.407        -722.636
   5373902.891 9  -4911682.19829  21447673.515        -930.222
  -9584475.887 8  -7332967.09226  23935370.608         515.907
 -14826283.477 8  -8797778.38326  23396294.572        3118.948
  22190656.623 6  11849227.64722  24622453.940       -3395.102
  20714207.661 9    710884.50229  21583934.223       -2147.289
 96  7  1  5  0 15.0020000  0  5G 1G25G15G22G21
  20053472.212 9   4816051.44328  22813618.790        -722.790
   5387893.490 9  -4900780.41829  21450339.119        -935.183
  -9592151.876 8  -7338948.38826  23933911.668         507.500
 -14873051.417 8  -8834220.92926  23387394.903        3116.872
  20746482.928 9    736034.06429  21590072.174       -2155.969
 96  7  1  5  0 30.0020000  0  5G 1G25G15G22G21
  20064313.358 9   4824499.08628  22815682.112        -722.644
   5401960.764 9  -4889818.89929  21453016.296        -940.500
  -9599701.177 8  -7344830.98026  23932471.585         499.088
 -14919789.463 8  -8870640.15726  23378498.083        3114.874
  20778885.866 9    761283.10229  21596239.415       -2164.374
 96  7  1  5  0 45.0020000  0  5G 1G25G15G22G21
  20075148.647 9   4832942.17928  22817743.635        -722.072
   5416110.554 9  -4878793.08829  21455709.511        -946.108
  -9607123.745 7  -7350614.78926  23931056.804         490.620
 -14966497.817 8  -8907036.27526  23369611.874        3112.949
  20811412.997 9    786628.90929  21602429.349       -2172.590
 96  7  1  5  1  0.0020000  0  5G 1G25G15G22G21
  20085974.848 9   4841378.17628  22819803.869        -721.524
   5430344.194 9  -4867701.93829  21458416.038        -951.699
  -9614419.976 8  -7356300.17326  23929676.470         482.206
 -15013176.778 7  -8943409.47726  23360725.426        3110.966
  20844064.824 9    812071.88129  21608641.859       -2180.982
 96  7  1  5  1 15.0020000  0  5G 1G25G15G22G21
  20096794.936 9   4849809.42528  22821863.892        -721.201
   5444662.167 9  -4856545.06329  21461141.361        -957.285
  -9621590.173 7  -7361887.34426  23928307.977         473.802
 -15059825.473 7  -8979759.08626  23351850.610        3108.885
  20876843.304 9    837613.55129  21614880.809       -2189.467
 96  7  1  5  1 30.0020000  0  5G 1G25G15G22G21
  20107610.920 9   4858237.46028  22823922.507        -720.934
   5459063.979 9  -4845322.86129  21463882.303        -962.879
  -9628634.118 7  -7367376.13126  23926967.245         465.362
 -15106441.559 7  -9016083.28526  23342977.563        3106.646
  20909748.648 9    863254.06929  21621141.765       -2197.859
 96  7  1  5  1 45.0020000  0  5G 1G25G15G22G21
  20118422.243 9   4866661.85128  22825978.724        -720.661
   5473548.259 9  -4834036.40929  21466637.816        -968.455
  -9635552.444 7  -7372767.03326  23925652.745         456.941
 -15153026.304 7  -9052383.07726  23334117.257        3104.601
  20942778.223 9    888991.39529  21627430.182       -2206.140
 96  7  1  5  2  0.0020000  0  5G 1G25G15G22G21
  20129229.304 9   4875082.95828  22828036.349        -720.335
   5488116.178 9  -4822684.78029  21469411.106        -973.910
  -9642344.221 7  -7378059.34026  23924361.569         448.547
 -15199580.801 7  -9088659.30326  23325251.584        3102.619
  20975931.552 9    914825.17229  21633734.757       -2214.340
 96  7  1  5  2 15.0020000  0  5G 1G25G15G22G21
  20140031.622 9   4883500.34328  22830091.187        -719.898
   5502765.689 9  -4811269.57629  21472198.396        -979.303
  -9649009.500 7  -7383253.05926  23923093.447         440.223
 -15246106.267 7  -9124912.91326  23316400.722        3100.848
  21009208.717 9    940755.41829  21640069.761       -2222.566
 96  7  1  5  2 30.0020000  0  5G 1G25G15G22G21
  20150828.662 9   4891913.64228  22832146.144        -719.762
   5517495.505 9  -4799791.78529  21474999.627        -984.644
  -9655549.360 7  -7388349.06026  23921845.891         431.754
 -15292606.634 7  -9161146.94326  23307551.478        3099.173
  21042608.868 9    966781.50929  21646424.012       -2230.846
 96  7  1  5  2 45.0020000  0  5G 1G25G15G22G21
  20161623.375 9   4900325.10928  22834201.641        -719.532
   5532304.243 9  -4788252.51829  21477817.047        -989.796
  -9661962.599 7  -7393346.38326  23920626.005         423.357
 -15339081.342 7  -9197360.99126  23298706.131        3097.408
  21076134.933 9    992905.72429  21652807.763       -2239.341
 96  7  1  5  3  0.0020000  0  5G 1G25G15G22G21
  20172417.623 9   4908736.21528  22836252.282        -719.758
   5547187.176 9  -4776655.41329  21480650.565        -994.525
  -9668249.377 7  -7398245.16026  23919432.082         414.905
 -15385528.828 7  -9233553.81826  23289866.631        3095.579
  21109790.419 9   1019130.76329  21659211.360       -2248.046
 96  7  1  5  3 15.0020000  0  5G 1G25G15G22G21
  20183216.509 9   4917150.93028  22838309.817        -720.107
   5562139.569 9  -4765004.18229  21483496.825        -999.053
  -9674410.091 8  -7403045.70326  23918261.782         406.595
 -15431948.747 7  -9269725.16626  23281038.642        3093.748
  21143576.057 9   1045457.22028  21665642.328       -2256.592
 96  7  1  5  3 30.0020000  0  5G 1G25G15G22G21
  20194020.432 9   4925569.56428  22840367.982        -720.431
   5577159.467 9  -4753300.35229  21486353.727       -1003.524
  -9680444.943 7  -7407748.19426  23917109.020         398.166
 -15478340.175 7  -9305874.30226  23272206.667        3091.805
  21177488.665 9   1071882.62428  21672089.065       -2265.015
 96  7  1  5  3 45.0020000  0  5G 1G25G15G22G21
  20204828.122 9   4933991.14628  22842422.340        -720.660
   5592245.588 9  -4741544.93429  21489224.779       -1007.994
  -9686353.914 8  -7412352.60226  23915983.329         389.731
 -15524703.654 7  -9342001.68626  23263384.224        3089.989
  21211524.844 9   1098404.35028  21678567.400       -2273.178
 96  7  1  5  4  0.0020000  0  5G 1G25G15G22G21
  20215639.160 9   4942415.33328  22844477.357        -720.793
   5607398.835 9  -4729737.18529  21492109.502       -1012.454
  -9692137.629 8  -7416859.39026  23914889.716         381.390
 -15571040.352 7  -9378108.17126  23254561.842        3088.240
  21245683.633 9   1125021.60528  21685071.487       -2281.327
 96  7  1  5  4 15.0020000  0  5G 1G25G15G22G21
  20226452.264 9   4950841.12728  22846538.311        -721.019
   5622618.956 9  -4717877.34529  21495008.136       -1016.952
  -9697795.891 7  -7421268.43326  23913812.472         372.965
 -15617349.135 7  -9414192.93526  23245756.098        3086.178
  21279964.082 9   1151733.64628  21691593.382       -2289.410
 96  7  1  5  4 30.0020000  0  5G 1G25G15G22G21
  20237267.606 9   4959268.67628  22848594.767        -721.038
   5637906.759 9  -4705964.76329  21497913.005       -1021.381
  -9703327.974 7  -7425579.14926  23912755.164         364.645
 -15663627.278 7  -9450253.80726  23236949.245        3084.258
  21314365.543 9   1178539.97228  21698139.081       -2297.419
 96  7  1  5  4 45.0020000  0  5G 1G25G15G22G21
  20248085.064 9   4967697.86228  22850652.512        -721.345
   5653261.370 9  -4694000.10929  21500835.981       -1025.977
  -9708734.241 8  -7429791.80926  23911726.007         356.168
 -15709877.116 7  -9486292.62026  23228146.799        3082.309
  21348887.455 9   1205440.16828  21704705.975       -2305.492
 96  7  1  5  5  0.0020000  0  5G 1G25G15G22G21
  20258905.029 9   4976129.02128  22852711.487        -721.494
   5668685.111 9  -4681981.60629  21503770.949       -1030.697
  -9714014.931 8  -7433906.64626  23910721.552         347.796
 -15756097.082 7  -9522308.16626  23219351.847        3080.238
  21383527.720 9   1232432.57828  21711304.347       -2313.312
 96  7  1  5  5 15.0020000  0  5G 1G25G15G22G21
  20269728.356 9   4984562.78228  22854774.029        -721.676
   5684180.801 9  -4669907.03729  21506721.866       -1035.536
  -9719169.429 8  -7437923.16226  23909744.738         339.427
 -15802284.907 7  -9558298.68626  23210563.072        3078.106
  21418284.960 9   1259516.14628  21717914.591       -2321.013
 96  7  1  5  5 30.0020000  0  5G 1G25G15G22G21
  20280553.628 9   4992998.03728  22856833.663        -721.755
   5699751.530 9  -4657773.99529  21509684.086       -1040.604
  -9724198.809 8  -7441842.14626  23908782.374         331.104
 -15848440.150 7  -9594263.79226  23201779.572        3075.939
  21453157.646 9   1286689.65328  21724553.644       -2328.668
 96  7  1  5  5 45.0020000  0  5G 1G25G15G22G21
  20291380.127 9   5001434.26728  22858888.980        -721.773
   5715400.452 9  -4645580.03329  21512663.093       -1045.889
  -9729102.297 8  -7445663.05626  23907857.844         322.701
 -15894562.125 8  -9630202.97226  23193006.356        3073.665
  21488147.334 9   1313954.34028  21731208.258       -2336.542
 96  7  1  5  6  0.0020000  0  5G 1G25G15G22G21
  20302207.342 9   5009871.07928  22860953.321        -721.840
   5731129.330 9  -4633323.76129  21515654.962       -1051.224
  -9733879.703 7  -7449385.69826  23906942.728         314.285
 -15940648.762 8  -9666114.64326  23184236.647        3071.232
  21523255.754 9   1341311.55728  21737891.321       -2344.593
 96  7  1  5  6 15.0020000  0  5G 1G25G15G22G21
  20313034.197 9   5018307.58728  22863016.103        -721.862
   5746934.909 9  -4621007.73529  21518662.300       -1056.213
  -9738531.472 7  -7453010.44426  23906051.205         305.939
 -15986699.119 8  -9701998.00726  23175473.773        3068.746
  21558484.233 9   1368762.32928  21744594.141       -2352.531
 96  7  1  5  6 30.0020000  0  5G 1G25G15G22G21
  20323862.372 9   5026745.12928  22865071.720        -721.945
   5762814.370 9  -4608634.11229  21521683.399       -1061.098
  -9743058.155 7  -7456537.72726  23905195.238         297.606
 -16032711.360 8  -9737851.69326  23166715.307        3066.228
  21593830.192 9   1396304.62028  21751321.244       -2360.315
 96  7  1  5  6 45.0020000  0  5G 1G25G15G22G21
  20334692.967 8   5035184.55028  22867131.384        -722.231
   5778769.009 9  -4596201.93129  21524717.988       -1066.248
  -9747459.604 7  -7459967.44526  23904361.545         289.231
 -16078685.608 8  -9773675.77026  23157967.153        3063.647
  21629294.506 9   1423939.15028  21758070.201       -2368.269
 96  7  1  5  7  0.0020000  0  5G 1G25G15G22G21
  20345529.468 9   5043628.56128  22869199.503        -722.676
   5794801.974 9  -4583708.72029  21527770.505       -1071.503
  -9751735.328 7  -7463299.18526  23903540.773         280.834
 -16124618.668 8  -9809467.75526  23149225.924        3060.691
  21664877.305 9   1451666.01728  21764840.055       -2376.161
 96  7  1  5  7 15.0020000  0  5G 1G25G15G22G21
  20356370.699 9   5052076.27428  22871261.685        -722.944
   5810911.667 9  -4571155.71629  21530837.471       -1076.465
  -9755885.727 7  -7466533.25826  23902753.998         272.481
 -16170506.413 8  -9845224.41626  23140493.360        3057.675
  21700579.284 9   1479485.73628  21771631.643       -2384.180
 96  7  1  5  7 30.0020000  0  5G 1G25G15G22G21
  20367217.181 9   5060528.08028  22873322.278        -723.256
   5827094.412 9  -4558545.78929  21533915.770       -1081.226
  -9759910.644 7  -7469669.55326  23901988.718         264.166
 -16216348.574 8  -9880945.56626  23131770.389        3054.670
  21736403.107 9   1507400.39328  21778452.551       -2392.281
 96  7  1  5  7 45.0020000  0  5G 1G25G15G22G21
  20378066.548 9   5068982.12228  22875386.260        -723.466
   5843347.665 9  -4545880.93129  21537006.211       -1085.927
  -9763810.923 7  -7472708.74726  23901245.772         255.768
 -16262146.852 8  -9916632.51427  23123055.062        3051.682
  21772347.537 9   1535409.03728  21785291.806       -2400.394
 96  7  1  5  8  0.0020000  0  5G 1G25G15G22G21
  20388919.146 9   5077438.68528  22877453.988        -723.714
   5859670.097 9  -4533162.15429  21540114.009       -1090.472
  -9767585.628 7  -7475650.06026  23900519.764         247.428
 -16307899.390 8  -9952283.82327  23114351.457        3048.593
  21808412.952 9   1563511.96228  21792153.456       -2408.443
 96  7  1  5  8 15.0020000  0  5G 1G25G15G22G21
  20399776.743 9   5085899.15928  22879516.740        -724.095
   5876059.811 9  -4520390.95029  21543235.239       -1094.880
  -9771234.787 7  -7478493.57726  23899829.462         239.102
 -16353607.641 8  -9987900.65027  23105651.900        3045.780
  21844599.665 9   1591709.39228  21799041.128       -2416.484
 96  7  1  5  8 30.0020000  0  5G 1G25G15G22G21
  20410641.619 9   5094365.29028  22881586.028        -724.621
   5892517.636 9  -4507566.67729  21546364.802       -1099.533
  -9774758.422 7  -7481239.29226  23899162.814         230.720
 -16399273.035 8 -10023484.06827  23096958.818        3042.969
  21880907.003 9   1620000.82128  21805946.248       -2424.509
 96  7  1  5  8 45.0020000  0  5G 1G25G15G22G21
  20421515.017 9   5102838.06828  22883653.486        -725.096
   5909046.926 9  -4494686.73629  21549511.993       -1104.294
  -9778156.187 7  -7483886.88526  23898519.070         222.374
 -16444896.810 8 -10059035.04627  23088279.197        3040.303
  21917336.279 9   1648387.27228  21812879.877       -2432.697
 96  7  1  5  9  0.0020000  0  5G 1G25G15G22G21
  20432395.263 9   5111316.16728  22885726.491        -725.619
   5925646.417 9  -4481752.08429  21552670.127       -1108.947
  -9781428.823 7  -7486437.00526  23897893.463         213.994
 -16490481.128 8 -10094555.28827  23079604.372        3037.582
  21953889.118 9   1676870.00128  21819833.863       -2440.987
 96  7  1  5  9 15.0020000  0  5G 1G25G15G22G21
  20443282.397 9   5119799.64128  22887801.205        -725.902
   5942313.543 9  -4468764.74429  21555841.991       -1113.235
  -9784575.487 7  -7488888.95226  23897292.259         205.632
 -16536025.185 8 -10130044.16127  23070937.013        3035.043
  21990568.072 9   1705451.00028  21826814.831       -2449.406
 96  7  1  5  9 30.0020000  0  5G 1G25G15G22G21
  20454171.594 9   5128284.74928  22889872.771        -726.046
   5959045.158 9  -4455727.15129  21559026.327       -1117.656
  -9787597.596 7  -7491243.84226  23896716.627         197.308
 -16581532.553 8 -10165504.41727  23062278.317        3032.587
  22027372.983 9   1734130.12128  21833821.820       -2457.888
 96  7  1  5  9 45.0020000  0  5G 1G25G15G22G21
  20465063.984 9   5136772.32628  22891941.309        -726.285
   5975844.431 9  -4442636.81729  21562222.144       -1122.252
  -9790494.148 7  -7493500.88726  23896167.078         188.896
 -16627004.601 8 -10200937.19327  23053626.906        3030.309
  22064303.673 9   1762907.27328  21840849.614       -2466.175
 96  7  1  5 10  0.0020000  0  5G 1G25G15G22G21
  20475960.156 9   5145262.84028  22894017.432        -726.590
   5992713.143 9  -4429492.39729  21565433.701       -1126.853
  -9793264.983 7  -7495660.02926  23895640.882         180.512
 -16672441.673 8 -10236342.66727  23044979.453        3027.962
  22101357.801 9   1791780.61528  21847898.844       -2474.347
 96  7  1  5 10 15.0020000  0  5G 1G25G15G22G21
  20486862.252 9   5153757.96728  22896088.698        -727.031
   6009648.927 9  -4416295.70529  21568653.862       -1131.193
  -9795910.783 7  -7497721.68326  23895137.680         172.251
 -16717843.908 8 -10271721.01327  23036339.014        3025.745
  22138533.472 9   1820748.66528  21854974.426       -2482.373
 96  7  1  5 10 30.0020000  0  5G 1G25G15G22G21
  20497770.335 9   5162257.76328  22898160.653        -727.368
   6026650.116 9  -4403048.04429  21571888.922       -1135.627
  -9798431.945 7  -7499686.23726  23894656.184         163.927
 -16763213.203 8 -10307073.68627  23027706.880        3023.467
  22175828.702 9   1849809.87528  21862071.293       -2490.320
 96  7  1  5 10 45.0020000  0  5G 1G25G15G22G21
  20508681.788 9   5170760.17328  22900242.082        -727.496
   6043716.592 9  -4389749.51929  21575136.993       -1139.921
  -9800828.291 7  -7501553.51626  23894200.259         155.582
 -16808548.937 8 -10342400.23327  23019076.605        3021.290
  22213242.855 9   1878963.77428  21869189.925       -2498.281
 96  7  1  5 11  0.0020000  0  5G 1G25G15G22G21
  20519594.897 9   5179263.88728  22902320.783        -727.613
   6060846.864 9  -4376401.26429  21578399.755       -1144.142
  -9803099.537 7  -7503323.32326  23893774.374         147.269
 -16853849.992 8 -10377699.74127  23010458.381        3018.814
  22250777.065 9   1908211.20428  21876329.392       -2506.214
 96  7  1  5 11 15.0020000  0  5G 1G25G15G22G21
  20530510.293 9   5187769.38228  22904396.007        -727.777
   6078042.452 9  -4363002.12529  21581671.480       -1148.594
  -9805245.652 7  -7504995.64126  23893361.890         138.861
 -16899113.523 8 -10412970.03627  23001841.626        3016.219
  22288429.426 9   1937550.71728  21883497.010       -2514.072
 96  7  1  5 11 30.0020000  0  5G 1G25G15G22G21
  20541427.943 9   5196276.62128  22906471.110        -727.993
   6095303.745 9  -4349551.78129  21584954.897       -1152.984
  -9807266.863 7  -7506570.61626  23892974.648         130.552
 -16944337.679 8 -10448209.62427  22993239.861        3013.624
  22326198.438 9   1966981.11128  21890688.762       -2521.791
 96  7  1  5 11 45.0020000  0  5G 1G25G15G22G21
  20552350.743 9   5204787.87928  22908554.847        -728.446
   6112630.647 9  -4336050.31329  21588251.924       -1157.225
  -9809162.890 7  -7508048.01926  23892611.090         122.211
 -16989521.835 8 -10483418.03227  22984640.494        3010.916
  22364082.931 9   1996501.48728  21897894.663       -2529.417
 96  7  1  5 12  0.0020000  0  5G 1G25G15G22G21
  20563280.478 9   5213304.53428  22910635.827        -728.928
   6130019.312 9  -4322500.70729  21591560.134       -1161.304
  -9810934.238 7  -7509428.32426  23892278.919         113.864
 -17034665.802 8 -10518595.13027  22976049.972        3008.185
  22402081.243 9   2026110.55828  21905125.927       -2537.073
 96  7  1  5 12 15.0020000  0  5G 1G25G15G22G21
  20574217.383 9   5221826.77828  22912714.858        -729.417
   6147467.808 9  -4308904.49929  21594879.676       -1165.177
  -9812580.577 7  -7510711.17126  23891962.608         105.571
 -17079767.811 8 -10553739.52927  22967466.464        3005.359
  22440194.501 9   2055809.20828  21912379.315       -2544.785
 96  7  1  5 12 30.0020000  0  5G 1G25G15G22G21
  20585161.771 9   5230354.87028  22914795.237        -729.791
   6164975.659 9  -4295262.03629  21598213.968       -1169.228
  -9814101.830 7  -7511896.56526  23891673.639          97.300
 -17124827.940 8 -10588851.31327  22958889.641        3002.671
  22478425.100 9   2085599.28528  21919650.152       -2552.595
 96  7  1  5 12 45.0020000  0  5G 1G25G15G22G21
  20596111.837 9   5238887.39228  22916882.362        -730.194
   6182546.662 9  -4281570.34829  21601556.354       -1173.503
  -9815498.505 7  -7512984.92326  23891407.663          88.979
 -17169845.071 8 -10623929.59827  22950326.340        2999.596
  22516773.951 9   2115481.51128  21926954.745       -2560.553
 96  7  1  5 13  0.0020000  0  5G 1G25G15G22G21
  20607070.060 9   5247426.23628  22918965.680        -730.913
   6200180.813 9  -4267829.46729  21604910.192       -1177.754
  -9816771.008 7  -7513976.47826  23891166.600          80.698
 -17214814.906 8 -10658971.03327  22941767.835        2996.306
  22555242.140 9   2145456.72428  21934269.022       -2568.466
 96  7  1  5 13 15.0020000  0  5G 1G25G15G22G21
  20618039.340 9   5255973.72928  22921057.272        -731.682
   6217881.280 9  -4254036.89829  21608280.699       -1182.274
  -9817919.080 7  -7514871.08626  23890949.850          72.410
 -17259734.403 8 -10693973.21827  22933218.743        2992.968
  22593828.467 9   2175523.99428  21941614.237       -2576.324
 96  7  1  5 13 30.0020000  0  5G 1G25G15G22G21
  20629019.787 9   5264529.92128  22923146.256        -732.468
   6235647.694 9  -4240192.94029  21611657.321       -1186.582
  -9818942.914 7  -7515668.87726  23890755.104          64.043
 -17304602.897 8 -10728935.67827  22924681.104        2989.526
  22632532.081 9   2205682.65128  21948975.790       -2584.249
 96  7  1  5 13 45.0020000  0  5G 1G25G15G22G21
  20640010.783 9   5273094.31828  22925232.931        -733.073
   6253476.338 9  -4226300.48229  21615054.389       -1190.658
  -9819842.232 7  -7516369.64926  23890584.493          55.751
 -17349421.574 7 -10763859.31427  22916154.946        2986.263
  22671355.874 9   2235934.95128  21956365.614       -2592.283
 96  7  1  5 14  0.0020000  0  5G 1G25G15G22G21
  20651010.719 9   5281665.67828  22927329.020        -733.613
   6271367.615 9  -4212359.23729  21618458.293       -1194.870
  -9820617.275 7  -7516973.59526  23890432.828          47.564
 -17394189.247 8 -10798743.21427  22907632.086        2982.809
  22710300.015 9   2266281.02728  21963779.392       -2600.208
 96  7  1  5 14 15.0020000  0  5G 1G25G15G22G21
  20662019.795 9   5290244.17728  22929424.420        -734.214
   6289325.867 9  -4198365.78629  21621877.785       -1199.502
  -9821267.716 7  -7517480.43426  23890310.212          39.204
 -17438904.709 8 -10833586.43527  22899128.113        2979.271
  22749364.062 9   2296720.56128  21971212.386       -2608.254
 96  7  1  5 14 30.0020000  0  5G 1G25G15G22G21
  20673038.692 9   5298830.31528  22931519.909        -734.988
   6307353.705 9  -4184318.11129  21625306.722       -1204.217
  -9821793.569 7  -7517890.20926  23890213.379          30.895
 -17483565.396 8 -10868386.96727  22890628.128        2975.514
  22788547.391 9   2327253.02528  21978669.604       -2616.224
 96  7  1  5 14 45.0020000  0  5G 1G25G15G22G21
  20684067.562 9   5307424.23628  22933618.396        -735.592
   6325452.490 9  -4170215.14329  21628753.496       -1208.928
  -9822195.515 7  -7518203.41626  23890133.245          22.659
 -17528171.183 8 -10903144.71427  22882137.676        2971.802
  22827849.404 9   2357877.96028  21986144.449       -2624.057
 96  7  1  5 15  0.0020000  0  5G 1G25G15G22G21
  20695106.392 9   5316025.91328  22935717.993        -736.197
   6343619.806 9  -4156058.78329  21632204.766       -1213.361
  -9822473.721 7  -7518420.19726  23890081.890          14.481
 -17572719.737 8 -10937857.87427  22873658.766        2968.034
  22867270.121 9   2388595.40128  21993650.712       -2631.976
 96  7  1  5 15 15.0020000  0  5G 1G25G15G22G21
  20706152.916 9   5324633.58628  22937824.185        -736.595
   6361854.865 9  -4141849.64029  21635676.543       -1217.960
  -9822628.436 7  -7518540.76626  23890052.571           6.164
 -17617212.756 8 -10972527.72927  22865195.445        2964.390
  22906809.267 9   2419405.09828  22001173.465       -2639.892
 96  7  1  5 15 30.0020000  0  5G 1G25G15G22G21
  20717203.012 9   5333244.04628  22939924.351        -736.846
   6380157.343 9  -4127587.95729  21639160.251       -1222.328
  -9822659.668 7  -7518565.07526  23890043.727          -2.068
 -17661652.350 8 -11007155.98727  22856738.060        2960.831
  22946467.206 9   2450307.41428  22008718.191       -2647.863
 96  7  1  5 15 45.0020000  0  5G 1G25G15G22G21
  20728258.845 9   5341858.98228  22942028.474        -737.276
   6398524.360 9  -4113275.99729  21642657.990       -1226.626
  -9822566.203 7  -7518492.24726  23890065.612         -10.388
 -17706036.786 8 -11041741.24727  22848291.107        2957.157
  22986246.505 9   2481304.26328  22016287.232       -2655.975
 96  7  1  5 16  0.0020000  0  5G 1G25G15G22G21
  20739320.600 9   5350478.51628  22944135.146        -737.683
   6416956.266 9  -4098913.47229  21646163.193       -1230.948
  -9822349.117 7  -7518323.10026  23890107.643         -18.524
 -17750367.178 8 -11076284.38627  22839853.568        2953.557
  23026144.497 9   2512393.59728  22023880.075       -2663.741
 96  7  1  5 16 15.0020000  0  5G 1G25G15G22G21
  20750392.072 9   5359105.63128  22946242.387        -738.514
   6435454.514 9  -4084499.24129  21649680.898       -1235.471
  -9822009.009 7  -7518058.08426  23890170.569         -26.830
 -17794643.199 8 -11110785.16827  22831435.006        2949.905
  23066157.525 9   2543572.58028  22031495.313       -2671.383
 96  7  1  5 16 30.0020000  0  5G 1G25G15G22G21
  20761474.068 9   5367740.94628  22948351.157        -739.142
   6454020.157 9  -4070032.50629  21653215.331       -1239.869
  -9821544.988 7  -7517696.52726  23890261.466         -35.047
 -17838864.376 8 -11145243.20127  22823017.794        2946.224
  23106286.307 9   2574841.76528  22039131.147       -2679.065
 96  7  1  5 16 45.0020000  0  5G 1G25G15G22G21
  20772565.490 9   5376383.61528  22950456.659        -739.791
   6472651.167 9  -4055514.82529  21656762.265       -1244.265
  -9820957.569 7  -7517238.79026  23890367.683         -43.319
 -17883029.804 8 -11179657.77327  22814611.493        2942.533
  23146530.560 9   2606200.91828  22046787.816       -2686.879
 96  7  1  5 17  0.0020000  0  5G 1G25G15G22G21
  20783664.616 9   5385032.28128  22952569.867        -740.265
   6491346.784 9  -4040946.81829  21660321.851       -1248.536
  -9820247.953 7  -7516685.85826  23890502.799         -51.477
 -17927141.889 8 -11214030.77327  22806216.915        2938.901
  23186890.658 9   2637650.35127  22054468.829       -2694.566
 96  7  1  5 17 15.0020000  0  5G 1G25G15G22G21
  20794771.655 9   5393687.09928  22954681.994        -740.675
   6510107.091 9  -4026328.40329  21663887.703       -1252.823
  -9819414.881 7  -7516036.70826  23890665.347         -59.627
 -17971198.280 8 -11248360.40227  22797832.889        2935.362
  23227366.660 9   2669190.09027  22062172.806       -2702.160
 96  7  1  5 17 30.0020000  0  5G 1G25G15G22G21
  20805887.858 9   5402349.09228  22956795.441        -741.543
   6528932.545 9  -4011659.20729  21667470.702       -1257.177
  -9818458.630 7  -7515291.57926  23890848.430         -67.919
 -18015200.371 8 -11282647.70327  22789461.274        2931.561
  23267955.880 9   2700818.06027  22069894.770       -2709.728
 96  7  1  5 17 45.0020000  0  5G 1G25G15G22G21
  20817016.961 9   5411021.09628  22958917.852        -742.380
   6547821.006 9  -3996940.93429  21671064.764       -1261.290
  -9817379.068 7  -7514450.36726  23891056.366         -76.044
 -18059145.682 8 -11316890.79427  22781094.876        2927.855
  23308658.311 9   2732534.24927  22077642.276       -2717.225
 96  7  1  5 18  0.0020000  0  5G 1G25G15G22G21
  20828160.976 9   5419704.74028  22961036.785        -743.376
   6566775.741 9  -3982171.01729  21674674.145       -1265.895
  -9816175.846 7  -7513512.78726  23891281.420         -84.359
 -18103033.319 8 -11351088.92427  22772746.376        2923.904
  23349474.445 9   2764339.01927  22085408.400       -2724.857
 96  7  1  5 18 15.0020000  0  5G 1G25G15G22G21
  20839316.990 9   5428397.73928  22963162.433        -744.150
   6585797.849 9  -3967348.59129  21678292.520       -1270.392
  -9814849.381 7  -7512479.19526  23891530.787         -92.557
 -18146863.010 8 -11385241.90327  22764405.520        2919.941
  23390402.524 9   2796231.03127  22093195.449       -2732.240
 96  7  1  5 18 30.0020000  0  5G 1G25G15G22G21
  20850482.443 9   5437098.08628  22965290.180        -744.578
   6604887.440 9  -3952473.58529  21681925.166       -1274.834
  -9813399.718 7  -7511349.58126  23891811.393        -100.767
 -18190633.162 8 -11419348.50527  22756077.975        2916.065
  23431442.489 9   2828210.22827  22101006.602       -2739.740
 96  7  1  5 18 45.0020000  0  5G 1G25G15G22G21
  20861652.543 9   5445802.07428  22967411.992        -744.901
   6624041.760 9  -3937548.15829  21685568.214       -1279.033
  -9811827.898 7  -7510124.79226  23892107.648        -108.863
 -18234345.504 9 -11453410.04627  22747760.293        2912.271
  23472595.191 9   2860277.26428  22108834.303       -2747.282
 96  7  1  5 19  0.0020000  0  5G 1G25G15G22G21
  20872830.010 8   5454511.78328  22969533.383        -745.443
   6643258.751 9  -3922573.90229  21689228.679       -1283.157
  -9810133.190 7  -7508804.22726  23892431.454        -117.087
 -18278001.988 9 -11487428.08727  22739448.457        2908.626
  23513861.659 9   2892432.95428  22116691.323       -2754.885
 96  7  1  5 19 15.0020000  0  5G 1G25G15G22G21
  20884014.369 9   5463226.86928  22971665.267        -745.824
   6662536.416 9  -3907552.35729  21692895.651       -1287.194
  -9808315.908 7  -7507388.18126  23892778.823        -125.267
 -18321603.667 9 -11521403.43627  22731153.890        2904.912
  23555241.223 8   2924676.76028  22124560.965       -2762.411
 96  7  1  5 19 30.0020000  0  5G 1G25G15G22G21
  20895204.168 9   5471946.20128  22973798.380        -746.274
   6681874.182 9  -3892483.98429  21696572.905       -1291.247
  -9806376.252 7  -7505876.76226  23893147.628        -133.401
 -18365151.858 8 -11555337.09527  22722865.977        2901.459
  23596731.512 8   2957006.83028  22132460.077       -2769.677
 96  7  1  5 19 45.0020000  0  5G 1G25G15G22G21
  20906403.323 9   5480672.83128  22975926.817        -746.908
   6701275.039 9  -3877366.45929  21700266.558       -1295.466
  -9804312.819 7  -7504268.91526  23893537.148        -141.660
 -18408645.184 9 -11589228.00627  22714588.917        2897.706
  23638334.614 8   2989424.83728  22140371.390       -2777.336
 96  7  1  5 20  0.0020000  0  5G 1G25G15G22G21
  20917609.930 9   5489405.26228  22978056.842        -747.403
   6720738.170 9  -3862200.39929  21703972.952       -1299.617
  -9802127.423 7  -7502565.99326  23893954.549        -149.791
 -18452085.135 8 -11623077.33227  22706320.581        2894.272
  23680050.328 8   3021930.56228  22148312.742       -2784.769
 96  7  1  5 20 15.0020000  0  5G 1G25G15G22G21
  20928825.535 9   5498144.70028  22980196.671        -748.074
   6740261.954 9  -3846987.07629  21707686.301       -1303.502
  -9799819.783 7  -7500767.84626  23894388.499        -157.962
 -18495473.781 8 -11656886.67327  22698070.023        2890.859
  23721876.366 9   3054522.25928  22156272.802       -2792.036
 96  7  1  5 20 30.0020000  0  5G 1G25G15G22G21
  20940051.413 9   5506892.11628  22982330.024        -748.780
   6759841.476 9  -3831730.33129  21711410.623       -1307.074
  -9797389.810 7  -7498874.36426  23894850.449        -166.054
 -18538812.045 8 -11690656.73527  22689821.653        2887.592
  23763811.637 9   3087199.10128  22164254.026       -2799.386
 96  7  1  5 20 45.0020000  0  5G 1G25G15G22G21
  20951289.962 9   5515649.41728  22984472.221        -749.767
   6779473.472 9  -3816432.65829  21715147.806       -1310.543
  -9794838.028 7  -7496885.96126  23895342.199        -174.202
 -18582102.288 8 -11724389.37628  22681581.948        2884.434
  23805859.927 9   3119964.00427  22172254.528       -2807.050
 96  7  1  5 21  0.0020000  0  5G 1G25G15G22G21
  20962545.283 9   5524419.78628  22986611.030        -750.888
   6799159.451 9  -3801092.94529  21718894.582       -1314.177
  -9792163.737 7  -7494802.12126  23895847.679        -182.299
 -18625342.739 8 -11758083.23028  22673356.812        2881.011
  23848022.176 9   3152817.68327  22180281.621       -2814.540
 96  7  1  5 21 15.0020000  0  5G 1G25G15G22G21
  20973817.281 9   5533203.17228  22988760.962        -752.023
   6818901.402 9  -3785709.60629  21722652.451       -1318.070
  -9789367.939 7  -7492623.57526  23896381.220        -190.451
 -18668529.625 8 -11791735.34628  22665132.725        2877.272
  23890295.705 9   3185758.08827  22188324.273       -2821.924
 96  7  1  5 21 30.0020000  0  5G 1G25G15G22G21
  20985104.966 9   5541998.77628  22990901.480        -753.028
   6838701.121 9  -3770281.25529  21726420.992       -1321.823
  -9786450.778 7  -7490350.48426  23896935.746        -198.506
 -18711660.005 8 -11825343.41528  22656928.815        2873.492
  23932678.197 9   3218783.38927  22196387.101       -2829.074
 96  7  1  5 21 45.0020000  0  5G 1G25G15G22G21
  20996411.015 9   5550808.68728  22993055.969        -754.494
   6858556.825 9  -3754809.29029  21730195.858       -1325.540
  -9783411.673 7  -7487982.33826  23897517.463        -206.689
 -18754733.228 8 -11858906.97728  22648731.949        2869.556
  23975170.498 9   3251894.26427  22204477.840       -2836.599
 96  7  1  5 22  0.0020000  0  5G 1G25G15G22G21
  21007737.910 9   5559634.84728  22995210.187        -755.645
   6878465.988 9  -3739295.66429  21733984.845       -1328.924
  -9780250.714 7  -7485519.23626  23898113.390        -214.707
 -18797745.701 8 -11892423.17128  22640546.686        2865.583
  24017775.566 9   3285093.01127  22212582.759       -2843.990
 96  7  1  5 22 15.0020000  0  5G 1G25G15G22G21
  21019081.113 9   5568473.69728  22997373.340        -756.736
   6898425.554 9  -3723742.75729  21737784.055       -1332.387
  -9776968.954 7  -7482962.03526  23898742.085        -222.861
 -18840699.720 8 -11925893.83228  22632371.225        2861.558
  24060491.142 9   3318377.84127  22220712.501       -2851.391
 96  7  1  5 22 30.0020000  0  5G 1G25G15G22G21
  21030438.878 9   5577323.89328  22999529.057        -757.610
   6918438.360 9  -3708148.35129  21741593.308       -1336.020
  -9773564.967 7  -7480309.59926  23899393.954        -231.004
 -18883590.254 8 -11959315.02828  22624211.804        2857.174
  24103319.033 9   3351750.23027  22228859.571       -2858.960
 96  7  1  5 22 45.0020000  0  5G 1G25G15G22G21
  21041808.889 9   5586183.64828  23001695.388        -758.431
   6938508.329 9  -3692509.42029  21745413.503       -1340.011
  -9770039.364 7  -7477562.38126  23900059.253        -239.073
 -18926413.395 8 -11992683.68328  22616062.546        2852.610
  24146262.021 9   3385212.29227  22237035.061       -2866.747
 96  7  1  5 23  0.0020000  0  5G 1G25G15G22G21
  21053189.843 9   5595051.90628  23003862.827        -759.144
   6958638.387 9  -3676823.65529  21749243.142       -1344.112
  -9766393.013 7  -7474721.06626  23900754.082        -247.177
 -18969168.668 8 -12025999.48528  22607925.789        2848.003
  24189318.070 9   3418762.44627  22245227.879       -2874.096
 96  7  1  5 23 15.0020000  0  5G 1G25G15G22G21
  21064579.814 9   5603927.21628  23006026.639        -759.553
   6978830.630 9  -3661089.44329  21753083.454       -1348.085
  -9762625.651 7  -7471785.46426  23901474.573        -255.152
 -19011854.535 8 -12059261.20328  22599800.094        2843.476
  24232483.600 9   3452397.90327  22253441.293       -2881.278
 96  7  1  5 23 30.0020000  0  5G 1G25G15G22G21
  21075978.484 9   5612809.30828  23008194.199        -760.236
   6999081.000 9  -3645309.91329  21756937.136       -1351.911
  -9758737.911 7  -7468756.04526  23902209.185        -263.262
 -19054473.677 8 -12092470.91328  22591691.368        2839.139
  24275758.367 9   3486118.49927  22261675.153       -2888.735
 96  7  1  5 23 45.0020000  0  5G 1G25G15G22G21
  21087386.099 9   5621698.35028  23010367.874        -760.831
   7019387.925 9  -3629486.33229  21760802.870       -1355.605
  -9754729.640 7  -7465632.73126  23902971.707        -271.199
 -19097028.297 9 -12125630.35828  22583600.119        2834.862
  24319145.663 9   3519926.76427  22269932.547       -2896.223
 96  7  1  5 24  0.0020000  0  5G 1G25G15G22G21
  21098804.467 9   5630595.75928  23012539.630        -761.543
   7039752.161 9  -3613618.08929  21764675.259       -1359.573
  -9750601.060 7  -7462415.69426  23903765.408        -279.244
 -19139516.089 9 -12158737.72128  22575512.588        2830.279
  24362645.741 9   3553822.91327  22278208.527       -2903.765
 96  7  1  5 24 15.0020000  0  5G 1G25G15G22G21
  21110229.728 9   5639498.56528  23014712.976        -761.922
   7060177.088 9  -3597702.57029  21768563.477       -1363.749
  -9746352.286 7  -7459104.97126  23904566.633        -287.231
 -19181937.141 9 -12191793.08628  22567438.757        2825.901
  24406257.779 9   3587806.31427  22286509.241       -2911.139
 96  7  1  5 24 30.0020000  0  5G 1G25G15G22G21
  21121662.115 9   5648406.91628  23016891.298        -762.523
   7080664.419 9  -3581738.41329  21772462.428       -1367.964
  -9741983.538 7  -7455700.73126  23905405.422        -295.263
 -19224291.750 9 -12224796.68728  22559376.798        2821.269
  24449979.747 8   3621875.36627  22294823.235       -2918.442
 96  7  1  5 24 45.0020000  0  5G 1G25G15G22G21
  21133105.003 9   5657323.45128  23019063.774        -763.244
   7101213.153 9  -3565726.39729  21776372.411       -1371.828
  -9737494.773 7  -7452203.00326  23906254.914        -303.196
 -19266577.468 8 -12257746.62128  22551327.251        2816.916
  24493810.987 9   3656029.55827  22303167.598       -2925.688
 96  7  1  5 25  0.0020000  0  5G 1G25G15G22G21
  21144559.927 9   5666249.35828  23021248.451        -764.079
   7121819.364 9  -3549669.59029  21780293.397       -1375.638
  -9732886.476 7  -7448612.13126  23907128.030        -311.245
 -19308798.804 9 -12290646.34828  22543296.471        2812.560
  24537750.647 9   3690268.24427  22311529.140       -2932.918
 96  7  1  5 25 15.0020000  0  5G 1G25G15G22G21
  21156028.192 9   5675185.67528  23023429.112        -765.087
   7142479.906 9  -3533570.47029  21784226.314       -1379.168
  -9728158.815 7  -7444928.23526  23908033.223        -319.171
 -19350956.843 9 -12323496.77328  22535275.373        2808.347
  24581796.927 9   3724590.02027  22319912.896       -2940.018
 96  7  1  5 25 30.0020000  0  5G 1G25G15G22G21
  21167512.106 9   5684134.17528  23025612.350        -766.180
   7163192.826 9  -3517430.52129  21788167.925       -1382.571
  -9723311.431 7  -7441151.08926  23908949.629        -327.147
 -19393049.261 9 -12356296.05128  22527264.559        2803.893
  24625951.568 9   3758996.19727  22328311.102       -2947.245
 96  7  1  5 25 45.0020000  0  5G 1G25G15G22G21
  21179014.089 9   5693096.74728  23027804.493        -767.423
   7183958.127 9  -3501249.75829  21792117.121       -1386.127
  -9718344.348 7  -7437280.66026  23909898.502        -335.151
 -19435073.323 9 -12389042.04828  22519267.685        2799.229
  24670215.623 9   3793487.66227  22336738.118       -2954.595
 96  7  1  5 26  0.0020000  0  5G 1G25G15G22G21
  21190533.903 9   5702073.21728  23029995.226        -768.582
   7204775.760 9  -3485028.22229  21796079.568       -1389.528
  -9713257.737 7  -7433317.04926  23910862.604        -343.025
 -19477027.145 9 -12421733.35828  22511282.593        2794.620
  24714587.978 9   3828063.51027  22345180.334       -2961.687
 96  7  1  5 26 15.0020000  0  5G 1G25G15G22G21
  21202071.151 9   5711063.28728  23032193.274        -769.721
   7225644.084 9  -3468767.18929  21800048.610       -1392.884
  -9708052.156 7  -7429260.74926  23911856.116        -351.041
 -19518911.949 9 -12454370.86728  22503310.362        2790.105
  24759066.420 9   3862722.01927  22353643.684       -2968.774
 96  7  1  5 26 30.0020000  0  5G 1G25G15G22G21
  21213624.899 9   5720066.22028  23034391.053        -770.854
   7246560.607 9  -3452468.58629  21804031.323       -1395.968
  -9702727.203 7  -7425111.46126  23912872.473        -358.990
 -19560728.972 9 -12486955.55428  22495355.789        2785.505
  24803650.655 9   3897462.98227  22362128.111       -2975.755
 96  7  1  5 26 45.0020000  0  5G 1G25G15G22G21
  21225197.455 9   5729083.79028  23036595.517        -772.101
   7267523.340 9  -3436133.96529  21808018.983       -1399.027
  -9697283.234 7  -7420869.39526  23913903.939        -366.847
 -19602476.626 9 -12519486.17128  22487410.240        2780.880
  24848338.868 9   3932284.95327  22370629.056       -2982.663
 96  7  1  5 27  0.0020000  0  5G 1G25G15G22G21
  21236787.377 9   5738114.90628  23038796.353        -773.252
   7288532.338 9  -3419763.31529  21812016.925       -1402.223
  -9691720.629 7  -7416534.90726  23914963.705        -374.835
 -19644155.883 9 -12551963.51528  22479480.969        2776.278
  24893131.641 9   3967188.40327  22379158.961       -2989.739
 96  7  1  5 27 15.0020000  0  5G 1G25G15G22G21
  21248393.456 9   5747158.59228  23041005.794        -774.336
   7309589.453 9  -3403355.17029  21816026.499       -1405.550
  -9686039.900 7  -7412108.37526  23916040.110        -382.675
 -19685765.491 9 -12584386.58928  22471562.461        2771.585
  24938028.798 8   4002173.18227  22387695.971       -2996.550
 96  7  1  5 27 30.0020000  0  5G 1G25G15G22G21
  21260016.331 9   5756215.38127  23043213.225        -775.315
   7330697.591 9  -3386907.26329  21820041.949       -1408.856
  -9680240.932 7  -7407589.71926  23917146.524        -390.523
 -19727302.495 9 -12616753.08828  22463655.225        2766.726
  24983028.707 9   4037238.03827  22396265.598       -3003.356
 96  7  1  5 27 45.0020000  0  5G 1G25G15G22G21
  21271652.727 9   5765282.69727  23045430.281        -776.187
   7351856.918 9  -3370419.47029  21824069.631       -1412.284
  -9674323.651 7  -7402978.83126  23918277.851        -398.396
 -19768765.081 9 -12649061.57528  22455770.024        2761.761
  25028131.142 9   4072382.76327  22404845.718       -3010.286
 96  7  1  5 28  0.0020000  0  5G 1G25G15G22G21
  21283301.720 9   5774359.82827  23047647.246        -777.023
   7373067.353 9  -3353891.84529  21828103.998       -1415.792
  -9668287.629 7  -7398275.45326  23919425.786        -406.361
 -19810156.461 9 -12681314.60028  22447892.707        2757.081
  25073337.245 9   4107608.28227  22413447.513       -3017.151
 96  7  1  5 28 15.0020000  0  5G 1G25G15G22G21
  21294962.819 9   5783446.39427  23049866.190        -777.824
   7394329.883 9  -3337323.61929  21832149.487       -1419.302
  -9662133.428 7  -7393479.98826  23920587.152        -414.222
 -19851477.922 9 -12713513.15928  22440027.622        2752.438
  25118646.279 9   4142914.02127  22422071.703       -3024.032
 96  7  1  5 28 30.0020000  0  5G 1G25G15G22G21
  21306637.186 9   5792543.29327  23052091.219        -778.756
   7415646.540 9  -3320713.23029  21836207.658       -1422.911
  -9655860.564 7  -7388592.04326  23921781.855        -422.098
 -19892729.229 9 -12745657.01428  22432177.527        2747.696
  25164058.873 9   4178300.43427  22430712.561       -3030.911
 96  7  1  5 28 45.0020000  0  5G 1G25G15G22G21
  21318325.571 9   5801651.14127  23054312.382        -779.748
   7437018.213 9  -3304059.97129  21840275.032       -1426.594
  -9649469.352 7  -7383611.92026  23923009.985        -429.986
 -19933907.102 9 -12777743.68228  22424343.200        2742.792
  25209574.831 9   4213767.40727  22439372.216       -3037.879
 96  7  1  5 29  0.0020000  0  5G 1G25G15G22G21
  21330031.094 9   5810772.31227  23056542.028        -780.977
   7458445.310 9  -3287363.52429  21844352.180       -1430.342
  -9642959.869 7  -7378539.57326  23924246.179        -437.920
 -19975012.077 9 -12809773.53228  22416520.266        2737.864
  25255197.140 9   4249317.25327  22448055.285       -3045.105
 96  7  1  5 29 15.0020000  0  5G 1G25G15G22G21
  21341754.240 9   5819907.22127  23058775.752        -782.180
   7479927.245 9  -3270624.33929  21848439.460       -1433.918
  -9636332.366 7  -7373375.28226  23925499.731        -445.762
 -20016044.285 9 -12841746.66728  22408713.221        2733.092
  25300927.232 9   4284951.09127  22456755.861       -3052.256
 96  7  1  5 29 30.0020000  0  5G 1G25G15G22G21
  21353496.407 9   5829056.95427  23061006.837        -783.518
   7501463.866 9  -3253842.56829  21852537.533       -1437.655
  -9629587.509 7  -7368119.56826  23926792.136        -453.665
 -20057004.409 9 -12873663.63228  22400916.578        2728.236
  25346764.937 9   4320668.75727  22465478.053       -3059.438
 96  7  1  5 29 45.0020000  0  5G 1G25G15G22G21
  21365259.773 8   5838223.22627  23063242.629        -785.006
   7523054.702 9  -3237018.55129  21856643.011       -1441.158
  -9622725.080 7  -7362772.21826  23928096.593        -461.407
 -20097893.996 9 -12905525.63428  22393136.484        2723.692
  25392711.019 9   4356470.87627  22474226.896       -3066.708
 96  7  1  5 30  0.0020000  0  5G 1G25G15G22G21
  21377046.016 8   5847407.28227  23065486.036        -786.604
   7544697.833 9  -3220153.77829  21860763.988       -1444.714
  -9615746.361 7  -7357334.26126  23929419.697        -469.151
 -20138716.712 9 -12937335.53828  22385367.662        2719.277
  25438766.597 9   4392358.33227  22482990.280       -3074.069
 96  7  1  5 30 15.0020000  0  5G 1G25G15G22G21
  21388857.569 9   5856611.10027  23067736.009        -788.290
   7566396.883 9  -3203245.43429  21864893.989       -1448.609
  -9608651.164 7  -7351805.52726  23930772.751        -476.986
 -20179471.742 9 -12969092.71328  22377615.659        2714.524
  25484932.718 9   4428331.93527  22491772.490       -3081.366
 96  7  1  5 30 30.0020000  0  5G 1G25G15G22G21
  21400694.661 9   5865834.82227  23069996.474        -789.923
   7588155.662 9  -3186290.54829  21869034.512       -1452.486
  -9601437.843 7  -7346184.76326  23932147.719        -484.778
 -20220152.883 9 -13000792.29628  22369866.803        2709.617
  25531209.125 8   4464391.47627  22500578.264       -3088.713
 96  7  1  5 30 45.0020000  0  5G 1G25G15G22G21
  21412553.580 9   5875075.53727  23072246.026        -791.254
   7609970.706 9  -3169291.81929  21873186.878       -1456.150
  -9594108.106 7  -7340473.28226  23933540.645        -492.492
 -20260759.782 8 -13032434.04028  22362141.392        2704.658
  25577593.990 8   4500535.52827  22509402.055       -3095.933
 96  7  1  5 31  0.0020000  0  5G 1G25G15G22G21
  21424432.264 9   5884331.64127  23074505.652        -792.615
   7631840.023 9  -3152250.80929  21877346.528       -1459.756
  -9586662.621 7  -7334671.62326  23934960.642        -500.222
 -20301291.522 8 -13064017.21728  22354430.190        2699.610
  25624087.253 8   4536764.02627  22518252.858       -3103.179
 96  7  1  5 31 15.0020000  0  5G 1G25G15G22G21
  21436330.402 9   5893602.92227  23076766.747        -793.814
   7653764.047 9  -3135167.16229  21881520.898       -1463.463
  -9579101.426 7  -7328779.77826  23936397.787        -507.924
 -20341748.239 8 -13095541.90628  22346732.719        2694.504
  25670688.710 8   4573076.85726  22527122.218       -3110.368
 96  7  1  5 31 30.0020000  0  5G 1G25G15G22G21
  21448245.932 9   5902887.75127  23079040.523        -794.935
   7675744.876 9  -3118039.26129  21885703.663       -1467.196
  -9571424.227 7  -7322797.54226  23937857.146        -515.665
 -20382126.150 9 -13127005.19928  22339053.055        2689.257
  25717396.438 8   4609472.47626  22536010.614       -3117.321
 96  7  1  5 31 45.0020000  0  5G 1G25G15G22G21
  21460177.388 9   5912185.00427  23081306.174        -795.953
   7697780.354 9  -3100868.76229  21889895.181       -1470.787
  -9563631.307 7  -7316725.14326  23939337.042        -523.416
 -20422423.264 9 -13158405.54928  22331383.405        2683.709
  25764207.975 8   4645948.98526  22544914.331       -3124.181
 96  7  1  5 32  0.0020000  0  5G 1G25G15G22G21
  21472124.691 9   5921494.59227  23083580.760        -796.874
   7719867.691 9  -3083657.86929  21894100.220       -1474.100
  -9555721.856 7  -7310561.94726  23940853.932        -531.106
 -20462636.228 9 -13189740.34729  22323727.605        2678.068
  25811123.058 8   4682506.19226  22553844.998       -3131.062
 96  7  1  5 32 15.0020000  0  5G 1G25G15G22G21
  21484083.098 9   5930812.82527  23085862.780        -797.542
   7742003.637 9  -3066409.09129  21898310.595       -1477.373
  -9547697.307 7  -7304309.06126  23942369.652        -538.857
 -20502762.691 9 -13221007.69529  22316094.529        2672.082
  25858140.412 8   4719143.08926  22562792.694       -3137.816
 96  7  1  5 32 30.0020000  0  5G 1G25G15G22G21
  21496050.150 9   5940137.81127  23088132.089        -798.148
   7764187.267 9  -3049123.15729  21902532.932       -1480.384
  -9539557.620 7  -7297966.44326  23943919.909        -546.478
 -20542798.806 9 -13252204.65829  22308475.274        2666.086
  25905255.019 9   4755855.76626  22571756.068       -3144.174
 96  7  1  5 32 45.0020000  0  5G 1G25G15G22G21
  21508028.014 9   5949471.20727  23090415.098        -799.005
   7786413.195 9  -3031804.25329  21906759.706       -1483.064
  -9531302.730 7  -7291534.08126  23945491.691        -554.206
 -20582745.273 9 -13283331.78729  22300874.576        2660.110
  25952466.359 9   4792643.82626  22580739.679       -3150.704
 96  7  1  5 33  0.0020000  0  5G 1G25G15G22G21
  21520020.715 9   5958816.16827  23092696.279        -800.067
   7808678.959 9  -3014454.30929  21910998.981       -1485.734
  -9522933.117 7  -7285012.32326  23947084.159        -561.808
 -20622602.988 9 -13314389.76229  22293286.049        2654.251
  25999775.508 9   4829508.07726  22589741.667       -3157.202
 96  7  1  5 33 15.0020000  0  5G 1G25G15G22G21
  21532030.266 9   5968174.26128  23094981.627        -801.229
   7830984.972 9  -2997072.98829  21915243.922       -1488.367
  -9514449.270 7  -7278401.52026  23948696.892        -569.351
 -20662374.265 9 -13345380.34629  22285719.797        2648.610
  26047181.528 9   4866447.83726  22598766.649       -3163.535
 96  7  1  5 33 30.0020000  0  5G 1G25G15G22G21
  21544056.767 8   5977545.55028  23097270.183        -802.385
   7853331.741 9  -2979659.92629  21919498.547       -1491.177
  -9505852.064 7  -7271702.39426  23950326.144        -577.020
 -20702061.068 9 -13376305.13929  22278164.907        2642.940
  26094682.104 8   4903461.25926  22607804.852       -3169.848
 96  7  1  5 33 45.0020000  0  5G 1G25G15G22G21
  21556100.983 9   5986930.64028  23099565.783        -803.600
   7875719.531 9  -2962214.89029  21923753.501       -1493.917
  -9497140.494 7  -7264914.17326  23951993.380        -584.609
 -20741664.302 9 -13407164.80229  22270629.024        2637.454
  26142275.949 8   4940547.34726  22616858.764       -3176.087
 96  7  1  5 34  0.0020000  0  6G 1G14G25G15G22G21
  21568162.897 9   5996329.54728  23101857.757        -804.723
  -3874404.510 7  -4987976.77424  25005428.852        3128.927
   7898148.929 9  -2944737.45129  21928024.225       -1496.670
  -9488314.885 7  -7258037.07026  23953674.586        -592.182
 -20781186.449 8 -13437961.28729  22263105.883        2632.186
  26189964.900 8   4977707.55826  22625935.071       -3182.456
 96  7  1  5 34 15.0020000  0  6G 1G14G25G15G22G21
  21580243.901 8   6005743.33428  23104151.409        -806.108
  -3921329.593 7  -5024541.73124  24996503.850        3127.681
   7920622.062 9  -2927225.90729  21932301.634       -1499.740
  -9479375.490 7  -7251071.32526  23955371.801        -599.798
 -20820630.414 8 -13468696.85529  22255603.546        2626.974
  26237750.436 8   5014943.04026  22635031.014       -3188.933
 96  7  1  5 34 30.0020000  0  6G 1G14G25G15G22G21
  21592346.118 9   6015173.64028  23106459.331        -807.545
  -3968235.432 7  -5061091.77424  24987576.391        3126.385
   7943142.241 9  -2909677.70829  21936584.978       -1502.972
  -9470321.858 7  -7244016.55126  23957090.032        -607.353
 -20859996.786 9 -13499371.92629  22248111.133        2621.901
  26285631.674 8   5052253.09726  22644139.608       -3195.238
 96  7  1  5 34 45.0020000  0  6G 1G14G25G15G22G21
  21604470.795 9   6024621.41728  23108768.902        -809.128
  -4015121.924 7  -5097626.66324  24978657.835        3125.191
   7965710.219 9  -2892092.27029  21940880.105       -1506.050
  -9461154.748 7  -7236873.36626  23958835.723        -614.910
 -20899290.038 8 -13529990.02629  22240634.339        2617.188
  26333607.886 8   5089637.13426  22653269.368       -3201.644
 96  7  1  5 35  0.0020000  0  6G 1G14G25G15G22G21
  21616619.025 9   6034087.60328  23111081.291        -810.610
  -4061989.167 7  -5134146.64224  24969738.320        3123.777
   7988326.023 9  -2874469.57429  21945182.516       -1509.376
  -9451874.177 7  -7229641.74126  23960608.096        -622.452
 -20938511.938 9 -13560552.54829  22233170.346        2612.385
  26381682.390 8   5127097.78526  22662417.415       -3208.182
 96  7  1  5 35 15.0020000  0  6G 1G14G25G15G22G21
  21628787.980 8   6043569.90228  23113388.104        -811.841
  -4108832.926 7  -5170648.23725  24960823.841        3122.031
   8010993.530 9  -2856806.58129  21949499.378       -1512.897
  -9442480.484 7  -7222321.99626  23962396.598        -630.036
 -20977662.942 9 -13591059.81629  22225721.493        2607.697
  26429853.894 8   5164634.02426  22671585.038       -3214.600
 96  7  1  5 35 30.0020000  0  6G 1G14G25G15G22G21
  21640975.012 9   6053066.29027  23115708.348        -813.050
  -4155653.618 7  -5207131.92025  24951914.969        3120.768
   8033712.707 9  -2839103.31429  21953822.415       -1516.248
  -9432973.524 7  -7214913.97326  23964200.809        -637.510
 -21016742.404 9 -13621511.35529  22218285.501        2602.884
  26478119.693 8   5202243.73026  22680766.992       -3220.802
 96  7  1  5 35 45.0020000  0  6G 1G14G25G15G22G21
  21653180.166 9   6062576.80227  23118037.286        -814.332
  -4202452.590 7  -5243598.63725  24943006.576        3119.149
   8056483.218 9  -2821360.06229  21958155.046       -1519.789
  -9423353.380 7  -7207417.76226  23966034.220        -645.176
 -21055747.112 9 -13651904.63529  22210860.661        2597.721
  26526479.690 8   5239926.82726  22689973.498       -3227.256
 96  7  1  5 36  0.0020000  0  6G 1G14G25G15G22G21
  21665404.813 9   6072102.49827  23120362.026        -815.709
  -4249228.248 7  -5280047.19525  24934101.001        3117.497
   8079304.879 9  -2803576.95729  21962495.201       -1523.132
  -9413619.820 7  -7199833.17826  23967893.083        -652.655
 -21094674.249 9 -13682237.45429  22203453.239        2592.543
  26574936.401 9   5277685.29026  22699193.256       -3233.701
 96  7  1  5 36 15.0020000  0  6G 1G14G25G15G22G21
  21677651.894 9   6081645.69027  23122692.793        -817.276
  -4295977.157 7  -5316474.92125  24925208.737        3115.712
   8102176.187 9  -2785755.16329  21966848.757       -1526.343
  -9403773.121 7  -7192160.41126  23969761.959        -660.177
 -21133522.820 9 -13712509.06129  22196062.396        2587.251
  26623490.279 9   5315519.49726  22708433.818       -3240.085
 96  7  1  5 36 30.0020000  0  6G 1G14G25G15G22G21
  21689922.967 9   6091207.56127  23125028.836        -818.877
  -4342698.654 7  -5352881.32525  24916316.263        3113.822
   8125095.615 9  -2767895.87629  21971210.318       -1529.569
  -9393813.803 7  -7184399.92226  23971660.155        -667.729
 -21172290.588 9 -13742717.71829  22188686.932        2581.731
  26672139.211 8   5353427.74626  22717688.711       -3246.456
 96  7  1  5 36 45.0020000  0  6G 1G14G25G15G22G21
  21702216.734 9   6100787.10327  23127368.296        -820.328
  -4389390.729 7  -5389264.77725  24907434.192        3111.789
   8148062.520 9  -2749999.58529  21975580.692       -1532.665
  -9383742.241 7  -7176551.96926  23973572.291        -675.163
 -21210973.987 9 -13772860.61829  22181324.419        2576.077
  26720882.873 8   5391409.81626  22726965.279       -3252.771
 96  7  1  5 37  0.0020000  0  6G 1G14G25G15G22G21
  21714532.944 9   6110384.15927  23129710.275        -821.824
  -4436051.727 7  -5425623.96625  24898550.262        3109.752
   8171074.698 9  -2732068.02729  21979960.270       -1535.568
  -9373558.466 7  -7168616.57426  23975507.512        -682.650
 -21249571.851 9 -13802936.87829  22173979.324        2570.260
  26769722.070 8   5429466.32126  22736260.464       -3259.095
 96  7  1  5 37 15.0020000  0  6G 1G14G25G15G22G21
  21726871.984 8   6119998.99927  23132054.742        -823.452
  -4482681.759 7  -5461959.04925  24889683.001        3107.516
   8194130.517 9  -2714102.44829  21984347.073       -1538.560
  -9363262.777 7  -7160593.95126  23977469.713        -690.194
 -21288080.068 9 -13832943.27329  22166652.036        2564.145
  26818656.210 8   5467596.81226  22745570.189       -3265.489
 96  7  1  5 37 30.0020000  0  6G 1G14G25G15G22G21
  21739235.843 8   6129633.17227  23134409.971        -825.224
  -4529279.111 7  -5498268.69225  24880814.750        3105.429
   8217229.703 9  -2696103.09029  21988742.840       -1541.419
  -9352854.892 7  -7152483.91826  23979445.315        -697.662
 -21326496.134 9 -13862877.86429  22159341.087        2557.890
  26867685.218 8   5505801.22126  22754903.388       -3271.847
 96  7  1  5 37 45.0020000  0  6G 1G14G25G15G22G21
  21751627.854 9   6139289.28927  23136767.809        -827.110
  -4575846.506 7  -5534554.94525  24871957.412        3103.467
   8240371.855 9  -2678070.24929  21993145.922       -1544.265
  -9342335.315 7  -7144286.84926  23981449.368        -705.024
 -21364817.984 9 -13892739.01629  22152047.916        2551.708
  26916811.195 8   5544081.16926  22764254.425       -3278.405
 96  7  1  5 38  0.0020000  0  6G 1G14G25G15G22G21
  21764048.703 9   6148967.88727  23139130.683        -829.029
  -4622381.718 7  -5570816.21325  24863101.783        3101.308
   8263556.624 9  -2660004.20029  21997559.586       -1546.998
  -9331705.032 7  -7136003.51326  23983473.807        -712.375
 -21403049.122 9 -13922529.49629  22144772.973        2545.755
  26966036.946 8   5582438.87026  22773619.701       -3285.064
 96  7  1  5 38 15.0020000  0  6G 1G14G25G15G22G21
  21776499.306 8   6158669.65927  23141502.431        -831.083
  -4668887.449 7  -5607054.43425  24854248.852        3099.473
   8286781.122 9  -2641907.18529  22001978.377       -1549.636
  -9320964.228 7  -7127634.05626  23985512.036        -719.757
 -21441190.920 9 -13952250.36629  22137516.916        2539.802
  27015362.242 8   5620874.15426  22783001.196       -3291.626
 96  7  1  5 38 30.0020000  0  6G 1G14G25G15G22G21
  21788979.499 8   6168394.46527  23143875.918        -832.970
  -4715367.444 7  -5643272.58925  24845400.927        3097.929
   8310044.706 9  -2623779.72229  22006406.582       -1552.234
  -9310112.905 7  -7119178.47726  23987577.696        -727.091
 -21479242.596 9 -13981901.00829  22130273.810        2533.717
  27064785.307 8   5659385.59726  22792411.382       -3298.136
 96  7  1  5 38 45.0020000  0  6G 1G14G25G15G22G21
  21801487.200 8   6178140.70827  23146253.782        -834.693
  -4761824.977 7  -5679473.27725  24836564.484        3096.468
   8333348.344 9  -2605621.05529  22010838.893       -1554.827
  -9299151.058 7  -7110636.79726  23989667.099        -734.395
 -21517203.015 9 -14011480.57429  22123052.439        2527.753
  27114306.778 8   5697973.75826  22801829.872       -3304.638
 96  7  1  5 39  0.0020000  0  6G 1G14G25G15G22G21
  21814020.574 8   6187906.97827  23148641.509        -836.504
  -4808261.410 7  -5715657.53625  24827724.024        3095.101
   8356690.274 9  -2587432.54129  22015284.246       -1557.447
  -9288079.637 7  -7102009.74126  23991774.670        -741.791
 -21555074.021 9 -14040990.44429  22115844.350        2521.754
  27163924.976 8   5736637.28026  22811273.664       -3311.101
 96  7  1  5 39 15.0020000  0  6G 1G14G25G15G22G21
  21826582.938 8   6197695.82827  23151035.502        -838.473
  -4854678.521 7  -5751826.72025  24818895.496        3093.879
   8380072.162 9  -2569212.87829  22019731.877       -1560.162
  -9276897.824 7  -7093296.62626  23993902.717        -749.156
 -21592854.884 9 -14070430.07829  22108652.658        2515.678
  27213640.516 8   5775376.65326  22820735.114       -3317.591
 96  7  1  5 39 30.0020000  0  6G 1G14G25G15G22G21
  21839174.427 8   6207507.38527  23153430.454        -840.386
  -4901076.695 7  -5787981.11525  24810067.718        3092.507
   8403496.841 9  -2550959.88329  22024188.621       -1563.161
  -9265606.233 7  -7084497.98626  23996049.471        -756.485
 -21630545.667 9 -14099799.51129  22101483.931        2509.818
  27263454.412 8   5814192.65626  22830212.753       -3324.192
 96  7  1  5 39 45.0020000  0  6G 1G14G25G15G22G21
  21851793.574 8   6217340.47327  23155829.573        -842.179
  -4947456.173 7  -5824120.97525  24801234.932        3091.415
   8426965.855 9  -2532672.35029  22028656.399       -1566.013
  -9254205.074 7  -7075613.95926  23998221.437        -763.725
 -21668150.371 9 -14129101.89029  22094325.547        2504.155
  27313367.078 8   5853085.63526  22839711.827       -3330.806
 96  7  1  5 40  0.0020000  0  6G 1G14G25G15G22G21
  21864438.835 8   6227193.92827  23158236.127        -843.813
  -4993817.163 7  -5860246.42824  24792416.837        3090.063
   8450477.012 9  -2514351.96829  22033127.353       -1568.755
  -9242694.525 7  -7066644.70226  24000411.091        -770.990
 -21705670.329 9 -14158338.22229  22087189.257        2498.567
  27363377.758 8   5892054.98726  22849227.569       -3337.228
 96  7  1  5 40 15.0020000  0  6G 1G14G25G15G22G21
  21877107.090 8   6237065.27327  23160648.377        -845.300
  -5040156.498 7  -5896355.03224  24783596.073        3088.555
   8474028.578 9  -2496000.11029  22037606.672       -1571.381
  -9231074.619 7  -7057590.25226  24002620.442        -778.325
 -21743104.747 9 -14187507.87229  22080063.760        2492.631
  27413483.640 8   5931098.55226  22858762.018       -3343.466
 96  7  1  5 40 30.0020000  0  6G 1G14G25G15G22G21
  21889796.926 8   6246953.46127  23163064.554        -846.706
  -5086474.194 7  -5932446.76824  24774779.297        3087.050
   8497621.166 9  -2477616.27829  22042100.681       -1574.319
  -9219345.740 7  -7048450.89126  24004858.272        -785.537
 -21780448.978 9 -14216607.28129  22072956.160        2486.607
  27463680.331 8   5970212.82826  22868314.665       -3349.483
 96  7  1  5 40 45.0020000  0  6G 1G14G25G15G22G21
  21902507.177 8   6256857.53927  23165479.562        -847.984
  -5132767.442 7  -5968519.41024  24765969.956        3085.300
   8521259.196 9  -2459197.04229  22046596.219       -1577.423
  -9207508.279 7  -7039226.86926  24007105.757        -792.814
 -21817702.871 9 -14245636.30129  22065863.670        2480.568
  27513967.650 8   6009397.75026  22877885.330       -3355.588
 96  7  1  5 41  0.0020000  0  6G 1G14G25G15G22G21
  21915236.784 8   6266776.70727  23167902.305        -849.278
  -5179031.164 7  -6004569.08024  24757167.420        3083.157
   8544944.251 9  -2440741.15629  22051104.588       -1580.554
  -9195562.127 7  -7029918.18126  24009383.700        -800.056
 -21854866.994 9 -14274595.35729  22058798.731        2474.641
  27564347.919 8   6048655.08726  22887468.225       -3361.774
 96  7  1  5 41 15.0020000  0  6G 1G14G25G15G22G21
  21927986.048 8   6276711.18027  23170326.337        -850.721
  -5225261.956 7  -6040593.07124  24748371.959        3080.880
   8568675.286 9  -2422249.44129  22055620.182       -1583.636
  -9183508.035 7  -7020525.39326  24011674.234        -807.219
 -21891941.186 9 -14303484.35029  22051741.107        2468.574
  27614821.639 8   6087985.25526  22897081.640       -3368.063
 96  7  1  5 41 30.0020000  0  6G 1G14G25G15G22G21
  21940756.317 8   6286662.05427  23172760.712        -851.997
  -5271457.765 7  -6076589.88424  24739575.778        3078.503
   8592452.500 9  -2403721.74929  22060151.125       -1586.660
  -9171345.837 7  -7011048.35126  24013993.158        -814.448
 -21928924.406 9 -14332302.44929  22044704.499        2462.480
  27665390.244 8   6127389.37726  22906702.040       -3374.370
 96  7  1  5 41 45.0020000  0  6G 1G14G25G15G22G21
  21953544.416 8   6296626.79227  23175196.555        -853.182
  -5317616.585 7  -6112557.77124  24730796.026        3075.983
   8616274.908 9  -2385158.83829  22064676.372       -1589.654
  -9159075.661 7  -7001487.16726  24016325.904        -821.619
 -21965815.853 9 -14361049.01629  22037683.689        2456.263
  27716052.554 8   6166866.47226  22916343.036       -3380.563
 96  7  1  5 42  0.0020000  0  6G 1G14G25G15G22G21
  21966351.271 8   6306606.14427  23177628.951        -854.473
  -5363738.425 7  -6148496.86524  24722021.311        3073.581
   8640141.233 9  -2366561.71229  22069221.976       -1592.531
  -9146698.042 7  -6991842.29526  24018676.726        -828.740
 -22002610.743 9 -14389720.35129  22030684.075        2449.699
  27766806.737 8   6206415.17326  22926001.060       -3386.640
 96  7  1  5 42 15.0020000  0  6G 1G14G25G15G22G21
  21979178.620 8   6316601.46727  23180067.253        -855.872
  -5409821.135 7  -6184405.49124  24713252.681        3070.845
   8664052.387 9  -2347929.63029  22073770.127       -1595.654
  -9134212.918 7  -6982113.62726  24021058.098        -835.947
 -22039304.192 9 -14418312.63829  22023696.812        2442.754
  27817652.236 8   6246035.05526  22935675.572       -3392.749
 96  7  1  5 42 30.0020000  0  6G 1G14G25G15G22G21
  21992027.339 8   6326613.45227  23182514.189        -857.383
  -5455864.954 7  -6220283.82924  24704487.529        3068.321
   8688011.024 9  -2329260.55629  22078332.908       -1598.841
  -9121620.884 7  -6972301.63726  24023452.420        -843.083
 -22075892.915 9 -14446823.32429  22016737.160        2435.728
  27868589.172 8   6285726.18926  22945368.402       -3398.904
 96  7  1  5 42 45.0020000  0  6G 1G14G25G15G22G21
  22004899.718 8   6336643.87127  23184964.753        -858.989
  -5501871.924 7  -6256133.39125  24695737.577        3065.907
   8712016.242 9  -2310555.19629  22082898.178       -1601.798
  -9108921.972 7  -6962406.39326  24025865.719        -850.106
 -22112378.778 9 -14475253.84929  22009793.307        2429.057
  27919620.089 8   6325490.50926  22955080.928       -3405.294
 96  7  1  5 43  0.0020000  0  6G 1G14G25G15G22G21
  22017796.548 8   6346693.37027  23187419.154        -860.620
  -5547839.948 7  -6291952.61925  24686991.401        3063.194
   8736063.181 9  -2291817.30929  22087475.409       -1604.442
  -9096116.744 7  -6952428.31226  24028305.760        -857.218
 -22148763.980 9 -14503605.94229  22002869.900        2422.288
  27970748.055 8   6365330.47226  22964810.722       -3411.732
 96  7  1  5 43 15.0020000  0  6G 1G14G25G15G22G21
  22030718.760 9   6356762.59927  23189879.670        -862.427
  -5593769.590 7  -6327741.94125  24678248.734        3060.716
   8760148.023 9  -2273049.90029  22092057.227       -1606.932
  -9083206.192 7  -6942368.15026  24030763.099        -864.229
 -22185049.214 9 -14531880.13229  21995961.213        2415.629
  28021970.462 9   6405244.01326  22974558.144       -3417.923
 96  7  1  5 43 30.0020000  0  6G 1G14G25G15G22G21
  22043667.696 9   6366852.66127  23192342.915        -864.119
  -5639661.822 7  -6363502.13125  24669515.570        3058.286
   8784271.313 9  -2254252.53829  22096648.279       -1609.510
  -9070189.958 7  -6932225.59826  24033238.845        -871.310
 -22221232.840 9 -14560075.15729  21989079.267        2408.861
  28073283.958 8   6445228.57026  22984319.087       -3423.887
 96  7  1  5 43 45.0020000  0  6G 1G14G25G15G22G21
  22056641.416 9   6376962.05927  23194811.196        -865.754
  -5685518.429 7  -6399234.55125  24660787.022        3055.874
   8808432.977 9  -2235425.26829  22101245.986       -1612.072
  -9057067.877 7  -6922000.62326  24035736.086        -878.342
 -22257315.962 9 -14588191.88029  21982212.611        2402.170
  28124685.821 8   6485281.96726  22994100.625       -3429.661
 96  7  1  5 44  0.0020000  0  6G 1G14G25G15G22G21
  22069640.148 9   6387090.95527  23197290.900        -867.463
  -5731338.795 7  -6434938.72325  24652068.698        3053.516
   8832632.747 9  -2216568.29329  22105850.468       -1614.572
  -9043839.953 7  -6911693.19026  24038251.825        -885.397
 -22293299.220 9 -14616230.78529  21975363.432        2395.652
  28176174.170 8   6525402.74426  23003899.552       -3435.451
 96  7  1  5 44 15.0020000  0  6G 1G14G25G15G22G21
  22082664.272 8   6397239.59827  23199761.399        -869.128
  -5777124.915 7  -6470616.23425  24643360.297        3051.254
   8856868.901 9  -2197682.97629  22110461.966       -1616.878
  -9030506.405 7  -6901303.38026  24040787.379        -892.467
 -22329186.960 9 -14644195.26929  21968536.379        2389.371
  28227749.740 9   6565591.47426  23013716.346       -3441.310
 96  7  1  5 44 30.0020000  0  6G 1G14G25G15G22G21
  22095712.131 8   6407406.76327  23202242.991        -870.721
  -5822877.482 7  -6506267.56525  24634651.086        3049.071
   8881138.220 9  -2178771.82329  22115084.616       -1619.086
  -9017067.261 7  -6890831.32026  24043346.887        -899.520
 -22364982.765 9 -14672088.12229  21961720.747        2383.343
  28279410.968 9   6605846.96626  23023545.311       -3446.920
 96  7  1  5 44 45.0020000  0  6G 1G14G25G15G22G21
  22108784.612 9   6417593.12227  23204736.095        -872.370
  -5868597.676 7  -6541893.67925  24625946.642        3046.889
   8905439.483 9  -2159835.77529  22119703.218       -1621.133
  -9003523.077 7  -6880277.41026  24045923.334        -906.484
 -22400689.601 9 -14699911.61829  21954927.330        2377.501
  28331155.893 8   6646167.69626  23033388.967       -3452.471
 96  7  1  5 45  0.0020000  0  6G 1G14G25G15G22G21
  22121882.521 8   6427799.28727  23207221.585        -874.102
  -5914285.270 7  -6577494.42625  24617257.307        3044.698
   8929771.595 9  -2140875.67129  22124334.892       -1623.273
  -8989874.708 7  -6869642.33126  24048517.917        -913.361
 -22436309.022 9 -14727666.99329  21948148.063        2371.712
  28382983.782 8   6686553.05226  23043252.528       -3457.920
 96  7  1  5 45 15.0020000  0  6G 1G14G25G15G22G21
  22135007.054 8   6438026.17727  23209719.426        -875.948
  -5959940.124 7  -6613069.66825  24608570.641        3042.668
   8954139.222 9  -2121887.91629  22128971.812       -1625.829
  -8976122.676 7  -6858926.47626  24051134.296        -920.322
 -22471838.793 9 -14755352.51829  21941387.204        2365.560
  28434891.055 8   6727000.27326  23053129.401       -3463.086
 96  7  1  5 45 30.0020000  0  6G 1G14G25G15G22G21
  22148159.401 9   6448274.75127  23212227.219        -877.716
  -6005564.752 7  -6648621.29425  24599887.482        3040.695
   8978546.227 9  -2102869.46629  22133615.477       -1628.401
  -8962266.502 7  -6848129.46226  24053778.166        -927.206
 -22507275.737 9 -14782965.72729  21934643.342        2359.309
  28486875.781 8   6767507.83126  23063022.582       -3468.276
 96  7  1  5 45 45.0020000  0  6G 1G14G25G15G22G21
  22161339.190 9   6458544.72127  23214737.741        -879.597
  -6051160.631 7  -6684150.55125  24591207.681        3038.851
   9002991.085 9  -2083821.53929  22138267.356       -1630.822
  -8948306.303 7  -6837251.39526  24056431.899        -934.099
 -22542617.512 9 -14810504.77629  21927923.464        2352.962
  28538939.573 8   6808077.02526  23072932.761       -3473.521
 96  7  1  5 46  0.0020000  0  6G 1G14G25G15G22G21
  22174549.758 8   6468838.66527  23217244.756        -881.883
  -6096727.698 7  -6719657.34825  24582542.090        3036.769
   9027472.948 9  -2064744.75429  22142928.560       -1633.452
  -8934242.935 7  -6826292.92226  24059101.221        -940.997
 -22577863.260 9 -14837968.99529  21921214.679        2346.432
  28591083.901 8   6848708.94626  23082852.714       -3478.989
 96  7  1  5 46 15.0020000  0  6G 1G14G25G15G22G21
  22187796.219 8   6479160.58527  23219770.567        -884.307
  -6142263.268 7  -6755139.62325  24573873.531        3034.685
   9051994.600 9  -2045636.97529  22147596.148       -1636.062
  -8920076.059 7  -6815253.79526  24061805.978        -947.891
 -22613010.149 9 -14865356.16529  21914526.189        2339.809
  28643312.194 8   6889406.29126  23092791.853       -3484.691
 96  7  1  5 46 30.0020000  0  6G 1G14G25G15G22G21
  22201080.845 8   6489512.22727  23222296.679        -886.955
  -6187766.579 7  -6790596.78525  24565216.754        3032.397
   9076555.066 9  -2026498.96329  22152266.615       -1638.660
  -8905805.958 7  -6804134.24426  24064522.518        -954.763
 -22648054.571 9 -14892663.49929  21907855.717        2332.794
  28695624.272 8   6930168.92926  23102752.187       -3490.176
 96  7  1  5 46 45.0020000  0  6G 1G14G25G15G22G21
  22214405.839 8   6499895.33627  23224833.193        -889.710
  -6233233.528 7  -6826025.54725  24556564.864        3029.883
   9101156.254 9  -2007329.20229  22156950.123       -1641.477
  -8891433.362 7  -6792934.81526  24067251.918        -961.619
 -22682992.621 9 -14919887.94329  21901206.590        2325.631
  28748018.287 8   6970995.42126  23112715.400       -3495.740
 96  7  1  5 47  0.0020000  0  6G 1G14G25G15G22G21
  22227771.294 8   6510309.97327  23227375.523        -892.314
  -6278662.832 7  -6861425.03225  24547911.145        3027.354
   9125800.203 9  -1988126.12729  22161640.526       -1644.312
  -8876958.007 7  -6781655.31226  24070008.150        -968.469
 -22717822.696 9 -14947028.26429  21894579.888        2318.344
  28800497.478 8   7011888.29026  23122705.054       -3501.525
 96  7  1  5 47 15.0020000  0  6G 1G14G25G15G22G21
  22241175.653 8   6520754.92927  23229926.546        -894.896
  -6324054.192 7  -6896794.93725  24539278.411        3024.814
   9150486.766 9  -1968889.83529  22166334.676       -1647.137
  -8862379.453 7  -6770295.42826  24072781.320        -975.457
 -22752542.651 9 -14974082.75929  21887976.149        2310.945
  28853063.006 8   7052848.41826  23132705.291       -3507.232
 96  7  1  5 47 30.0020000  0  6G 1G14G25G15G22G21
  22254614.674 8   6531226.88927  23232482.727        -896.953
  -6369408.440 7  -6932135.91225  24530650.384        3022.427
   9175210.840 9  -1949624.32229  22171040.728       -1649.259
  -8847698.389 7  -6758855.62626  24075565.013        -982.082
 -22787152.429 9 -15001051.40929  21881387.641        2303.721
  28905713.292 8   7093874.63926  23142723.066       -3512.791
 96  7  1  5 47 45.0020000  0  6G 1G14G25G15G22G21
  22268085.282 8   6541723.45327  23235046.282        -899.088
  -6414725.269 7  -6967447.73525  24522023.886        3019.774
   9199965.159 9  -1930335.24729  22175751.097       -1651.272
  -8832916.074 7  -6747336.93625  24078381.054        -988.821
 -22821654.734 9 -15027936.31129  21874822.066        2296.629
  28958449.335 8   7134967.64026  23152760.627       -3518.650
 96  7  1  5 48  0.0020000  0  6G 1G14G25G15G22G21
  22281587.566 8   6552244.71827  23237615.683        -901.125
  -6460000.452 7  -7002727.09325  24513409.919        3016.916
   9224749.498 9  -1911022.76729  22180466.832       -1653.293
  -8818032.762 7  -6735739.57025  24081225.455        -995.521
 -22856051.805 9 -15054739.22329  21868278.196        2289.712
  29011271.351 7   7176127.61726  23162811.080       -3524.285
 96  7  1  5 48 15.0020000  0  6G 1G14G25G15G22G21
  22295119.430 8   6562789.02826  23240192.040        -903.056
  -6505232.052 6  -7037972.45825  24504799.310        3014.070
   9249566.239 9  -1891685.04029  22185189.583       -1655.544
  -8803047.987 7  -6724063.12625  24084069.256       -1002.344
 -22890344.758 9 -15081460.99929  21861750.845        2282.735
  29064179.818 7   7217354.95126  23172881.048       -3530.062
 96  7  1  5 48 30.0020000  0  6G 1G14G25G15G22G21
  22308677.067 8   6573353.40726  23242770.285        -904.635
  -6550422.716 7  -7073185.94025  24496204.351        3011.410
   9274414.116 9  -1872323.05729  22189919.378       -1657.481
  -8787961.862 7  -6712307.70525  24086946.364       -1009.113
 -22924533.179 9 -15108101.32829  21855245.079        2275.718
  29117173.069 7   7258648.39126  23182968.855       -3535.682
 96  7  1  5 48 45.0020000  0  6G 1G14G25G15G22G21
  22322258.301 8   6583936.18526  23245356.804        -906.084
  -6595572.649 7  -7108367.70925  24487610.980        3008.725
   9299291.649 9  -1852937.95729  22194651.273       -1659.492
  -8772774.391 7  -6700473.29025  24089836.843       -1015.802
 -22958617.819 9 -15134660.79129  21848761.497        2268.994
  29170249.627 8   7300006.74626  23193062.267       -3541.116
 96  7  1  5 49  0.0020000  0  6G 1G14G25G15G22G21
  22335859.046 8   6594534.17826  23247941.285        -907.337
  -6640684.997 7  -7143520.21425  24479029.301        3006.333
   9324200.362 9  -1833528.58129  22199393.390       -1661.616
  -8757486.570 7  -6688560.71225  24092746.898       -1022.557
 -22992602.374 9 -15161142.26129  21842292.276        2262.345
  29223409.811 8   7341430.25226  23203184.999       -3546.871
 96  7  1  5 49 15.0020000  0  6G 1G14G25G15G22G21
  22349479.818 8   6605147.76426  23250535.569        -908.802
  -6685761.853 6  -7178644.99525  24470442.465        3003.842
   9349139.260 9  -1814095.65829  22204140.453       -1663.579
  -8742098.187 7  -6676569.80525  24095671.674       -1029.293
 -23026489.108 9 -15187547.51029  21835843.980        2255.801
  29276655.089 7   7382920.07526  23213311.659       -3552.484
 96  7  1  5 49 30.0020000  0  6G 1G14G25G15G22G21
  22363121.870 8   6615777.91626  23253129.433        -910.164
  -6730801.413 7  -7213740.74225  24461880.542        3001.352
   9374106.518 9  -1794640.65229  22208888.147       -1665.436
  -8726610.365 7  -6664501.37225  24098627.477       -1035.791
 -23060278.542 9 -15213876.93429  21829413.492        2249.402
  29329981.905 7   7424473.40826  23223459.843       -3557.754
 96  7  1  5 49 45.0020000  0  6G 1G14G25G15G22G21
  22376786.725 8   6626425.84226  23255732.052        -911.871
  -6775801.979 7  -7248806.11925  24453319.099        2998.755
   9399103.921 9  -1775162.15329  22213648.011       -1667.605
  -8711023.235 7  -6652355.54125  24101586.609       -1042.466
 -23093971.219 9 -15240130.96329  21823002.999        2242.949
  29383390.129 7   7466090.18126  23233627.604       -3563.318
 96  7  1  5 50  0.0020000  0  6G 1G14G25G15G22G21
  22390477.850 8   6637094.24426  23258339.137        -913.616
  -6820762.901 7  -7283840.58125  24444759.485        2996.150
   9424136.240 9  -1755656.44429  22218411.564       -1670.034
  -8695336.468 7  -6640132.08525  24104570.473       -1049.098
 -23127567.885 9 -15266310.19329  21816607.227        2236.576
  29436881.221 7   7507771.52926  23243802.710       -3568.777
 96  7  1  5 50 15.0020000  0  6G 1G14G25G15G22G21
  22404195.766 8   6647783.50426  23260948.620        -915.438
  -6865687.509 7  -7318846.76525  24436212.342        2993.817
   9449206.166 9  -1736121.43629  22223178.983       -1672.604
  -8679550.657 7  -6627831.45025  24107575.743       -1055.625
 -23161066.588 9 -15292413.07829  21810235.108        2229.911
  29490454.109 8   7549516.61726  23253999.911       -3574.256
 96  7  1  5 50 30.0020000  0  6G 1G14G25G15G22G21
  22417942.773 8   6658495.43926  23263561.911        -917.515
  -6910578.104 7  -7353826.44125  24427674.103        2991.411
   9474313.919 9  -1716556.95329  22227959.024       -1675.108
  -8663666.153 7  -6615453.94325  24110594.413       -1062.312
 -23194464.606 9 -15318437.50629  21803877.770        2223.128
  29544108.736 8   7591325.39826  23264207.904       -3579.637
 96  7  1  5 50 45.0020000  0  6G 1G14G25G15G22G21
  22431721.652 8   6669232.21326  23266188.573        -919.701
  -6955429.736 7  -7388775.74725  24419133.286        2988.691
   9499458.538 9  -1696963.74129  22232742.693       -1677.507
  -8647682.731 7  -6602999.33925  24113644.022       -1068.890
 -23227760.052 9 -15344382.01129  21797540.427        2216.316
  29597845.422 7   7633198.13726  23274431.037       -3585.156
 96  7  1  5 51  0.0020000  0  6G 1G14G25G15G22G21
  22445534.106 9   6679995.14326  23268819.282        -921.931
  -7000239.371 7  -7423692.35225  24410609.347        2985.973
   9524639.161 9  -1677342.47129  22237535.235       -1679.872
  -8631601.136 7  -6590468.23925  24116701.995       -1075.354
 -23260954.837 9 -15370248.06929  21791225.808        2209.610
  29651664.060 7   7675134.73126  23284674.915       -3590.579
 96  7  1  5 51 15.0020000  0  6G 1G14G25G15G22G21
  22459381.173 8   6690785.07426  23271446.992        -924.445
  -7045004.878 7  -7458574.56525  24402077.673        2982.734
   9549855.174 9  -1657693.62429  22242339.289       -1682.185
  -8615421.431 7  -6577860.67225  24119775.977       -1081.976
 -23294046.317 9 -15396033.64629  21784930.377        2202.569
  29705565.283 7   7717135.67726  23294933.243       -3596.174
 96  7  1  5 51 30.0020000  0  6G 1G14G25G15G22G21
  22473267.323 8   6701605.43126  23274092.121        -927.029
  -7089719.702 7  -7493417.27625  24393571.482        2979.339
   9575104.889 9  -1638018.52529  22247139.356       -1684.422
  -8599143.085 7  -6565176.25425  24122879.338       -1088.526
 -23327031.009 9 -15421736.00429  21778652.453        2195.357
  29759548.030 7   7759200.14426  23305204.583       -3601.491
 96  7  1  5 51 45.0020000  0  6G 1G14G25G15G22G21
  22487190.927 9   6712454.97927  23276740.818        -929.542
  -7134383.668 7  -7528220.34725  24385081.030        2975.839
   9600390.117 9  -1618315.74629  22251953.183       -1686.958
  -8582767.012 7  -6552415.68125  24125988.186       -1095.028
 -23359906.276 9 -15447353.08329  21772395.724        2188.006
  29813610.420 8   7801326.66326  23315497.207       -3606.896
 96  7  1  5 52  0.0020000  0  6G 1G14G25G15G22G21
  22501152.168 9   6723333.86227  23279399.227        -932.020
  -7178996.520 7  -7562983.62426  24376587.040        2972.499
   9625712.305 9  -1598584.16529  22256770.848       -1689.339
  -8566293.782 7  -6539579.38925  24129123.475       -1101.476
 -23392672.062 9 -15472884.87229  21766163.219        2180.720
  29867752.716 8   7843515.45726  23325798.676       -3612.144
 96  7  1  5 52 15.0020000  0  6G 1G14G25G15G22G21
  22515151.398 9   6734242.33627  23282061.504        -934.533
  -7223556.734 7  -7597705.83726  24368106.331        2968.890
   9651069.737 9  -1578825.10929  22261595.618       -1691.562
  -8549723.560 7  -6526667.55225  24132278.761       -1107.913
 -23425325.593 9 -15498329.18029  21759946.542        2173.103
  29921974.310 7   7885766.05226  23336114.684       -3617.368
 96  7  1  5 52 30.0020000  0  6G 1G14G25G15G22G21
  22529188.400 9   6745180.23127  23284734.334        -937.075
  -7268061.817 7  -7632385.11225  24359644.839        2964.949
   9676458.716 9  -1559041.48729  22266428.392       -1693.644
  -8533056.530 7  -6513680.27325  24135454.043       -1114.455
 -23457863.762 9 -15523683.58329  21753753.999        2165.348
  29976274.642 7   7928077.99926  23346449.309       -3622.676
 96  7  1  5 52 45.0020000  0  6G 1G14G25G15G22G21
  22543261.624 9   6756146.36127  23287411.690        -939.344
  -7312506.403 7  -7667017.25126  24351182.597        2961.020
   9701877.168 9  -1539234.89729  22271260.777       -1695.470
  -8516293.199 7  -6500617.89225  24138642.575       -1120.707
 -23490289.313 9 -15548950.24629  21747583.851        2158.096
  30030652.655 7   7970450.44826  23356793.678       -3627.713
 96  7  1  5 53  0.0020000  0  6G 1G14G25G15G22G21
  22557369.985 9   6767139.88527  23290100.289        -941.806
  -7356890.504 7  -7701602.27226  24342731.448        2956.980
   9727323.829 9  -1519406.32329  22276102.695       -1697.474
  -8499433.746 7  -6487480.67825  24141848.556       -1127.226
 -23522605.487 9 -15574131.68229  21741436.517        2150.734
  30085108.186 7   8012883.31526  23367156.574       -3632.958
 96  7  1  5 53 15.0020000  0  6G 1G14G25G15G22G21
  22571514.412 9   6778161.48027  23292790.387        -944.161
  -7401217.441 7  -7736142.73425  24334300.834        2953.274
   9752800.188 9  -1499554.60929  22280953.967       -1699.411
  -8482478.549 7  -6474268.86925  24145082.058       -1133.493
 -23554812.665 9 -15599228.17229  21735308.399        2143.459
  30139638.267 8   8055374.28626  23377535.389       -3637.740
 96  7  1  5 53 30.0020000  0  6G 1G14G25G15G22G21
  22585695.045 8   6789211.30127  23295487.500        -946.612
  -7445487.225 7  -7770638.67725  24325873.608        2949.521
   9778306.778 9  -1479679.33629  22285804.938       -1701.396
  -8465427.646 7  -6460982.43726  24148322.634       -1139.846
 -23586908.155 9 -15624237.65029  21729199.049        2136.037
  30194241.627 8   8097922.38226  23387924.007       -3642.588
 96  7  1  5 53 45.0020000  0  6G 1G14G25G15G22G21
  22599910.195 8   6800288.03027  23298195.105        -948.720
  -7489705.240 7  -7805094.25226  24317463.051        2946.196
   9803843.633 9  -1459780.49529  22290666.912       -1703.510
  -8448281.906 7  -6447622.11426  24151584.316       -1146.262
 -23618893.996 9 -15649161.67729  21723111.253        2128.683
  30248915.974 8   8140525.79126  23398331.452       -3647.382
 96  7  1  5 54  0.0020000  0  6G 1G14G25G15G22G21
  22614156.023 9   6811388.65027  23300902.201        -950.803
  -7533874.483 7  -7839511.84326  24309060.318        2943.066
   9829409.542 9  -1439858.99729  22295532.934       -1705.222
  -8431041.432 7  -6434187.96526  24154864.046       -1152.469
 -23650770.125 9 -15674000.20229  21717046.032        2121.442
  30303663.014 7   8183185.80426  23408743.274       -3652.212
 96  7  1  5 54 15.0020000  0  6G 1G14G25G15G22G21
  22628434.189 9   6822514.48527  23303623.687        -952.873
  -7577997.518 7  -7873893.40926  24300666.159        2940.104
   9854999.150 9  -1419919.02729  22300401.084       -1706.706
  -8413706.446 7  -6420680.23826  24158161.403       -1158.769
 -23682536.834 9 -15698753.48129  21711001.137        2114.122
  30358484.534 7   8225903.83926  23419178.960       -3657.221
 96  7  1  5 54 30.0020000  0  6G 1G14G25G15G22G21
  22642743.130 8   6833664.30027  23306341.306        -954.970
  -7622076.127 7  -7908240.38326  24292271.640        2937.109
   9880612.783 9  -1399960.35029  22305274.180       -1708.459
  -8396277.023 7  -6407098.86626  24161483.193       -1165.104
 -23714192.694 9 -15723420.38829  21704977.886        2106.712
  30413380.769 7   8268680.10826  23429622.080       -3662.231
 96  7  1  5 54 45.0030000  0  6G 1G14G25G15G22G21
  22657083.139 8   6844838.29927  23309070.556        -956.942
  -7666113.501 7  -7942555.21726  24283892.081        2934.200
   9906255.926 9  -1379978.67529  22310156.690       -1710.413
  -8378752.421 7  -6393443.32026  24164812.299       -1171.317
 -23745741.373 9 -15748003.75529  21698975.172        2099.532
  30468354.851 7   8311517.04326  23440085.796       -3667.028
 96  7  1  5 55  0.0030000  0  6G 1G14G25G15G22G21
  22671453.437 8   6856035.91827  23311805.653        -959.128
  -7710106.351 7  -7976835.35526  24275522.056        2931.535
   9931927.476 9  -1359974.85829  22315042.108       -1712.473
  -8361135.481 7  -6379715.86126  24168168.865       -1177.604
 -23777179.169 9 -15772500.74329  21692991.225        2092.059
  30523395.556 8   8354405.91826  23450564.652       -3671.743
 96  7  1  5 55 15.0030000  0  6G 1G14G25G15G22G21
  22685855.880 8   6867258.56827  23314549.503        -961.115
  -7754059.972 7  -8011084.92226  24267155.118        2928.943
   9957629.482 9  -1339947.31329  22319930.254       -1714.468
  -8343424.968 7  -6365915.44426  24171543.689       -1183.757
 -23808501.737 9 -15796907.94729  21687028.682        2084.248
  30578506.831 7   8397349.77326  23461047.705       -3676.351
 96  7  1  5 55 30.0030000  0  6G 1G14G25G15G22G21
  22700287.392 8   6878503.89727  23317289.966        -963.069
  -7797973.433 7  -8045303.20226  24258804.489        2926.188
   9983362.994 9  -1319895.22629  22324827.993       -1716.583
  -8325621.356 7  -6352042.49126  24174925.228       -1190.043
 -23839706.056 9 -15821222.99329  21681093.032        2076.352
  30633687.285 7   8440347.54926  23471548.295       -3681.105
 96  7  1  5 55 45.0030000  0  6G 1G14G25G15G22G21
  22714745.381 8   6889769.82927  23320047.937        -964.673
  -7841845.654 7  -8079489.33926  24250456.139        2923.406
  10009127.021 9  -1299819.36329  22329729.030       -1718.624
  -8307724.522 7  -6338096.92726  24178335.037       -1196.205
 -23870792.560 9 -15845446.24529  21675177.737        2068.548
  30688940.707 7   8483402.15926  23482064.055       -3686.047
 96  7  1  5 56  0.0030000  0  6G 1G14G25G15G22G21
  22729226.791 8   6901054.02227  23322801.261        -966.287
  -7885674.786 7  -8113641.88926  24242110.696        2920.445
  10034921.762 9  -1279719.55729  22334639.451       -1720.648
  -8289735.503 7  -6324079.49726  24181753.750       -1202.386
 -23901762.556 9 -15869578.70129  21669284.207        2060.712
  30744269.260 7   8526515.30026  23492589.229       -3691.092
 96  7  1  5 56 15.0030000  0  6G 1G14G25G15G22G21
  22743736.162 8   6912360.02227  23325555.754        -968.229
  -7929457.552 7  -8147758.33326  24233777.485        2917.335
  10060747.929 9  -1259595.27029  22339553.619       -1722.839
  -8271653.619 7  -6309989.76026  24185192.879       -1208.492
 -23932614.059 9 -15893618.83029  21663414.360        2052.887
  30799673.788 8   8569687.62426  23503136.527       -3696.075
 96  7  1  5 56 30.0030000  0  6G 1G14G25G15G22G21
  22758273.261 8   6923687.63127  23328326.855        -970.044
  -7973191.899 7  -8181837.06526  24225456.326        2913.902
  10086608.690 9  -1239444.02429  22344475.701       -1725.248
  -8253480.111 7  -6295828.55126  24188652.454       -1214.576
 -23963348.772 9 -15917567.95729  21657565.170        2045.131
  30855150.335 8   8612916.09926  23513690.871       -3700.725
 96  7  1  5 56 45.0030000  0  6G 1G14G25G15G22G21
  22772837.977 8   6935036.73627  23331099.126        -972.008
  -8016874.132 7  -8215875.12826  24217151.925        2910.387
  10112505.116 9  -1219265.01029  22349402.131       -1727.599
  -8235215.837 7  -6281596.66226  24192133.914       -1220.656
 -23993969.304 9 -15941428.11129  21651738.913        2037.577
  30910695.105 8   8656197.73726  23524261.043       -3705.323
 96  7  1  5 57  0.0030000  0  6G 1G14G25G15G22G21
  22787434.510 8   6946410.64327  23333878.682        -974.224
  -8060503.337 7  -8249871.91026  24208840.059        2906.843
  10138434.597 9  -1199060.21029  22354337.194       -1729.620
  -8216860.166 7  -6267293.56026  24195621.100       -1226.829
 -24024476.990 9 -15965200.32429  21645930.554        2030.095
  30966309.191 8   8699533.39126  23534845.995       -3709.949
 96  7  1  5 57 15.0030000  0  6G 1G14G25G15G22G21
  22802062.309 8   6957808.92927  23336662.615        -976.275
  -8104078.834 7  -8283826.81626  24200552.656        2903.147
  10164392.176 9  -1178833.51129  22359276.485       -1731.440
  -8198413.482 7  -6252919.50226  24199132.209       -1232.911
 -24054872.286 9 -15988884.97229  21640149.896        2022.546
  31021994.462 8   8742924.51626  23545438.622       -3714.911
 96  7  1  5 57 30.0030000  0  6G 1G14G25G15G22G21
  22816720.286 8   6969230.69627  23339450.744        -978.220
  -8147598.669 7  -8317738.37426  24192272.119        2899.473
  10190375.882 9  -1158586.45629  22364221.951       -1733.143
  -8179875.594 7  -6238474.40326  24202661.816       -1238.837
 -24085157.725 9 -16012484.01929  21634385.187        2015.480
  31077754.449 8   8786373.86826  23556053.074       -3719.793
 96  7  1  5 57 45.0030000  0  6G 1G14G25G15G22G21
  22831410.192 8   6980677.34727  23342244.181        -980.470
  -8191062.724 7  -8351606.48626  24183998.506        2895.801
  10216386.998 9  -1138318.04829  22369170.056       -1734.921
  -8161247.203 7  -6223958.77726  24206207.102       -1244.885
 -24115337.313 9 -16036000.57629  21628639.724        2008.463
  31133589.787 8   8829881.93326  23566676.609       -3724.857
 96  7  1  5 58  0.0030000  0  6G 1G14G25G15G22G21
  22846136.872 8   6992152.67927  23345048.589        -983.184
  -8234472.945 7  -8385432.61226  24175736.586        2892.165
  10242423.964 9  -1118029.50729  22374125.325       -1736.668
  -8142528.762 7  -6209372.98526  24209765.698       -1250.973
 -24145410.301 9 -16059434.08329  21622918.695        2001.155
  31189501.908 8   8873449.80625  23577314.085       -3730.029
 96  7  1  5 58 15.0030000  0  6G 1G14G25G15G22G21
  22860906.465 8   7003661.44427  23347857.165        -986.135
  -8277830.017 7  -8419217.34326  24167491.394        2888.699
  10268485.553 9  -1097721.77929  22379083.623       -1738.228
  -8123720.241 7  -6194716.99926  24213342.612       -1256.995
 -24175372.735 9 -16082781.42029  21617216.852        1993.813
  31245487.720 8   8917075.14525  23587972.786       -3734.800
 96  7  1  5 58 30.0030000  0  6G 1G14G25G15G22G21
  22875719.897 8   7015204.34727  23350674.375        -989.013
  -8321134.145 7  -8452960.82426  24159242.664        2885.107
  10294570.436 9  -1077395.88729  22384050.914       -1739.768
  -8104822.445 7  -6179991.44626  24216936.973       -1262.870
 -24205226.452 9 -16106044.04929  21611536.535        1986.608
  31301544.118 8   8960755.47625  23598631.547       -3739.417
 96  7  1  5 58 45.0030000  0  6G 1G14G25G15G22G21
  22890576.872 8   7026781.22027  23353507.443        -991.921
  -8364383.190 7  -8486661.37626  24151016.089        2881.534
  10320676.186 9  -1057053.72429  22389012.899       -1740.962
  -8085835.761 7  -6165196.62926  24220551.931       -1268.715
 -24234971.614 9 -16129222.11529  21605875.943        1979.374
  31357670.543 7   9004490.32925  23609320.857       -3744.137
 96  7  1  5 59  0.0030000  0  6G 1G14G25G15G22G21
  22905478.958 8   7038393.23127  23356340.782        -994.894
  -8407579.753 7  -8520321.05026  24142799.108        2878.062
  10346800.147 9  -1036697.40429  22393987.535       -1742.192
  -8066760.040 7  -6150332.42326  24224183.617       -1274.646
 -24264605.001 9 -16152313.06129  21600235.348        1971.776
  31413869.519 7   9048281.74125  23620012.596       -3748.980
 96  7  1  5 59 15.0030000  0  6G 1G14G25G15G22G21
  22920423.546 8   7050038.34827  23359182.365        -997.668
  -8450722.424 7  -8553938.69326  24134590.880        2874.320
  10372942.546 9  -1016326.70029  22398960.822       -1743.485
  -8047595.534 7  -6135399.05026  24227829.842       -1280.591
 -24294122.493 9 -16175313.69529  21594619.936        1963.884
  31470141.462 7   9092129.97725  23630713.088       -3753.882
 96  7  1  5 59 30.0030000  0  6G 1G14G25G15G22G21
  22935409.641 8   7061715.80927  23362035.999       -1000.455
  -8493810.479 7  -8587513.79026  24126388.649        2870.799
  10399105.617 9   -995939.89129  22403942.144       -1744.953
  -8028341.973 7  -6120396.29526  24231491.028       -1286.500
 -24323519.971 9 -16198220.81729  21589025.718        1955.811
  31526486.041 7   9136034.84125  23641445.538       -3758.738
 96  7  1  5 59 45.0030000  0  6G 1G14G25G15G22G21
  22950439.205 8   7073427.14027  23364893.951       -1003.476
  -8536845.426 7  -8621047.51826  24118199.728        2867.260
  10425291.153 9   -975535.56929  22408922.536       -1746.438
  -8009000.631 7  -6105325.13426  24235172.060       -1292.332
 -24352795.441 9 -16221032.85729  21583454.046        1947.579
  31582902.089 7   9179995.42325  23652178.767       -3763.382
 96  7  1  6  0  0.0030000  0  6G 1G14G25G15G22G21
  22965515.349 8   7085174.77326  23367765.692       -1006.561
  -8579825.200 7  -8654538.23226  24110022.049        2863.419
  10451499.830 9   -955113.22929  22413910.003       -1747.968
  -7989570.854 7  -6090185.02826  24238877.854       -1298.265
 -24381945.490 9 -16243747.17829  21577909.834        1939.154
  31639387.481 8   9224010.03925  23662927.046       -3767.922
 96  7  1  6  0 15.0030000  0  6G 1G14G25G15G22G21
  22980636.234 9   7096957.26426  23370643.460       -1009.470
  -8622746.478 7  -8687983.41026  24101850.786        2859.397
  10477730.107 9   -934674.04829  22418904.365       -1749.447
  -7970052.634 7  -6074976.02426  24242591.893       -1304.139
 -24410970.002 9 -16266363.67329  21572383.160        1930.827
  31695939.078 8   9268076.24725  23673690.645       -3772.216
 96  7  1  6  0 30.0030000  0  6G 1G14G25G15G22G21
  22995796.567 9   7108770.52726  23373529.502       -1011.886
  -8665606.654 7  -8721380.94926  24093698.080        2855.277
  10503983.904 9   -914216.53629  22423898.638       -1751.069
  -7950446.574 7  -6059698.58825  24246316.664       -1310.046
 -24439873.051 9 -16288885.52129  21566884.606        1922.894
  31752554.519 8   9312192.18925  23684466.055       -3776.538
 96  7  1  6  0 45.0030000  0  6G 1G14G25G15G22G21
  23010992.099 8   7120611.18626  23376419.112       -1014.264
  -8708404.576 7  -8754729.95626  24085552.659        2851.148
  10530262.414 9   -893739.77829  22428898.577       -1752.723
  -7930752.814 7  -6044352.82326  24250068.447       -1315.846
 -24468656.297 9 -16311314.01429  21561407.458        1914.845
  31809234.627 8   9356358.48325  23695248.001       -3780.926
 96  7  1  6  1  0.0030000  0  6G 1G14G25G15G22G21
  23026222.815 8   7132479.26426  23379317.026       -1016.591
  -8751141.958 7  -8788031.80326  24077421.088        2847.150
  10556565.784 9   -873243.63829  22433903.552       -1754.459
  -7910971.627 7  -6028938.89726  24253833.301       -1321.687
 -24497318.443 9 -16333648.14729  21555952.674        1906.776
  31865981.337 7   9400576.69825  23706049.044       -3785.376
 96  7  1  6  1 15.0030000  0  6G 1G14G25G15G22G21
  23041487.265 8   7144373.64026  23382217.757       -1018.765
  -8793819.495 7  -8821287.02026  24069298.751        2843.193
  10582896.069 9   -852726.53829  22438918.750       -1756.233
  -7891104.433 7  -6013457.95725  24257611.105       -1327.331
 -24525861.330 9 -16355889.35529  21550520.555        1898.938
  31922793.421 7   9444845.83825  23716852.365       -3789.587
 96  7  1  6  1 30.0030000  0  6G 1G14G25G15G22G21
  23056787.513 8   7156295.90826  23385131.470       -1021.254
  -8836436.159 7  -8854494.79526  24061188.586        2839.074
  10609254.637 9   -832187.40629  22443932.869       -1758.278
  -7871151.080 7  -5997909.91125  24261411.215       -1333.117
 -24554285.832 9 -16378038.31229  21545114.608        1891.049
  31979670.872 7   9489165.90425  23727678.890       -3794.089
 96  7  1  6  1 45.0030000  0  6G 1G14G25G15G22G21
  23072123.699 8   7168246.16726  23388048.691       -1023.692
  -8878993.416 7  -8887656.30926  24053089.093        2835.112
  10635643.000 9   -811625.03029  22448952.294       -1760.198
  -7851112.161 7  -5982295.17325  24265220.228       -1338.773
 -24582595.345 9 -16400097.67829  21539726.348        1883.463
  32036613.918 7   9533537.10525  23738515.458       -3798.433
 96  7  1  6  2  0.0030000  0  6G 1G14G25G15G22G21
  23087497.670 8   7180225.88427  23390976.674       -1026.139
  -8921488.497 7  -8920769.34826  24045006.898        2830.847
  10662060.188 9   -791040.20729  22453977.475       -1762.114
  -7830986.863 7  -5966613.14025  24269052.594       -1344.583
 -24610790.228 9 -16422067.71529  21534357.425        1875.815
  32093622.101 8   9577959.04625  23749367.885       -3802.595
 96  7  1  6  2 15.0030000  0  6G 1G14G25G15G22G21
  23102905.210 8   7192231.75227  23393911.222       -1028.194
  -8963921.201 7  -8953833.79226  24036923.174        2826.865
  10688505.937 9   -770433.14729  22459012.339       -1763.942
  -7810775.778 7  -5950864.21225  24272885.111       -1350.192
 -24638871.402 9 -16443949.14129  21529017.401        1868.316
  32150692.505 7   9622429.51725  23760227.777       -3806.868
 96  7  1  6  2 30.0030000  0  6G 1G14G25G15G22G21
  23118343.355 9   7204261.46527  23396848.259       -1030.327
  -9006294.913 8  -8986852.26126  24028861.875        2822.928
  10714979.691 9   -749804.25629  22464049.062       -1765.907
  -7790480.441 7  -5935049.68725  24276749.676       -1355.914
 -24666838.951 9 -16465742.04029  21523694.257        1860.606
  32207827.916 7   9666950.65225  23771098.491       -3811.222
 96  7  1  6  2 45.0030000  0  6G 1G14G25G15G22G21
  23133814.364 8   7216316.78827  23399788.204       -1032.555
  -9048610.536 8  -9019825.48826  24020817.184        2819.182
  10741480.805 9   -729154.03629  22469092.381       -1767.521
  -7770100.672 7  -5919169.36026  24280636.875       -1361.359
 -24694690.344 9 -16487444.41929  21518395.275        1852.806
  32265029.576 7   9711523.41425  23781982.666       -3815.645
 96  7  1  6  3  0.0030000  0  6G 1G14G25G15G22G21
  23149322.426 8   7228400.96727  23402741.549       -1035.188
  -9090869.491 8  -9052754.55726  24012766.228        2815.397
  10768006.930 9   -708484.33729  22474139.687       -1769.249
  -7749636.663 7  -5903223.37625  24284533.967       -1367.056
 -24722420.510 9 -16509052.33929  21513119.018        1844.561
  32322296.956 7   9756147.36125  23792879.792       -3819.993
 96  7  1  6  3 15.0030000  0  6G 1G14G25G15G22G21
  23164870.733 8   7240516.52127  23405697.443       -1037.933
  -9133072.051 8  -9085639.66326  24004743.872        2811.631
  10794558.068 9   -687795.14529  22479193.828       -1770.958
  -7729088.090 7  -5887211.47925  24288440.952       -1372.744
 -24750026.719 9 -16530563.67929  21507860.808        1836.231
  32379628.628 7   9800821.36025  23803784.263       -3824.229
 96  7  1  6  3 30.0030000  0  6G 1G14G25G15G22G21
  23180458.594 8   7252662.90827  23408664.369       -1040.566
  -9175220.335 8  -9118482.49426  23996722.685        2807.986
  10821133.068 9   -667087.35229  22484250.008       -1772.462
  -7708455.812 7  -5871134.39225  24292362.477       -1378.311
 -24777506.857 9 -16551976.75629  21502636.385        1827.656
  32437023.128 7   9845544.34625  23814711.668       -3828.510
 96  7  1  6  3 45.0030000  0  6G 1G14G25G15G22G21
  23196085.499 8   7264839.74027  23411642.087       -1043.129
  -9217312.711 8  -9151281.75726  23988710.971        2804.248
  10847730.395 9   -646362.16629  22489312.513       -1773.935
  -7687738.930 7  -5854991.34826  24296308.016       -1384.013
 -24804858.629 9 -16573289.83629  21497428.360        1819.149
  32494482.422 7   9890317.82725  23825650.076       -3832.776
 96  7  1  6  4  0.0030000  0  6G 1G14G25G15G22G21
  23211752.586 8   7277047.83527  23414618.307       -1045.852
  -9259348.950 8  -9184037.25326  23980711.279        2800.532
  10874348.220 9   -625621.01329  22494376.847       -1775.103
  -7666938.649 7  -5838783.33326  24300266.146       -1389.442
 -24832081.177 9 -16594502.21129  21492248.876        1810.462
  32552003.783 7   9935139.64725  23836593.160       -3836.752
 96  7  1  6  4 15.0030000  0  6G 1G14G25G15G22G21
  23227460.681 8   7289287.87827  23417612.214       -1048.538
  -9301327.017 8  -9216747.46126  23972718.123        2796.600
  10900985.024 9   -604865.07029  22499444.149       -1776.456
  -7646055.265 7  -5822510.57426  24304245.741       -1394.985
 -24859172.601 9 -16615612.40429  21487093.075        1801.751
  32609584.381 7   9980007.67225  23847553.063       -3840.732
 96  7  1  6  4 30.0030000  0  6G 1G14G25G15G22G21
  23243209.219 8   7301559.46927  23420609.000       -1051.264
  -9343247.705 8  -9249412.94626  23964749.039        2792.798
  10927642.325 9   -584093.14829  22504518.976       -1777.769
  -7625088.976 7  -5806173.18326  24308229.683       -1400.480
 -24886133.489 9 -16636620.88729  21481961.527        1793.082
  32667227.065 7  10024924.03725  23858522.978       -3844.901
 96  7  1  6  4 45.0030000  0  6G 1G14G25G15G22G21
  23258999.281 8   7313863.44327  23423612.590       -1054.149
  -9385110.673 8  -9282033.42826  23956781.545        2788.847
  10954318.360 9   -563306.62529  22509595.631       -1779.042
  -7604040.618 7  -5789771.88226  24312234.670       -1405.945
 -24912964.383 9 -16657528.07929  21476858.640        1784.389
  32724929.448 7  10069886.89925  23869500.389       -3848.760
 96  7  1  6  5  0.0030000  0  6G 1G14G25G15G22G21
  23274832.960 8   7326201.35227  23426622.177       -1057.076
  -9426912.462 8  -9314606.23426  23948820.856        2784.724
  10981013.129 9   -542505.51729  22514672.616       -1780.278
  -7582910.267 7  -5773306.66126  24316257.915       -1411.448
 -24939666.127 9 -16678334.62929  21471776.648        1775.785
  32782689.963 7  10114895.12025  23880488.532       -3852.660
 96  7  1  6  5 15.0030000  0  6G 1G14G25G15G22G21
  23290710.731 8   7338573.63527  23429641.387       -1060.039
  -9468651.588 8  -9347130.22626  23940882.412        2780.366
  11007725.870 9   -521690.40329  22519757.426       -1781.538
  -7561698.566 7  -5756778.09026  24320296.269       -1416.857
 -24966239.395 9 -16699041.07429  21466720.888        1767.249
  32840508.997 7  10159948.91125  23891493.613       -3856.667
 96  7  1  6  5 30.0030000  0  6G 1G14G25G15G22G21
  23306632.146 8   7350979.93527  23432675.376       -1062.879
  -9510322.835 8  -9379601.34526  23932945.706        2775.745
  11034457.908 9   -500860.24729  22524845.174       -1782.764
  -7540404.754 7  -5740185.50426  24324343.737       -1422.276
 -24992685.009 9 -16719648.05129  21461690.131        1758.823
  32898389.808 7  10205050.83625  23902507.089       -3860.881
 96  7  1  6  5 45.0030000  0  6G 1G14G25G15G22G21
  23322594.797 8   7363418.35227  23435713.983       -1065.577
  -9551922.985 8  -9412017.05426  23925036.762        2770.864
  11061207.340 9   -480016.54729  22529933.612       -1783.897
  -7519030.094 7  -5723529.91726  24328418.336       -1427.717
 -25019005.198 9 -16740157.28029  21456678.740        1750.518
  32956333.679 7  10250201.91025  23913530.128       -3865.029
 96  7  1  6  6  0.0030000  0  6G 1G14G25G15G22G21
  23338598.058 8   7375888.40827  23438760.474       -1068.362
  -9593448.157 8  -9444374.31626  23917135.672        2765.752
  11087972.679 9   -459160.45329  22535030.203       -1784.952
  -7497575.523 7  -5706812.05426  24332499.171       -1433.006
 -25045202.994 9 -16760571.14129  21451696.010        1742.361
  33014337.897 7  10295400.03425  23924575.861       -3868.956
 96  7  1  6  6 15.0030000  0  6G 1G14G25G15G22G21
  23354643.242 8   7388391.13227  23441808.674       -1071.000
  -9634898.499 8  -9476673.28126  23909242.346        2760.884
  11114754.397 9   -438291.57929  22540124.307       -1786.081
  -7476040.726 7  -5690031.70126  24336592.208       -1438.362
 -25071276.618 9 -16780888.24229  21446732.856        1734.101
  33072401.054 7  10340644.00425  23935620.605       -3872.929
 96  7  1  6  6 30.0030000  0  6G 1G14G25G15G22G21
  23370726.751 8   7400923.73527  23444875.910       -1073.588
  -9676275.356 8  -9508914.98426  23901373.154        2756.001
  11141554.564 9   -417408.33229  22545222.098       -1787.290
  -7454426.012 7  -5673189.07526  24340702.722       -1443.751
 -25097226.691 9 -16801109.07629  21441795.514        1725.790
  33130525.508 7  10385935.80225  23946684.146       -3877.119
 96  7  1  6  6 45.0030000  0  6G 1G14G25G15G22G21
  23386850.448 8   7413487.63927  23447941.618       -1076.331
  -9717578.340 8  -9541099.14526  23893511.816        2751.090
  11168372.648 9   -396511.14029  22550326.814       -1788.440
  -7432730.918 7  -5656283.82226  24344837.340       -1448.994
 -25123050.056 9 -16821231.17629  21436883.384        1717.341
  33188714.548 7  10431277.93625  23957751.074       -3881.333
 96  7  1  6  7  0.0030000  0  6G 1G14G25G15G22G21
  23403018.142 8   7426085.83527  23451017.758       -1079.254
  -9758806.169 8  -9573224.71326  23885666.067        2746.067
  11195208.963 9   -375599.71429  22555436.087       -1789.601
  -7410956.559 7  -5639316.80526  24348983.889       -1454.166
 -25148746.990 9 -16841254.76829  21431991.281        1709.003
  33246965.995 7  10476668.63125  23968838.718       -3885.491
 96  7  1  6  7 15.0030000  0  6G 1G14G25G15G22G21
  23419228.871 8   7438717.54927  23454101.993       -1082.190
  -9799959.593 8  -9605292.31726  23877836.118        2741.188
  11222062.226 9   -354675.10029  22560545.539       -1790.768
  -7389104.202 7  -5622288.99926  24353139.492       -1459.438
 -25174317.725 9 -16861180.00629  21427124.031        1700.443
  33305280.989 7  10522108.94525  23979938.654       -3889.672
 96  7  1  6  7 30.0030000  0  6G 1G14G25G15G22G21
  23435483.105 8   7451383.16827  23457197.020       -1084.996
  -9841039.956 8  -9637302.98726  23870018.910        2736.297
  11248934.567 9   -333735.62229  22565656.821       -1792.156
  -7367173.065 7  -5605199.78926  24357309.635       -1464.715
 -25199760.220 9 -16881005.32429  21422282.982        1691.945
  33363658.285 7  10567597.75525  23991042.367       -3893.875
 96  7  1  6  7 45.0030000  0  6G 1G14G25G15G22G21
  23451779.141 8   7464081.38127  23460300.022       -1087.755
  -9882050.800 8  -9669259.49026  23862216.871        2731.815
  11275827.412 9   -312780.16529  22570774.788       -1793.509
  -7345163.902 7  -5588049.80325  24361497.226       -1469.855
 -25225075.696 9 -16900731.66729  21417466.037        1683.429
  33422096.547 7  10613134.08025  24002168.834       -3897.841
 96  7  1  6  8  0.0030000  0  6G 1G14G25G15G22G21
  23468117.544 8   7476812.60627  23463408.001       -1090.665
  -9922994.816 8  -9701163.89626  23854425.985        2727.525
  11302741.927 9   -291807.82129  22575897.371       -1795.052
  -7323076.902 7  -5570839.15425  24365705.323       -1475.060
 -25250263.062 9 -16920358.17529  21412670.317        1674.923
  33480592.080 7  10658715.05125  24013298.449       -3901.480
 96  7  1  6  8 15.0030000  0  6G 1G14G25G15G22G21
  23484499.993 8   7489578.13527  23466517.808       -1093.654
  -9963877.046 8  -9733020.21326  23846643.702        2723.512
  11329680.758 9   -270816.52829  22581022.743       -1796.809
  -7300912.591 7  -5553568.25025  24369919.596       -1480.215
 -25275323.234 9 -16939885.58029  21407900.919        1666.389
  33539141.679 7  10704338.14325  24024438.108       -3905.082
 96  7  1  6  8 30.0030000  0  6G 1G14G25G15G22G21
  23500926.238 8   7502377.78027  23469647.851       -1096.562
 -10004699.029 8  -9764829.55426  23838876.349        2719.400
  11356646.850 9   -249803.99629  22586157.978       -1798.615
  -7278671.144 7  -5536237.24425  24374151.076       -1485.341
 -25300255.513 9 -16959313.32929  21403157.872        1657.918
  33597745.538 7  10750003.50625  24035590.987       -3908.782
 96  7  1  6  8 45.0030000  0  6G 1G14G25G15G22G21
  23517397.045 8   7515212.17127  23472785.659       -1099.573
 -10045459.966 8  -9796591.34526  23831125.125        2715.295
  11383637.193 9   -228772.57029  22591293.603       -1800.115
  -7256352.983 7  -5518846.46625  24378401.474       -1490.472
 -25325061.979 9 -16978643.03229  21398437.880        1649.569
  33656404.925 7  10795712.12525  24046752.200       -3912.366
 96  7  1  6  9  0.0030000  0  6G 1G14G25G15G22G21
  23533911.861 8   7528080.85727  23475928.263       -1102.489
 -10086158.762 9  -9828304.67926  23823374.771        2711.212
  11410651.352 9   -207722.57429  22596430.996       -1801.760
  -7233957.777 7  -5501395.68025  24382661.075       -1495.560
 -25349743.497 9 -16997875.38229  21393742.950        1641.290
  33715116.998 7  10841461.74725  24057927.204       -3915.812
 96  7  1  6  9 15.0030000  0  6G 1G14G25G15G22G21
  23550467.512 8   7540981.35127  23479078.812       -1104.943
 -10126796.913 8  -9859970.77526  23815643.183        2707.241
  11437688.563 9   -186654.62129  22601576.574       -1803.132
  -7211486.685 7  -5483885.78025  24386932.458       -1500.567
 -25374301.238 9 -17017011.29929  21389070.055        1633.030
  33773878.289 6  10887249.80025  24069104.965       -3918.984
 96  7  1  6  9 30.0030000  0  6G 1G14G25G15G22G21
  23567060.215 8   7553910.71827  23482235.267       -1107.449
 -10167376.661 8  -9891591.37826  23807918.611        2703.354
  11464745.533 9   -165571.26829  22606727.458       -1804.455
  -7188940.367 7  -5466317.20425  24391231.392       -1505.618
 -25398733.492 9 -17036049.40629  21384420.034        1624.628
  33832686.071 6  10933074.03425  24080295.109       -3922.015
 96  7  1  6  9 45.0030000  0  6G 1G14G25G15G22G21
  23583690.264 8   7566869.19527  23485397.717       -1109.844
 -10207895.835 8  -9923164.77726  23800210.497        2699.280
  11491823.050 9   -144471.91129  22611880.381       -1805.802
  -7166318.226 7  -5448689.55125  24395535.272       -1510.650
 -25423039.431 9 -17054989.09229  21379793.277        1616.226
  33891541.326 6  10978935.22125  24091497.214       -3925.162
 96  7  1  6 10  0.0030000  0  6G 1G14G25G15G22G21
  23600356.693 8   7579856.01227  23488569.042       -1112.401
 -10248354.323 8  -9954690.88326  23792510.208        2695.116
  11518918.393 9   -123358.65829  22617035.042       -1806.962
  -7143620.995 7  -5431003.41225  24399844.309       -1515.753
 -25447218.349 9 -17073829.81429  21375195.240        1607.591
  33950441.849 6  11024831.74425  24102698.779       -3928.221
 96  7  1  6 10 15.0030000  0  6G 1G14G25G15G22G21
  23617061.451 8   7592872.71527  23491752.838       -1114.882
 -10288749.163 8  -9986167.39626  23784824.938        2690.902
  11546030.644 9   -102232.22829  22622191.443       -1807.919
  -7120847.980 7  -5413258.22125  24404180.777       -1520.626
 -25471267.822 9 -17092569.66229  21370616.060        1599.021
  34009387.098 6  11070763.09425  24113922.679       -3931.177
 96  7  1  6 10 30.0030000  0  6G 1G14G25G15G22G21
  23633803.509 8   7605918.47727  23494933.516       -1117.355
 -10329079.563 8 -10017593.67026  23777149.742        2686.481
  11573155.807 9    -81095.74029  22627355.937       -1808.682
  -7098000.645 7  -5395455.06325  24408531.455       -1525.616
 -25495187.883 9 -17111208.66729  21366063.412        1590.310
  34068379.085 7  11116730.91625  24125148.167       -3934.412
 96  7  1  6 10 45.0030000  0  6G 1G14G25G15G22G21
  23650584.648 8   7618994.67526  23498129.334       -1120.190
 -10369342.674 8 -10048967.55526  23769484.199        2681.914
  11600290.883 9    -59951.53329  22632519.203       -1809.318
  -7075078.692 7  -5377593.80725  24412898.472       -1530.706
 -25518975.214 9 -17129744.24829  21361536.756        1581.304
  34127420.817 7  11162737.44925  24136381.361       -3937.814
 96  7  1  6 11  0.0030000  0  6G 1G14G25G15G22G21
  23667407.327 8   7632103.25126  23501331.687       -1122.903
 -10409538.817 8 -10080289.23026  23761834.874        2677.459
  11627434.269 9    -38800.84029  22637684.327       -1809.889
  -7052082.725 6  -5359674.91225  24417265.669       -1535.476
 -25542627.498 9 -17148174.60329  21357037.800        1572.277
  34186510.303 7  11208781.16425  24147629.274       -3940.770
 96  7  1  6 11 15.0030000  0  6G 1G14G25G15G22G21
  23684273.464 8   7645245.70726  23504541.984       -1125.948
 -10449666.743 8 -10111557.76126  23754200.239        2672.949
  11654587.448 9    -17642.52229  22642851.250       -1810.464
  -7029013.689 7  -5341699.02825  24421664.493       -1540.362
 -25566142.696 9 -17166498.13129  21352559.950        1563.127
  34245644.773 7  11254859.99325  24158881.025       -3943.804
 96  7  1  6 11 30.0030000  0  6G 1G14G25G15G22G21
  23701186.835 8   7658424.95926  23507754.980       -1129.173
 -10489726.419 8 -10142773.09826  23746578.316        2668.354
  11681750.192 9      3523.24329  22648019.073       -1811.187
  -7005872.333 7  -5323666.80625  24426066.496       -1545.195
 -25589521.362 9 -17184715.27529  21348113.519        1554.009
  34304825.752 7  11300975.02025  24170144.467       -3947.020
 96  7  1  6 11 45.0030000  0  6G 1G14G25G15G22G21
  23718149.898 8   7671642.92126  23510990.040       -1132.491
 -10529717.091 9 -10173934.66326  23738969.583        2663.717
  11708925.164 9     24698.53629  22653190.373       -1812.116
  -6982657.905 7  -5305577.62725  24430476.863       -1550.067
 -25612762.904 9 -17202825.55129  21343691.550        1544.956
  34364055.808 7  11347128.29525  24181416.214       -3950.289
 96  7  1  6 12  0.0030000  0  6G 1G14G25G15G22G21
  23735162.482 8   7684899.48026  23514224.471       -1135.871
 -10569637.335 9 -10205041.37426  23731372.273        2658.975
  11736114.711 9     45885.20129  22658364.161       -1813.118
  -6959371.223 7  -5287432.17825  24434916.669       -1554.843
 -25635870.719 9 -17220831.64029  21339295.933        1536.114
  34423335.171 7  11393320.01925  24192695.875       -3953.603
 96  7  1  6 12 15.0030000  0  6G 1G14G25G15G22G21
  23752227.210 8   7698196.69426  23517471.193       -1139.384
 -10609486.671 9 -10236092.79126  23723789.562        2654.244
  11763319.545 9     67083.77529  22663545.504       -1814.186
  -6936012.454 7  -5269230.53125  24439352.968       -1559.592
 -25658846.197 9 -17238734.61129  21334920.882        1527.317
  34482666.016 7  11439551.84125  24203987.798       -3957.201
 96  7  1  6 12 30.0030000  0  6G 1G14G25G15G22G21
  23769342.528 8   7711533.29526  23520729.338       -1142.703
 -10649264.931 9 -10267088.85426  23716220.552        2649.559
  11790540.718 9     88295.05829  22668721.331       -1815.250
  -6912582.391 7  -5250973.32025  24443822.814       -1564.319
 -25681691.341 9 -17256536.02629  21330576.289        1518.677
  34542052.566 7  11485827.06925  24215285.357       -3960.972
 96  7  1  6 12 45.0030000  0  6G 1G14G25G15G22G21
  23786508.097 8   7724909.04126  23523988.741       -1146.077
 -10688973.478 9 -10298030.58426  23708665.123        2644.906
  11817779.018 9    109519.70029  22673906.151       -1816.543
  -6889081.990 7  -5232661.33025  24448282.406       -1569.041
 -25704405.908 9 -17274235.68229  21326251.214        1509.952
  34601494.164 7  11532145.22025  24226597.575       -3964.440
 96  7  1  6 13  0.0030000  0  6G 1G14G25G15G22G21
  23803725.144 8   7738324.93726  23527271.229       -1149.387
 -10728609.180 9 -10328915.56026  23701123.274        2639.971
  11845039.558 9    130761.67429  22679088.903       -1818.080
  -6865510.406 7  -5214293.86425  24452776.985       -1573.777
 -25726989.306 9 -17291833.13829  21321953.839        1501.338
  34660987.311 7  11578503.52024  24237926.822       -3967.803
 96  7  1  6 13 15.0030000  0  6G 1G14G25G15G22G21
  23820989.747 8   7751777.87826  23530554.376       -1152.524
 -10768169.638 8 -10359741.88826  23693592.337        2634.775
  11872322.929 9    152021.43929  22684282.448       -1819.687
  -6841868.508 7  -5195871.59625  24457275.251       -1578.494
 -25749445.779 9 -17309331.66729  21317682.635        1492.825
  34720531.307 7  11624901.43724  24249251.183       -3971.457
 96  7  1  6 13 30.0030000  0  6G 1G14G25G15G22G21
  23838300.022 8   7765266.38526  23533849.395       -1155.480
 -10807653.870 8 -10390508.84126  23686077.470        2629.760
  11899629.453 9    173299.23629  22689479.890       -1821.240
  -6818156.725 7  -5177394.89125  24461786.528       -1583.096
 -25771777.034 9 -17326732.65429  21313431.099        1484.633
  34780128.776 7  11671341.00224  24260593.051       -3974.972
 96  7  1  6 13 45.0030000  0  6G 1G14G25G15G22G21
  23855653.113 8   7778788.27926  23537150.890       -1158.193
 -10847060.237 8 -10421215.08626  23678581.399        2624.457
  11926960.422 9    194596.09729  22694681.679       -1822.781
  -6794374.833 7  -5158863.53825  24466308.447       -1587.817
 -25793983.296 9 -17344036.23029  21309207.443        1476.219
  34839781.664 6  11717823.75724  24271948.740       -3978.640
 96  7  1  6 14  0.0030000  0  6G 1G14G25G15G22G21
  23873046.281 8   7792341.40126  23540465.875       -1160.849
 -10886384.957 8 -10451857.73426  23671095.282        2618.837
  11954312.542 9    215909.44529  22699882.928       -1824.129
  -6770524.067 7  -5140278.53025  24470850.393       -1592.282
 -25816064.286 9 -17361242.18829  21305004.772        1467.920
  34899487.873 7  11764348.05124  24283302.629       -3982.223
 96  7  1  6 14 15.0030000  0  6G 1G14G25G15G22G21
  23890479.776 8   7805925.94626  23543780.230       -1163.588
 -10925625.770 8 -10482435.00026  23663629.430        2613.323
  11981683.868 9    237237.74029  22705093.741       -1825.336
  -6746605.135 7  -5121640.37725  24475404.720       -1596.837
 -25838019.741 9 -17378350.32729  21300827.284        1459.412
  34959247.226 7  11810913.73025  24294674.027       -3985.655
 96  7  1  6 14 30.0030000  0  6G 1G14G25G15G22G21
  23907955.473 8   7819543.37826  23547100.012       -1166.444
 -10964782.374 8 -10512946.64526  23656181.356        2607.601
  12009073.067 9    258579.97429  22710307.611       -1826.502
  -6722617.509 7  -5102948.75525  24479971.788       -1601.417
 -25859845.050 9 -17395357.06329  21296676.148        1450.665
  35019059.180 7  11857520.43525  24306059.455       -3989.085
 96  7  1  6 14 45.0030000  0  6G 1G14G25G15G22G21
  23925473.802 8   7833194.01026  23550439.190       -1169.386
 -11003853.129 8 -10543391.37226  23648744.225        2601.847
  12036478.762 9    279935.06229  22715519.083       -1827.523
  -6698562.003 7  -5084204.19725  24484544.463       -1605.960
 -25881538.933 9 -17412261.37429  21292544.228        1441.819
  35078918.488 7  11904164.05025  24317444.673       -3992.076
 96  7  1  6 15  0.0030000  0  6G 1G14G25G15G22G21
  23943037.242 8   7846879.80726  23553783.105       -1172.389
 -11042834.675 8 -10573766.61326  23641322.323        2595.738
  12063900.900 9    301302.95229  22720740.149       -1828.672
  -6674438.429 7  -5065406.63325  24489131.857       -1610.461
 -25903100.269 9 -17429062.39929  21288441.629        1433.092
  35138822.753 7  11950842.67125  24328842.513       -3995.176
 96  7  1  6 15 15.0030000  0  6G 1G14G25G15G22G21
  23960644.203 7   7860599.52526  23557134.485       -1175.267
 -11081727.973 8 -10604073.08626  23633924.045        2589.971
  12091335.913 9    322680.87629  22725964.722       -1829.404
  -6650248.138 7  -5046557.02825  24493740.356       -1614.947
 -25924532.961 9 -17445763.20629  21284363.522        1424.441
  35198774.356 7  11997558.22525  24340261.008       -3998.495
